<?xml version="1.0" encoding="UTF-8" standalone="no" ?>
<gpx xmlns="http://www.topografix.com/GPX/1/1" xmlns:xsi="http://www.w3.org/2001/XMLSchema-instance" xsi:schemaLocation="http://www.topografix.com/GPX/1/1 http://www.topografix.com/GPX/1/1/gpx.xsd" version="1.1" creator="VisuGPX - https://www.visugpx.com">
  <metadata>
    <name>Le Pilon de St Clément *** (Belgentier 83)</name>
    <desc><![CDATA[Vallon St Michel, Pas de Truclis, Pas de RiquierPilon de St Clément]]></desc>
  </metadata>
  <trk>
    <name><![CDATA[BELGENCIER 1738:08]]></name>
    <trkseg>
      <trkpt lat="43.24525" lon="6.00327">
        <ele>126.07</ele>
        <time>2017-05-04T07:31:27Z</time>
      </trkpt>
      <trkpt lat="43.24528" lon="6.00329">
        <ele>126.07</ele>
        <time>2017-05-04T07:31:29Z</time>
      </trkpt>
      <trkpt lat="43.24525" lon="6.00336">
        <ele>126.55</ele>
        <time>2017-05-04T07:31:41Z</time>
      </trkpt>
      <trkpt lat="43.24525" lon="6.00345">
        <ele>127.99</ele>
        <time>2017-05-04T07:31:49Z</time>
      </trkpt>
      <trkpt lat="43.2453" lon="6.00355">
        <ele>129.43</ele>
        <time>2017-05-04T07:31:59Z</time>
      </trkpt>
      <trkpt lat="43.24543" lon="6.00366">
        <ele>129.92</ele>
        <time>2017-05-04T07:32:02Z</time>
      </trkpt>
      <trkpt lat="43.24549" lon="6.00381">
        <ele>131.84</ele>
        <time>2017-05-04T07:32:15Z</time>
      </trkpt>
      <trkpt lat="43.2455" lon="6.00385">
        <ele>132.8</ele>
        <time>2017-05-04T07:32:18Z</time>
      </trkpt>
      <trkpt lat="43.24554" lon="6.00401">
        <ele>134.72</ele>
        <time>2017-05-04T07:32:29Z</time>
      </trkpt>
      <trkpt lat="43.24554" lon="6.00402">
        <ele>135.2</ele>
        <time>2017-05-04T07:32:31Z</time>
      </trkpt>
      <trkpt lat="43.24554" lon="6.00406">
        <ele>135.68</ele>
        <time>2017-05-04T07:32:35Z</time>
      </trkpt>
      <trkpt lat="43.24557" lon="6.00415">
        <ele>137.13</ele>
        <time>2017-05-04T07:32:42Z</time>
      </trkpt>
      <trkpt lat="43.2456" lon="6.00426">
        <ele>139.05</ele>
        <time>2017-05-04T07:32:54Z</time>
      </trkpt>
      <trkpt lat="43.24563" lon="6.00435">
        <ele>140.01</ele>
        <time>2017-05-04T07:33:02Z</time>
      </trkpt>
      <trkpt lat="43.24568" lon="6.00447">
        <ele>141.93</ele>
        <time>2017-05-04T07:33:12Z</time>
      </trkpt>
      <trkpt lat="43.24573" lon="6.0045">
        <ele>143.85</ele>
        <time>2017-05-04T07:33:22Z</time>
      </trkpt>
      <trkpt lat="43.24571" lon="6.00451">
        <ele>143.85</ele>
        <time>2017-05-04T07:33:33Z</time>
      </trkpt>
      <trkpt lat="43.24572" lon="6.0045">
        <ele>144.34</ele>
        <time>2017-05-04T07:33:47Z</time>
      </trkpt>
      <trkpt lat="43.24575" lon="6.00447">
        <ele>145.3</ele>
        <time>2017-05-04T07:34:00Z</time>
      </trkpt>
      <trkpt lat="43.24583" lon="6.00442">
        <ele>146.26</ele>
        <time>2017-05-04T07:34:14Z</time>
      </trkpt>
      <trkpt lat="43.24596" lon="6.00435">
        <ele>149.62</ele>
        <time>2017-05-04T07:34:27Z</time>
      </trkpt>
      <trkpt lat="43.24597" lon="6.00434">
        <ele>149.62</ele>
        <time>2017-05-04T07:34:29Z</time>
      </trkpt>
      <trkpt lat="43.24599" lon="6.00433">
        <ele>150.1</ele>
        <time>2017-05-04T07:34:31Z</time>
      </trkpt>
      <trkpt lat="43.24611" lon="6.00424">
        <ele>153.47</ele>
        <time>2017-05-04T07:34:43Z</time>
      </trkpt>
      <trkpt lat="43.24618" lon="6.00419">
        <ele>156.35</ele>
        <time>2017-05-04T07:34:54Z</time>
      </trkpt>
      <trkpt lat="43.24621" lon="6.00424">
        <ele>158.27</ele>
        <time>2017-05-04T07:35:03Z</time>
      </trkpt>
      <trkpt lat="43.24625" lon="6.00434">
        <ele>160.68</ele>
        <time>2017-05-04T07:35:14Z</time>
      </trkpt>
      <trkpt lat="43.24628" lon="6.00445">
        <ele>163.56</ele>
        <time>2017-05-04T07:35:28Z</time>
      </trkpt>
      <trkpt lat="43.2463" lon="6.00458">
        <ele>164.52</ele>
        <time>2017-05-04T07:35:41Z</time>
      </trkpt>
      <trkpt lat="43.24632" lon="6.00469">
        <ele>165.96</ele>
        <time>2017-05-04T07:35:53Z</time>
      </trkpt>
      <trkpt lat="43.24635" lon="6.00478">
        <ele>168.37</ele>
        <time>2017-05-04T07:36:07Z</time>
      </trkpt>
      <trkpt lat="43.2464" lon="6.00479">
        <ele>170.77</ele>
        <time>2017-05-04T07:36:20Z</time>
      </trkpt>
      <trkpt lat="43.24643" lon="6.00485">
        <ele>172.69</ele>
        <time>2017-05-04T07:36:30Z</time>
      </trkpt>
      <trkpt lat="43.24648" lon="6.00485">
        <ele>174.62</ele>
        <time>2017-05-04T07:36:41Z</time>
      </trkpt>
      <trkpt lat="43.24656" lon="6.00486">
        <ele>177.02</ele>
        <time>2017-05-04T07:36:56Z</time>
      </trkpt>
      <trkpt lat="43.24658" lon="6.005">
        <ele>178.94</ele>
        <time>2017-05-04T07:37:10Z</time>
      </trkpt>
      <trkpt lat="43.24661" lon="6.00507">
        <ele>180.38</ele>
        <time>2017-05-04T07:37:21Z</time>
      </trkpt>
      <trkpt lat="43.24666" lon="6.00513">
        <ele>181.83</ele>
        <time>2017-05-04T07:37:32Z</time>
      </trkpt>
      <trkpt lat="43.2467" lon="6.00508">
        <ele>182.79</ele>
        <time>2017-05-04T07:37:45Z</time>
      </trkpt>
      <trkpt lat="43.24675" lon="6.00503">
        <ele>186.15</ele>
        <time>2017-05-04T07:37:56Z</time>
      </trkpt>
      <trkpt lat="43.24682" lon="6.00508">
        <ele>188.08</ele>
        <time>2017-05-04T07:38:04Z</time>
      </trkpt>
      <trkpt lat="43.24689" lon="6.00508">
        <ele>189.04</ele>
        <time>2017-05-04T07:38:08Z</time>
      </trkpt>
      <trkpt lat="43.24695" lon="6.00512">
        <ele>190.48</ele>
        <time>2017-05-04T07:38:21Z</time>
      </trkpt>
      <trkpt lat="43.24696" lon="6.00513">
        <ele>190.48</ele>
        <time>2017-05-04T07:38:38Z</time>
      </trkpt>
      <trkpt lat="43.24697" lon="6.00512">
        <ele>190.48</ele>
        <time>2017-05-04T07:38:57Z</time>
      </trkpt>
      <trkpt lat="43.24698" lon="6.00512">
        <ele>190.96</ele>
        <time>2017-05-04T07:39:18Z</time>
      </trkpt>
      <trkpt lat="43.24699" lon="6.00513">
        <ele>191.44</ele>
        <time>2017-05-04T07:39:37Z</time>
      </trkpt>
      <trkpt lat="43.24702" lon="6.00513">
        <ele>191.92</ele>
        <time>2017-05-04T07:39:56Z</time>
      </trkpt>
      <trkpt lat="43.2471" lon="6.00514">
        <ele>192.88</ele>
        <time>2017-05-04T07:40:08Z</time>
      </trkpt>
      <trkpt lat="43.2472" lon="6.00516">
        <ele>193.84</ele>
        <time>2017-05-04T07:40:21Z</time>
      </trkpt>
      <trkpt lat="43.24724" lon="6.00519">
        <ele>194.8</ele>
        <time>2017-05-04T07:40:32Z</time>
      </trkpt>
      <trkpt lat="43.24729" lon="6.00519">
        <ele>196.73</ele>
        <time>2017-05-04T07:40:45Z</time>
      </trkpt>
      <trkpt lat="43.24734" lon="6.00512">
        <ele>199.13</ele>
        <time>2017-05-04T07:41:00Z</time>
      </trkpt>
      <trkpt lat="43.24744" lon="6.00503">
        <ele>201.05</ele>
        <time>2017-05-04T07:41:14Z</time>
      </trkpt>
      <trkpt lat="43.24748" lon="6.00503">
        <ele>202.01</ele>
        <time>2017-05-04T07:41:20Z</time>
      </trkpt>
      <trkpt lat="43.24752" lon="6.00502">
        <ele>202.49</ele>
        <time>2017-05-04T07:41:24Z</time>
      </trkpt>
      <trkpt lat="43.2476" lon="6.00501">
        <ele>203.46</ele>
        <time>2017-05-04T07:41:37Z</time>
      </trkpt>
      <trkpt lat="43.24768" lon="6.00502">
        <ele>205.38</ele>
        <time>2017-05-04T07:41:51Z</time>
      </trkpt>
      <trkpt lat="43.24777" lon="6.00502">
        <ele>207.78</ele>
        <time>2017-05-04T07:42:04Z</time>
      </trkpt>
      <trkpt lat="43.24785" lon="6.00502">
        <ele>210.19</ele>
        <time>2017-05-04T07:42:14Z</time>
      </trkpt>
      <trkpt lat="43.24793" lon="6.00507">
        <ele>213.07</ele>
        <time>2017-05-04T07:42:30Z</time>
      </trkpt>
      <trkpt lat="43.24794" lon="6.00508">
        <ele>214.03</ele>
        <time>2017-05-04T07:42:33Z</time>
      </trkpt>
      <trkpt lat="43.248" lon="6.00513">
        <ele>215.95</ele>
        <time>2017-05-04T07:42:45Z</time>
      </trkpt>
      <trkpt lat="43.24805" lon="6.00514">
        <ele>217.88</ele>
        <time>2017-05-04T07:42:58Z</time>
      </trkpt>
      <trkpt lat="43.24805" lon="6.00514">
        <ele>217.88</ele>
        <time>2017-05-04T07:43:15Z</time>
      </trkpt>
      <trkpt lat="43.24806" lon="6.00515">
        <ele>218.36</ele>
        <time>2017-05-04T07:43:29Z</time>
      </trkpt>
      <trkpt lat="43.24806" lon="6.00515">
        <ele>218.36</ele>
        <time>2017-05-04T07:43:47Z</time>
      </trkpt>
      <trkpt lat="43.24807" lon="6.00515">
        <ele>218.84</ele>
        <time>2017-05-04T07:44:14Z</time>
      </trkpt>
      <trkpt lat="43.24808" lon="6.00525">
        <ele>220.28</ele>
        <time>2017-05-04T07:44:31Z</time>
      </trkpt>
      <trkpt lat="43.24807" lon="6.00538">
        <ele>222.68</ele>
        <time>2017-05-04T07:44:45Z</time>
      </trkpt>
      <trkpt lat="43.24808" lon="6.00548">
        <ele>224.12</ele>
        <time>2017-05-04T07:44:57Z</time>
      </trkpt>
      <trkpt lat="43.24809" lon="6.00559">
        <ele>225.57</ele>
        <time>2017-05-04T07:45:09Z</time>
      </trkpt>
      <trkpt lat="43.24816" lon="6.00566">
        <ele>227.97</ele>
        <time>2017-05-04T07:45:26Z</time>
      </trkpt>
      <trkpt lat="43.24819" lon="6.00581">
        <ele>230.85</ele>
        <time>2017-05-04T07:45:42Z</time>
      </trkpt>
      <trkpt lat="43.24823" lon="6.00591">
        <ele>232.3</ele>
        <time>2017-05-04T07:45:55Z</time>
      </trkpt>
      <trkpt lat="43.2483" lon="6.006">
        <ele>233.74</ele>
        <time>2017-05-04T07:46:06Z</time>
      </trkpt>
      <trkpt lat="43.24835" lon="6.0061">
        <ele>235.66</ele>
        <time>2017-05-04T07:46:18Z</time>
      </trkpt>
      <trkpt lat="43.24836" lon="6.00612">
        <ele>236.14</ele>
        <time>2017-05-04T07:46:20Z</time>
      </trkpt>
      <trkpt lat="43.2484" lon="6.00625">
        <ele>238.06</ele>
        <time>2017-05-04T07:46:33Z</time>
      </trkpt>
      <trkpt lat="43.24844" lon="6.00636">
        <ele>239.99</ele>
        <time>2017-05-04T07:46:47Z</time>
      </trkpt>
      <trkpt lat="43.24847" lon="6.00642">
        <ele>241.43</ele>
        <time>2017-05-04T07:46:53Z</time>
      </trkpt>
      <trkpt lat="43.2485" lon="6.00655">
        <ele>244.31</ele>
        <time>2017-05-04T07:47:08Z</time>
      </trkpt>
      <trkpt lat="43.24841" lon="6.00659">
        <ele>245.75</ele>
        <time>2017-05-04T07:47:24Z</time>
      </trkpt>
      <trkpt lat="43.24842" lon="6.00674">
        <ele>246.72</ele>
        <time>2017-05-04T07:47:37Z</time>
      </trkpt>
      <trkpt lat="43.24851" lon="6.00683">
        <ele>247.68</ele>
        <time>2017-05-04T07:47:51Z</time>
      </trkpt>
      <trkpt lat="43.24856" lon="6.0069">
        <ele>249.12</ele>
        <time>2017-05-04T07:48:03Z</time>
      </trkpt>
      <trkpt lat="43.24865" lon="6.00698">
        <ele>250.08</ele>
        <time>2017-05-04T07:48:15Z</time>
      </trkpt>
      <trkpt lat="43.24874" lon="6.007">
        <ele>252</ele>
        <time>2017-05-04T07:48:27Z</time>
      </trkpt>
      <trkpt lat="43.24881" lon="6.00702">
        <ele>253.44</ele>
        <time>2017-05-04T07:48:38Z</time>
      </trkpt>
      <trkpt lat="43.24889" lon="6.00702">
        <ele>254.89</ele>
        <time>2017-05-04T07:48:49Z</time>
      </trkpt>
      <trkpt lat="43.24896" lon="6.00707">
        <ele>256.81</ele>
        <time>2017-05-04T07:49:02Z</time>
      </trkpt>
      <trkpt lat="43.24903" lon="6.00711">
        <ele>258.25</ele>
        <time>2017-05-04T07:49:13Z</time>
      </trkpt>
      <trkpt lat="43.24912" lon="6.00718">
        <ele>260.65</ele>
        <time>2017-05-04T07:49:26Z</time>
      </trkpt>
      <trkpt lat="43.24919" lon="6.00726">
        <ele>261.62</ele>
        <time>2017-05-04T07:49:37Z</time>
      </trkpt>
      <trkpt lat="43.24926" lon="6.00735">
        <ele>262.58</ele>
        <time>2017-05-04T07:49:49Z</time>
      </trkpt>
      <trkpt lat="43.24929" lon="6.00737">
        <ele>262.58</ele>
        <time>2017-05-04T07:50:01Z</time>
      </trkpt>
      <trkpt lat="43.24929" lon="6.00737">
        <ele>261.62</ele>
        <time>2017-05-04T07:50:16Z</time>
      </trkpt>
      <trkpt lat="43.2493" lon="6.00737">
        <ele>261.62</ele>
        <time>2017-05-04T07:50:39Z</time>
      </trkpt>
      <trkpt lat="43.2493" lon="6.00738">
        <ele>263.54</ele>
        <time>2017-05-04T07:50:58Z</time>
      </trkpt>
      <trkpt lat="43.24929" lon="6.00739">
        <ele>263.54</ele>
        <time>2017-05-04T07:51:17Z</time>
      </trkpt>
      <trkpt lat="43.24933" lon="6.00749">
        <ele>263.54</ele>
        <time>2017-05-04T07:51:32Z</time>
      </trkpt>
      <trkpt lat="43.24936" lon="6.00761">
        <ele>263.54</ele>
        <time>2017-05-04T07:51:46Z</time>
      </trkpt>
      <trkpt lat="43.2494" lon="6.00773">
        <ele>264.02</ele>
        <time>2017-05-04T07:52:01Z</time>
      </trkpt>
      <trkpt lat="43.24947" lon="6.00786">
        <ele>264.5</ele>
        <time>2017-05-04T07:52:16Z</time>
      </trkpt>
      <trkpt lat="43.24949" lon="6.00792">
        <ele>264.98</ele>
        <time>2017-05-04T07:52:24Z</time>
      </trkpt>
      <trkpt lat="43.24955" lon="6.008">
        <ele>266.42</ele>
        <time>2017-05-04T07:52:35Z</time>
      </trkpt>
      <trkpt lat="43.24955" lon="6.008">
        <ele>266.9</ele>
        <time>2017-05-04T07:52:36Z</time>
      </trkpt>
      <trkpt lat="43.24961" lon="6.00807">
        <ele>267.86</ele>
        <time>2017-05-04T07:52:45Z</time>
      </trkpt>
      <trkpt lat="43.24965" lon="6.00815">
        <ele>268.83</ele>
        <time>2017-05-04T07:52:59Z</time>
      </trkpt>
      <trkpt lat="43.24967" lon="6.00816">
        <ele>268.83</ele>
        <time>2017-05-04T07:53:06Z</time>
      </trkpt>
      <trkpt lat="43.24975" lon="6.00829">
        <ele>269.79</ele>
        <time>2017-05-04T07:53:19Z</time>
      </trkpt>
      <trkpt lat="43.2498" lon="6.00842">
        <ele>270.27</ele>
        <time>2017-05-04T07:53:34Z</time>
      </trkpt>
      <trkpt lat="43.24986" lon="6.00855">
        <ele>271.23</ele>
        <time>2017-05-04T07:53:49Z</time>
      </trkpt>
      <trkpt lat="43.24993" lon="6.00863">
        <ele>272.67</ele>
        <time>2017-05-04T07:54:00Z</time>
      </trkpt>
      <trkpt lat="43.24995" lon="6.00878">
        <ele>273.63</ele>
        <time>2017-05-04T07:54:12Z</time>
      </trkpt>
      <trkpt lat="43.25001" lon="6.00891">
        <ele>275.07</ele>
        <time>2017-05-04T07:54:25Z</time>
      </trkpt>
      <trkpt lat="43.25005" lon="6.00897">
        <ele>275.56</ele>
        <time>2017-05-04T07:54:32Z</time>
      </trkpt>
      <trkpt lat="43.25006" lon="6.00903">
        <ele>275.56</ele>
        <time>2017-05-04T07:54:36Z</time>
      </trkpt>
      <trkpt lat="43.2501" lon="6.00912">
        <ele>275.56</ele>
        <time>2017-05-04T07:54:44Z</time>
      </trkpt>
      <trkpt lat="43.25013" lon="6.00915">
        <ele>276.04</ele>
        <time>2017-05-04T07:54:48Z</time>
      </trkpt>
      <trkpt lat="43.25016" lon="6.0093">
        <ele>276.04</ele>
        <time>2017-05-04T07:55:01Z</time>
      </trkpt>
      <trkpt lat="43.25018" lon="6.00951">
        <ele>276.04</ele>
        <time>2017-05-04T07:55:17Z</time>
      </trkpt>
      <trkpt lat="43.25018" lon="6.00961">
        <ele>276.04</ele>
        <time>2017-05-04T07:55:31Z</time>
      </trkpt>
      <trkpt lat="43.25017" lon="6.00976">
        <ele>276.04</ele>
        <time>2017-05-04T07:55:44Z</time>
      </trkpt>
      <trkpt lat="43.25016" lon="6.00978">
        <ele>276.04</ele>
        <time>2017-05-04T07:55:46Z</time>
      </trkpt>
      <trkpt lat="43.25013" lon="6.00991">
        <ele>276.52</ele>
        <time>2017-05-04T07:55:58Z</time>
      </trkpt>
      <trkpt lat="43.25011" lon="6.01009">
        <ele>277.48</ele>
        <time>2017-05-04T07:56:13Z</time>
      </trkpt>
      <trkpt lat="43.25009" lon="6.01024">
        <ele>278.44</ele>
        <time>2017-05-04T07:56:25Z</time>
      </trkpt>
      <trkpt lat="43.25005" lon="6.01035">
        <ele>280.84</ele>
        <time>2017-05-04T07:56:40Z</time>
      </trkpt>
      <trkpt lat="43.25002" lon="6.01045">
        <ele>282.28</ele>
        <time>2017-05-04T07:56:50Z</time>
      </trkpt>
      <trkpt lat="43.25" lon="6.01052">
        <ele>283.73</ele>
        <time>2017-05-04T07:56:59Z</time>
      </trkpt>
      <trkpt lat="43.24998" lon="6.01064">
        <ele>285.65</ele>
        <time>2017-05-04T07:57:12Z</time>
      </trkpt>
      <trkpt lat="43.24998" lon="6.01066">
        <ele>285.65</ele>
        <time>2017-05-04T07:57:13Z</time>
      </trkpt>
      <trkpt lat="43.24997" lon="6.01076">
        <ele>288.05</ele>
        <time>2017-05-04T07:57:28Z</time>
      </trkpt>
      <trkpt lat="43.24997" lon="6.01075">
        <ele>288.53</ele>
        <time>2017-05-04T07:57:46Z</time>
      </trkpt>
      <trkpt lat="43.24999" lon="6.01075">
        <ele>288.53</ele>
        <time>2017-05-04T07:58:03Z</time>
      </trkpt>
      <trkpt lat="43.24998" lon="6.01076">
        <ele>289.01</ele>
        <time>2017-05-04T07:58:27Z</time>
      </trkpt>
      <trkpt lat="43.24998" lon="6.01075">
        <ele>289.01</ele>
        <time>2017-05-04T07:58:44Z</time>
      </trkpt>
      <trkpt lat="43.24998" lon="6.01078">
        <ele>289.49</ele>
        <time>2017-05-04T07:59:01Z</time>
      </trkpt>
      <trkpt lat="43.24997" lon="6.01089">
        <ele>290.94</ele>
        <time>2017-05-04T07:59:14Z</time>
      </trkpt>
      <trkpt lat="43.24997" lon="6.01104">
        <ele>292.38</ele>
        <time>2017-05-04T07:59:30Z</time>
      </trkpt>
      <trkpt lat="43.24996" lon="6.01118">
        <ele>293.82</ele>
        <time>2017-05-04T07:59:44Z</time>
      </trkpt>
      <trkpt lat="43.25002" lon="6.01132">
        <ele>295.26</ele>
        <time>2017-05-04T08:00:02Z</time>
      </trkpt>
      <trkpt lat="43.25009" lon="6.01141">
        <ele>296.22</ele>
        <time>2017-05-04T08:00:15Z</time>
      </trkpt>
      <trkpt lat="43.25009" lon="6.01142">
        <ele>296.7</ele>
        <time>2017-05-04T08:00:16Z</time>
      </trkpt>
      <trkpt lat="43.25015" lon="6.01151">
        <ele>297.67</ele>
        <time>2017-05-04T08:00:28Z</time>
      </trkpt>
      <trkpt lat="43.2502" lon="6.01158">
        <ele>299.59</ele>
        <time>2017-05-04T08:00:39Z</time>
      </trkpt>
      <trkpt lat="43.25023" lon="6.0117">
        <ele>301.03</ele>
        <time>2017-05-04T08:00:50Z</time>
      </trkpt>
      <trkpt lat="43.25028" lon="6.01173">
        <ele>301.99</ele>
        <time>2017-05-04T08:01:03Z</time>
      </trkpt>
      <trkpt lat="43.25032" lon="6.01179">
        <ele>303.43</ele>
        <time>2017-05-04T08:01:19Z</time>
      </trkpt>
      <trkpt lat="43.2504" lon="6.01187">
        <ele>304.88</ele>
        <time>2017-05-04T08:01:32Z</time>
      </trkpt>
      <trkpt lat="43.25047" lon="6.01192">
        <ele>306.32</ele>
        <time>2017-05-04T08:01:46Z</time>
      </trkpt>
      <trkpt lat="43.25057" lon="6.01196">
        <ele>307.76</ele>
        <time>2017-05-04T08:01:59Z</time>
      </trkpt>
      <trkpt lat="43.25062" lon="6.01205">
        <ele>308.24</ele>
        <time>2017-05-04T08:02:09Z</time>
      </trkpt>
      <trkpt lat="43.25069" lon="6.01218">
        <ele>309.68</ele>
        <time>2017-05-04T08:02:24Z</time>
      </trkpt>
      <trkpt lat="43.25074" lon="6.01224">
        <ele>309.2</ele>
        <time>2017-05-04T08:02:36Z</time>
      </trkpt>
      <trkpt lat="43.25077" lon="6.01226">
        <ele>309.68</ele>
        <time>2017-05-04T08:02:44Z</time>
      </trkpt>
      <trkpt lat="43.25079" lon="6.01228">
        <ele>309.68</ele>
        <time>2017-05-04T08:02:46Z</time>
      </trkpt>
      <trkpt lat="43.25087" lon="6.01234">
        <ele>310.16</ele>
        <time>2017-05-04T08:02:59Z</time>
      </trkpt>
      <trkpt lat="43.25094" lon="6.0124">
        <ele>310.64</ele>
        <time>2017-05-04T08:03:09Z</time>
      </trkpt>
      <trkpt lat="43.25096" lon="6.01243">
        <ele>310.64</ele>
        <time>2017-05-04T08:03:12Z</time>
      </trkpt>
      <trkpt lat="43.25103" lon="6.01249">
        <ele>311.6</ele>
        <time>2017-05-04T08:03:26Z</time>
      </trkpt>
      <trkpt lat="43.25103" lon="6.0125">
        <ele>311.6</ele>
        <time>2017-05-04T08:03:27Z</time>
      </trkpt>
      <trkpt lat="43.25114" lon="6.01255">
        <ele>313.05</ele>
        <time>2017-05-04T08:03:42Z</time>
      </trkpt>
      <trkpt lat="43.25122" lon="6.01263">
        <ele>314.49</ele>
        <time>2017-05-04T08:03:55Z</time>
      </trkpt>
      <trkpt lat="43.25128" lon="6.01264">
        <ele>314.97</ele>
        <time>2017-05-04T08:04:06Z</time>
      </trkpt>
      <trkpt lat="43.25131" lon="6.01262">
        <ele>315.45</ele>
        <time>2017-05-04T08:04:26Z</time>
      </trkpt>
      <trkpt lat="43.25132" lon="6.01262">
        <ele>315.45</ele>
        <time>2017-05-04T08:04:47Z</time>
      </trkpt>
      <trkpt lat="43.25132" lon="6.01261">
        <ele>314.49</ele>
        <time>2017-05-04T08:05:05Z</time>
      </trkpt>
      <trkpt lat="43.25134" lon="6.01261">
        <ele>314.49</ele>
        <time>2017-05-04T08:05:38Z</time>
      </trkpt>
      <trkpt lat="43.25135" lon="6.0126">
        <ele>315.93</ele>
        <time>2017-05-04T08:05:57Z</time>
      </trkpt>
      <trkpt lat="43.25136" lon="6.01259">
        <ele>315.93</ele>
        <time>2017-05-04T08:06:20Z</time>
      </trkpt>
      <trkpt lat="43.25136" lon="6.01259">
        <ele>316.41</ele>
        <time>2017-05-04T08:06:39Z</time>
      </trkpt>
      <trkpt lat="43.25137" lon="6.0126">
        <ele>317.37</ele>
        <time>2017-05-04T08:07:05Z</time>
      </trkpt>
      <trkpt lat="43.25142" lon="6.01266">
        <ele>318.81</ele>
        <time>2017-05-04T08:07:17Z</time>
      </trkpt>
      <trkpt lat="43.25149" lon="6.01275">
        <ele>320.26</ele>
        <time>2017-05-04T08:07:28Z</time>
      </trkpt>
      <trkpt lat="43.25154" lon="6.0129">
        <ele>322.18</ele>
        <time>2017-05-04T08:07:42Z</time>
      </trkpt>
      <trkpt lat="43.2516" lon="6.01302">
        <ele>322.66</ele>
        <time>2017-05-04T08:07:53Z</time>
      </trkpt>
      <trkpt lat="43.25171" lon="6.01311">
        <ele>323.62</ele>
        <time>2017-05-04T08:08:07Z</time>
      </trkpt>
      <trkpt lat="43.25183" lon="6.01318">
        <ele>325.06</ele>
        <time>2017-05-04T08:08:20Z</time>
      </trkpt>
      <trkpt lat="43.25193" lon="6.01321">
        <ele>326.99</ele>
        <time>2017-05-04T08:08:33Z</time>
      </trkpt>
      <trkpt lat="43.25205" lon="6.01321">
        <ele>329.39</ele>
        <time>2017-05-04T08:08:48Z</time>
      </trkpt>
      <trkpt lat="43.25213" lon="6.01323">
        <ele>330.35</ele>
        <time>2017-05-04T08:08:58Z</time>
      </trkpt>
      <trkpt lat="43.2522" lon="6.01327">
        <ele>332.75</ele>
        <time>2017-05-04T08:09:11Z</time>
      </trkpt>
      <trkpt lat="43.25225" lon="6.01327">
        <ele>334.68</ele>
        <time>2017-05-04T08:09:23Z</time>
      </trkpt>
      <trkpt lat="43.25235" lon="6.01326">
        <ele>336.6</ele>
        <time>2017-05-04T08:09:37Z</time>
      </trkpt>
      <trkpt lat="43.25245" lon="6.01326">
        <ele>339.48</ele>
        <time>2017-05-04T08:09:53Z</time>
      </trkpt>
      <trkpt lat="43.25253" lon="6.01325">
        <ele>341.41</ele>
        <time>2017-05-04T08:10:07Z</time>
      </trkpt>
      <trkpt lat="43.2526" lon="6.01326">
        <ele>343.33</ele>
        <time>2017-05-04T08:10:20Z</time>
      </trkpt>
      <trkpt lat="43.25267" lon="6.01322">
        <ele>345.25</ele>
        <time>2017-05-04T08:10:34Z</time>
      </trkpt>
      <trkpt lat="43.2528" lon="6.01311">
        <ele>347.65</ele>
        <time>2017-05-04T08:10:49Z</time>
      </trkpt>
      <trkpt lat="43.25288" lon="6.01305">
        <ele>349.58</ele>
        <time>2017-05-04T08:11:01Z</time>
      </trkpt>
      <trkpt lat="43.25294" lon="6.01293">
        <ele>351.98</ele>
        <time>2017-05-04T08:11:15Z</time>
      </trkpt>
      <trkpt lat="43.25297" lon="6.01289">
        <ele>353.9</ele>
        <time>2017-05-04T08:11:28Z</time>
      </trkpt>
      <trkpt lat="43.25304" lon="6.01285">
        <ele>356.31</ele>
        <time>2017-05-04T08:11:44Z</time>
      </trkpt>
      <trkpt lat="43.25307" lon="6.01283">
        <ele>358.71</ele>
        <time>2017-05-04T08:11:59Z</time>
      </trkpt>
      <trkpt lat="43.25318" lon="6.01281">
        <ele>361.11</ele>
        <time>2017-05-04T08:12:14Z</time>
      </trkpt>
      <trkpt lat="43.25324" lon="6.01279">
        <ele>362.55</ele>
        <time>2017-05-04T08:12:27Z</time>
      </trkpt>
      <trkpt lat="43.25327" lon="6.01279">
        <ele>364.96</ele>
        <time>2017-05-04T08:12:42Z</time>
      </trkpt>
      <trkpt lat="43.25336" lon="6.01279">
        <ele>366.88</ele>
        <time>2017-05-04T08:12:53Z</time>
      </trkpt>
      <trkpt lat="43.25346" lon="6.01283">
        <ele>368.8</ele>
        <time>2017-05-04T08:13:06Z</time>
      </trkpt>
      <trkpt lat="43.25352" lon="6.01277">
        <ele>372.17</ele>
        <time>2017-05-04T08:13:25Z</time>
      </trkpt>
      <trkpt lat="43.25354" lon="6.01275">
        <ele>375.05</ele>
        <time>2017-05-04T08:13:39Z</time>
      </trkpt>
      <trkpt lat="43.25361" lon="6.01273">
        <ele>377.94</ele>
        <time>2017-05-04T08:14:00Z</time>
      </trkpt>
      <trkpt lat="43.25369" lon="6.01275">
        <ele>379.86</ele>
        <time>2017-05-04T08:14:11Z</time>
      </trkpt>
      <trkpt lat="43.25388" lon="6.01275">
        <ele>381.3</ele>
        <time>2017-05-04T08:14:31Z</time>
      </trkpt>
      <trkpt lat="43.25392" lon="6.01283">
        <ele>382.26</ele>
        <time>2017-05-04T08:14:43Z</time>
      </trkpt>
      <trkpt lat="43.25395" lon="6.01292">
        <ele>385.63</ele>
        <time>2017-05-04T08:14:58Z</time>
      </trkpt>
      <trkpt lat="43.25396" lon="6.01296">
        <ele>387.07</ele>
        <time>2017-05-04T08:15:13Z</time>
      </trkpt>
      <trkpt lat="43.25399" lon="6.01293">
        <ele>389.47</ele>
        <time>2017-05-04T08:15:26Z</time>
      </trkpt>
      <trkpt lat="43.25405" lon="6.0129">
        <ele>391.87</ele>
        <time>2017-05-04T08:15:40Z</time>
      </trkpt>
      <trkpt lat="43.2543" lon="6.01287">
        <ele>395.24</ele>
        <time>2017-05-04T08:15:54Z</time>
      </trkpt>
      <trkpt lat="43.25438" lon="6.01293">
        <ele>397.64</ele>
        <time>2017-05-04T08:16:10Z</time>
      </trkpt>
      <trkpt lat="43.25445" lon="6.01302">
        <ele>400.53</ele>
        <time>2017-05-04T08:16:24Z</time>
      </trkpt>
      <trkpt lat="43.25449" lon="6.0131">
        <ele>402.93</ele>
        <time>2017-05-04T08:16:36Z</time>
      </trkpt>
      <trkpt lat="43.25456" lon="6.01322">
        <ele>405.33</ele>
        <time>2017-05-04T08:16:49Z</time>
      </trkpt>
      <trkpt lat="43.25461" lon="6.01333">
        <ele>407.74</ele>
        <time>2017-05-04T08:17:03Z</time>
      </trkpt>
      <trkpt lat="43.25466" lon="6.01343">
        <ele>410.62</ele>
        <time>2017-05-04T08:17:18Z</time>
      </trkpt>
      <trkpt lat="43.25471" lon="6.01354">
        <ele>413.5</ele>
        <time>2017-05-04T08:17:32Z</time>
      </trkpt>
      <trkpt lat="43.25476" lon="6.01364">
        <ele>415.91</ele>
        <time>2017-05-04T08:17:45Z</time>
      </trkpt>
      <trkpt lat="43.25479" lon="6.0137">
        <ele>416.87</ele>
        <time>2017-05-04T08:17:59Z</time>
      </trkpt>
      <trkpt lat="43.25483" lon="6.01377">
        <ele>418.79</ele>
        <time>2017-05-04T08:18:18Z</time>
      </trkpt>
      <trkpt lat="43.25483" lon="6.01381">
        <ele>419.75</ele>
        <time>2017-05-04T08:18:32Z</time>
      </trkpt>
      <trkpt lat="43.25484" lon="6.01382">
        <ele>418.31</ele>
        <time>2017-05-04T08:18:44Z</time>
      </trkpt>
      <trkpt lat="43.25483" lon="6.01385">
        <ele>418.79</ele>
        <time>2017-05-04T08:19:13Z</time>
      </trkpt>
      <trkpt lat="43.25485" lon="6.01393">
        <ele>419.75</ele>
        <time>2017-05-04T08:19:27Z</time>
      </trkpt>
      <trkpt lat="43.25486" lon="6.01392">
        <ele>419.75</ele>
        <time>2017-05-04T08:19:50Z</time>
      </trkpt>
      <trkpt lat="43.25485" lon="6.01391">
        <ele>419.75</ele>
        <time>2017-05-04T08:20:16Z</time>
      </trkpt>
      <trkpt lat="43.25485" lon="6.01392">
        <ele>420.71</ele>
        <time>2017-05-04T08:20:46Z</time>
      </trkpt>
      <trkpt lat="43.25486" lon="6.01394">
        <ele>421.68</ele>
        <time>2017-05-04T08:20:53Z</time>
      </trkpt>
      <trkpt lat="43.25489" lon="6.01397">
        <ele>423.12</ele>
        <time>2017-05-04T08:21:09Z</time>
      </trkpt>
      <trkpt lat="43.25488" lon="6.01399">
        <ele>423.12</ele>
        <time>2017-05-04T08:21:32Z</time>
      </trkpt>
      <trkpt lat="43.25488" lon="6.01396">
        <ele>423.6</ele>
        <time>2017-05-04T08:21:48Z</time>
      </trkpt>
      <trkpt lat="43.25487" lon="6.01396">
        <ele>423.6</ele>
        <time>2017-05-04T08:22:17Z</time>
      </trkpt>
      <trkpt lat="43.25487" lon="6.01395">
        <ele>423.12</ele>
        <time>2017-05-04T08:22:44Z</time>
      </trkpt>
      <trkpt lat="43.25487" lon="6.01395">
        <ele>423.12</ele>
        <time>2017-05-04T08:23:12Z</time>
      </trkpt>
      <trkpt lat="43.25487" lon="6.01395">
        <ele>423.6</ele>
        <time>2017-05-04T08:23:40Z</time>
      </trkpt>
      <trkpt lat="43.25487" lon="6.01395">
        <ele>424.56</ele>
        <time>2017-05-04T08:24:00Z</time>
      </trkpt>
      <trkpt lat="43.25487" lon="6.01395">
        <ele>424.56</ele>
        <time>2017-05-04T08:24:16Z</time>
      </trkpt>
      <trkpt lat="43.25487" lon="6.01395">
        <ele>424.56</ele>
        <time>2017-05-04T08:24:42Z</time>
      </trkpt>
      <trkpt lat="43.25486" lon="6.01396">
        <ele>425.04</ele>
        <time>2017-05-04T08:25:07Z</time>
      </trkpt>
      <trkpt lat="43.25485" lon="6.01396">
        <ele>425.04</ele>
        <time>2017-05-04T08:25:32Z</time>
      </trkpt>
      <trkpt lat="43.25485" lon="6.01396">
        <ele>425.04</ele>
        <time>2017-05-04T08:25:48Z</time>
      </trkpt>
      <trkpt lat="43.25486" lon="6.01396">
        <ele>425.52</ele>
        <time>2017-05-04T08:26:07Z</time>
      </trkpt>
      <trkpt lat="43.25487" lon="6.01397">
        <ele>425.52</ele>
        <time>2017-05-04T08:26:31Z</time>
      </trkpt>
      <trkpt lat="43.25486" lon="6.01397">
        <ele>426</ele>
        <time>2017-05-04T08:27:01Z</time>
      </trkpt>
      <trkpt lat="43.25486" lon="6.01398">
        <ele>426</ele>
        <time>2017-05-04T08:27:29Z</time>
      </trkpt>
      <trkpt lat="43.25487" lon="6.01398">
        <ele>426.48</ele>
        <time>2017-05-04T08:27:54Z</time>
      </trkpt>
      <trkpt lat="43.25487" lon="6.01399">
        <ele>426.48</ele>
        <time>2017-05-04T08:28:12Z</time>
      </trkpt>
      <trkpt lat="43.2549" lon="6.01406">
        <ele>427.44</ele>
        <time>2017-05-04T08:28:31Z</time>
      </trkpt>
      <trkpt lat="43.25498" lon="6.01415">
        <ele>429.85</ele>
        <time>2017-05-04T08:28:45Z</time>
      </trkpt>
      <trkpt lat="43.25506" lon="6.01427">
        <ele>430.81</ele>
        <time>2017-05-04T08:29:00Z</time>
      </trkpt>
      <trkpt lat="43.25508" lon="6.0144">
        <ele>432.25</ele>
        <time>2017-05-04T08:29:14Z</time>
      </trkpt>
      <trkpt lat="43.25504" lon="6.01457">
        <ele>433.69</ele>
        <time>2017-05-04T08:29:29Z</time>
      </trkpt>
      <trkpt lat="43.25503" lon="6.01474">
        <ele>435.61</ele>
        <time>2017-05-04T08:29:44Z</time>
      </trkpt>
      <trkpt lat="43.25504" lon="6.01488">
        <ele>437.06</ele>
        <time>2017-05-04T08:29:57Z</time>
      </trkpt>
      <trkpt lat="43.25505" lon="6.01499">
        <ele>437.54</ele>
        <time>2017-05-04T08:30:09Z</time>
      </trkpt>
      <trkpt lat="43.25509" lon="6.01517">
        <ele>439.46</ele>
        <time>2017-05-04T08:30:24Z</time>
      </trkpt>
      <trkpt lat="43.25512" lon="6.01535">
        <ele>442.34</ele>
        <time>2017-05-04T08:30:40Z</time>
      </trkpt>
      <trkpt lat="43.25517" lon="6.01549">
        <ele>445.23</ele>
        <time>2017-05-04T08:30:58Z</time>
      </trkpt>
      <trkpt lat="43.25521" lon="6.0156">
        <ele>448.11</ele>
        <time>2017-05-04T08:31:11Z</time>
      </trkpt>
      <trkpt lat="43.25526" lon="6.01574">
        <ele>451</ele>
        <time>2017-05-04T08:31:27Z</time>
      </trkpt>
      <trkpt lat="43.25528" lon="6.01587">
        <ele>453.4</ele>
        <time>2017-05-04T08:31:42Z</time>
      </trkpt>
      <trkpt lat="43.25532" lon="6.016">
        <ele>456.28</ele>
        <time>2017-05-04T08:31:58Z</time>
      </trkpt>
      <trkpt lat="43.25538" lon="6.01616">
        <ele>459.65</ele>
        <time>2017-05-04T08:32:14Z</time>
      </trkpt>
      <trkpt lat="43.25541" lon="6.01633">
        <ele>462.53</ele>
        <time>2017-05-04T08:32:31Z</time>
      </trkpt>
      <trkpt lat="43.25545" lon="6.01645">
        <ele>464.45</ele>
        <time>2017-05-04T08:32:43Z</time>
      </trkpt>
      <trkpt lat="43.2555" lon="6.01656">
        <ele>466.86</ele>
        <time>2017-05-04T08:32:57Z</time>
      </trkpt>
      <trkpt lat="43.25557" lon="6.01666">
        <ele>469.74</ele>
        <time>2017-05-04T08:33:12Z</time>
      </trkpt>
      <trkpt lat="43.25562" lon="6.01672">
        <ele>471.18</ele>
        <time>2017-05-04T08:33:26Z</time>
      </trkpt>
      <trkpt lat="43.25565" lon="6.01673">
        <ele>471.18</ele>
        <time>2017-05-04T08:33:49Z</time>
      </trkpt>
      <trkpt lat="43.25564" lon="6.01673">
        <ele>471.18</ele>
        <time>2017-05-04T08:34:08Z</time>
      </trkpt>
      <trkpt lat="43.25563" lon="6.01673">
        <ele>471.66</ele>
        <time>2017-05-04T08:34:39Z</time>
      </trkpt>
      <trkpt lat="43.25562" lon="6.01673">
        <ele>471.18</ele>
        <time>2017-05-04T08:34:57Z</time>
      </trkpt>
      <trkpt lat="43.25562" lon="6.01673">
        <ele>471.66</ele>
        <time>2017-05-04T08:35:31Z</time>
      </trkpt>
      <trkpt lat="43.25562" lon="6.01673">
        <ele>471.66</ele>
        <time>2017-05-04T08:35:54Z</time>
      </trkpt>
      <trkpt lat="43.25561" lon="6.01672">
        <ele>471.18</ele>
        <time>2017-05-04T08:36:26Z</time>
      </trkpt>
      <trkpt lat="43.25561" lon="6.01672">
        <ele>471.66</ele>
        <time>2017-05-04T08:36:53Z</time>
      </trkpt>
      <trkpt lat="43.25561" lon="6.01671">
        <ele>471.66</ele>
        <time>2017-05-04T08:37:25Z</time>
      </trkpt>
      <trkpt lat="43.25562" lon="6.01671">
        <ele>471.66</ele>
        <time>2017-05-04T08:38:03Z</time>
      </trkpt>
      <trkpt lat="43.25561" lon="6.0167">
        <ele>472.14</ele>
        <time>2017-05-04T08:38:30Z</time>
      </trkpt>
      <trkpt lat="43.25562" lon="6.0167">
        <ele>472.14</ele>
        <time>2017-05-04T08:38:59Z</time>
      </trkpt>
      <trkpt lat="43.25562" lon="6.01669">
        <ele>472.14</ele>
        <time>2017-05-04T08:39:29Z</time>
      </trkpt>
      <trkpt lat="43.25562" lon="6.0167">
        <ele>472.63</ele>
        <time>2017-05-04T08:40:00Z</time>
      </trkpt>
      <trkpt lat="43.25562" lon="6.01671">
        <ele>473.59</ele>
        <time>2017-05-04T08:40:30Z</time>
      </trkpt>
      <trkpt lat="43.25565" lon="6.0168">
        <ele>475.03</ele>
        <time>2017-05-04T08:40:42Z</time>
      </trkpt>
      <trkpt lat="43.25571" lon="6.01692">
        <ele>477.91</ele>
        <time>2017-05-04T08:40:58Z</time>
      </trkpt>
      <trkpt lat="43.25576" lon="6.01703">
        <ele>479.84</ele>
        <time>2017-05-04T08:41:12Z</time>
      </trkpt>
      <trkpt lat="43.25582" lon="6.01713">
        <ele>482.24</ele>
        <time>2017-05-04T08:41:27Z</time>
      </trkpt>
      <trkpt lat="43.25588" lon="6.01723">
        <ele>484.64</ele>
        <time>2017-05-04T08:41:42Z</time>
      </trkpt>
      <trkpt lat="43.25596" lon="6.01729">
        <ele>488.01</ele>
        <time>2017-05-04T08:41:58Z</time>
      </trkpt>
      <trkpt lat="43.25603" lon="6.01737">
        <ele>490.89</ele>
        <time>2017-05-04T08:42:12Z</time>
      </trkpt>
      <trkpt lat="43.25609" lon="6.01744">
        <ele>492.81</ele>
        <time>2017-05-04T08:42:24Z</time>
      </trkpt>
      <trkpt lat="43.25616" lon="6.01751">
        <ele>495.22</ele>
        <time>2017-05-04T08:42:37Z</time>
      </trkpt>
      <trkpt lat="43.25625" lon="6.0176">
        <ele>498.1</ele>
        <time>2017-05-04T08:42:53Z</time>
      </trkpt>
      <trkpt lat="43.25635" lon="6.01767">
        <ele>500.98</ele>
        <time>2017-05-04T08:43:08Z</time>
      </trkpt>
      <trkpt lat="43.25643" lon="6.01769">
        <ele>503.39</ele>
        <time>2017-05-04T08:43:21Z</time>
      </trkpt>
      <trkpt lat="43.25648" lon="6.01772">
        <ele>506.75</ele>
        <time>2017-05-04T08:43:34Z</time>
      </trkpt>
      <trkpt lat="43.25651" lon="6.01766">
        <ele>508.67</ele>
        <time>2017-05-04T08:43:46Z</time>
      </trkpt>
      <trkpt lat="43.25654" lon="6.01766">
        <ele>511.08</ele>
        <time>2017-05-04T08:44:00Z</time>
      </trkpt>
      <trkpt lat="43.25664" lon="6.0177">
        <ele>513.96</ele>
        <time>2017-05-04T08:44:14Z</time>
      </trkpt>
      <trkpt lat="43.25673" lon="6.01776">
        <ele>517.33</ele>
        <time>2017-05-04T08:44:26Z</time>
      </trkpt>
      <trkpt lat="43.25678" lon="6.01786">
        <ele>519.73</ele>
        <time>2017-05-04T08:44:37Z</time>
      </trkpt>
      <trkpt lat="43.25682" lon="6.01797">
        <ele>521.65</ele>
        <time>2017-05-04T08:44:48Z</time>
      </trkpt>
      <trkpt lat="43.25685" lon="6.01798">
        <ele>522.13</ele>
        <time>2017-05-04T08:44:51Z</time>
      </trkpt>
      <trkpt lat="43.25688" lon="6.01798">
        <ele>522.61</ele>
        <time>2017-05-04T08:44:55Z</time>
      </trkpt>
      <trkpt lat="43.25691" lon="6.01799">
        <ele>523.58</ele>
        <time>2017-05-04T08:44:58Z</time>
      </trkpt>
      <trkpt lat="43.25694" lon="6.01797">
        <ele>524.54</ele>
        <time>2017-05-04T08:45:01Z</time>
      </trkpt>
      <trkpt lat="43.25691" lon="6.01794">
        <ele>525.02</ele>
        <time>2017-05-04T08:45:05Z</time>
      </trkpt>
      <trkpt lat="43.2569" lon="6.01783">
        <ele>527.9</ele>
        <time>2017-05-04T08:45:17Z</time>
      </trkpt>
      <trkpt lat="43.25693" lon="6.01783">
        <ele>528.86</ele>
        <time>2017-05-04T08:45:21Z</time>
      </trkpt>
      <trkpt lat="43.25701" lon="6.0179">
        <ele>530.79</ele>
        <time>2017-05-04T08:45:33Z</time>
      </trkpt>
      <trkpt lat="43.25706" lon="6.01797">
        <ele>532.23</ele>
        <time>2017-05-04T08:45:41Z</time>
      </trkpt>
      <trkpt lat="43.25709" lon="6.01795">
        <ele>533.67</ele>
        <time>2017-05-04T08:45:50Z</time>
      </trkpt>
      <trkpt lat="43.25708" lon="6.01788">
        <ele>535.11</ele>
        <time>2017-05-04T08:45:55Z</time>
      </trkpt>
      <trkpt lat="43.25708" lon="6.01778">
        <ele>538.48</ele>
        <time>2017-05-04T08:46:06Z</time>
      </trkpt>
      <trkpt lat="43.25713" lon="6.01779">
        <ele>541.36</ele>
        <time>2017-05-04T08:46:19Z</time>
      </trkpt>
      <trkpt lat="43.25717" lon="6.01782">
        <ele>541.84</ele>
        <time>2017-05-04T08:46:23Z</time>
      </trkpt>
      <trkpt lat="43.25723" lon="6.01785">
        <ele>543.28</ele>
        <time>2017-05-04T08:46:29Z</time>
      </trkpt>
      <trkpt lat="43.25726" lon="6.01784">
        <ele>543.76</ele>
        <time>2017-05-04T08:46:32Z</time>
      </trkpt>
      <trkpt lat="43.25728" lon="6.01786">
        <ele>544.24</ele>
        <time>2017-05-04T08:46:34Z</time>
      </trkpt>
      <trkpt lat="43.25728" lon="6.01792">
        <ele>543.28</ele>
        <time>2017-05-04T08:46:47Z</time>
      </trkpt>
      <trkpt lat="43.25727" lon="6.01793">
        <ele>543.76</ele>
        <time>2017-05-04T08:47:26Z</time>
      </trkpt>
      <trkpt lat="43.25727" lon="6.01792">
        <ele>543.76</ele>
        <time>2017-05-04T08:48:05Z</time>
      </trkpt>
      <trkpt lat="43.25727" lon="6.01792">
        <ele>543.76</ele>
        <time>2017-05-04T08:48:39Z</time>
      </trkpt>
      <trkpt lat="43.25726" lon="6.01792">
        <ele>544.24</ele>
        <time>2017-05-04T08:49:23Z</time>
      </trkpt>
      <trkpt lat="43.25726" lon="6.01791">
        <ele>545.69</ele>
        <time>2017-05-04T08:50:05Z</time>
      </trkpt>
      <trkpt lat="43.25728" lon="6.01797">
        <ele>546.65</ele>
        <time>2017-05-04T08:50:16Z</time>
      </trkpt>
      <trkpt lat="43.25728" lon="6.01803">
        <ele>546.65</ele>
        <time>2017-05-04T08:50:30Z</time>
      </trkpt>
      <trkpt lat="43.25728" lon="6.01804">
        <ele>547.13</ele>
        <time>2017-05-04T08:50:44Z</time>
      </trkpt>
      <trkpt lat="43.25728" lon="6.01804">
        <ele>547.13</ele>
        <time>2017-05-04T08:51:06Z</time>
      </trkpt>
      <trkpt lat="43.25732" lon="6.01805">
        <ele>547.13</ele>
        <time>2017-05-04T08:51:17Z</time>
      </trkpt>
      <trkpt lat="43.25731" lon="6.01809">
        <ele>547.13</ele>
        <time>2017-05-04T08:51:20Z</time>
      </trkpt>
      <trkpt lat="43.25733" lon="6.01811">
        <ele>547.61</ele>
        <time>2017-05-04T08:51:34Z</time>
      </trkpt>
      <trkpt lat="43.25732" lon="6.01812">
        <ele>547.61</ele>
        <time>2017-05-04T08:51:53Z</time>
      </trkpt>
      <trkpt lat="43.25729" lon="6.01811">
        <ele>547.61</ele>
        <time>2017-05-04T08:52:06Z</time>
      </trkpt>
      <trkpt lat="43.25728" lon="6.01804">
        <ele>547.13</ele>
        <time>2017-05-04T08:52:21Z</time>
      </trkpt>
      <trkpt lat="43.25728" lon="6.01803">
        <ele>547.13</ele>
        <time>2017-05-04T08:52:39Z</time>
      </trkpt>
      <trkpt lat="43.25728" lon="6.01804">
        <ele>547.13</ele>
        <time>2017-05-04T08:53:03Z</time>
      </trkpt>
      <trkpt lat="43.25729" lon="6.01804">
        <ele>547.61</ele>
        <time>2017-05-04T08:53:25Z</time>
      </trkpt>
      <trkpt lat="43.25729" lon="6.01804">
        <ele>547.61</ele>
        <time>2017-05-04T08:53:47Z</time>
      </trkpt>
      <trkpt lat="43.25729" lon="6.01804">
        <ele>547.61</ele>
        <time>2017-05-04T08:54:02Z</time>
      </trkpt>
      <trkpt lat="43.25728" lon="6.01804">
        <ele>547.61</ele>
        <time>2017-05-04T08:54:15Z</time>
      </trkpt>
      <trkpt lat="43.25728" lon="6.01806">
        <ele>547.61</ele>
        <time>2017-05-04T08:54:29Z</time>
      </trkpt>
      <trkpt lat="43.25728" lon="6.01804">
        <ele>547.61</ele>
        <time>2017-05-04T08:54:44Z</time>
      </trkpt>
      <trkpt lat="43.25728" lon="6.01804">
        <ele>548.09</ele>
        <time>2017-05-04T08:55:08Z</time>
      </trkpt>
      <trkpt lat="43.25728" lon="6.01806">
        <ele>548.09</ele>
        <time>2017-05-04T08:55:21Z</time>
      </trkpt>
      <trkpt lat="43.25731" lon="6.01811">
        <ele>548.57</ele>
        <time>2017-05-04T08:55:37Z</time>
      </trkpt>
      <trkpt lat="43.25731" lon="6.0181">
        <ele>549.05</ele>
        <time>2017-05-04T08:55:51Z</time>
      </trkpt>
      <trkpt lat="43.25731" lon="6.01813">
        <ele>549.05</ele>
        <time>2017-05-04T08:55:56Z</time>
      </trkpt>
      <trkpt lat="43.25733" lon="6.01822">
        <ele>550.01</ele>
        <time>2017-05-04T08:56:11Z</time>
      </trkpt>
      <trkpt lat="43.25734" lon="6.01832">
        <ele>550.01</ele>
        <time>2017-05-04T08:56:23Z</time>
      </trkpt>
      <trkpt lat="43.25735" lon="6.01836">
        <ele>550.01</ele>
        <time>2017-05-04T08:56:29Z</time>
      </trkpt>
      <trkpt lat="43.25736" lon="6.0185">
        <ele>550.97</ele>
        <time>2017-05-04T08:56:43Z</time>
      </trkpt>
      <trkpt lat="43.25736" lon="6.0185">
        <ele>550.97</ele>
        <time>2017-05-04T08:56:47Z</time>
      </trkpt>
      <trkpt lat="43.25736" lon="6.01853">
        <ele>551.45</ele>
        <time>2017-05-04T08:56:50Z</time>
      </trkpt>
      <trkpt lat="43.25736" lon="6.01857">
        <ele>551.45</ele>
        <time>2017-05-04T08:56:53Z</time>
      </trkpt>
      <trkpt lat="43.25736" lon="6.01863">
        <ele>551.93</ele>
        <time>2017-05-04T08:57:08Z</time>
      </trkpt>
      <trkpt lat="43.25737" lon="6.01864">
        <ele>551.93</ele>
        <time>2017-05-04T08:57:21Z</time>
      </trkpt>
      <trkpt lat="43.2574" lon="6.01877">
        <ele>552.9</ele>
        <time>2017-05-04T08:57:35Z</time>
      </trkpt>
      <trkpt lat="43.2574" lon="6.01878">
        <ele>553.38</ele>
        <time>2017-05-04T08:57:36Z</time>
      </trkpt>
      <trkpt lat="43.25743" lon="6.01896">
        <ele>555.3</ele>
        <time>2017-05-04T08:57:49Z</time>
      </trkpt>
      <trkpt lat="43.25745" lon="6.01898">
        <ele>555.3</ele>
        <time>2017-05-04T08:57:51Z</time>
      </trkpt>
      <trkpt lat="43.25748" lon="6.01905">
        <ele>555.78</ele>
        <time>2017-05-04T08:57:58Z</time>
      </trkpt>
      <trkpt lat="43.25752" lon="6.0191">
        <ele>556.26</ele>
        <time>2017-05-04T08:58:04Z</time>
      </trkpt>
      <trkpt lat="43.25755" lon="6.01919">
        <ele>556.74</ele>
        <time>2017-05-04T08:58:16Z</time>
      </trkpt>
      <trkpt lat="43.25757" lon="6.01925">
        <ele>557.22</ele>
        <time>2017-05-04T08:58:28Z</time>
      </trkpt>
      <trkpt lat="43.25757" lon="6.01928">
        <ele>557.22</ele>
        <time>2017-05-04T08:58:30Z</time>
      </trkpt>
      <trkpt lat="43.2576" lon="6.01937">
        <ele>557.7</ele>
        <time>2017-05-04T08:58:36Z</time>
      </trkpt>
      <trkpt lat="43.25764" lon="6.01955">
        <ele>558.18</ele>
        <time>2017-05-04T08:58:49Z</time>
      </trkpt>
      <trkpt lat="43.25765" lon="6.01967">
        <ele>559.14</ele>
        <time>2017-05-04T08:59:00Z</time>
      </trkpt>
      <trkpt lat="43.25767" lon="6.01982">
        <ele>559.62</ele>
        <time>2017-05-04T08:59:12Z</time>
      </trkpt>
      <trkpt lat="43.25769" lon="6.01996">
        <ele>560.59</ele>
        <time>2017-05-04T08:59:25Z</time>
      </trkpt>
      <trkpt lat="43.2577" lon="6.02001">
        <ele>560.59</ele>
        <time>2017-05-04T08:59:30Z</time>
      </trkpt>
      <trkpt lat="43.25772" lon="6.02015">
        <ele>561.55</ele>
        <time>2017-05-04T08:59:42Z</time>
      </trkpt>
      <trkpt lat="43.25774" lon="6.02024">
        <ele>562.51</ele>
        <time>2017-05-04T08:59:52Z</time>
      </trkpt>
      <trkpt lat="43.25775" lon="6.02028">
        <ele>562.51</ele>
        <time>2017-05-04T08:59:55Z</time>
      </trkpt>
      <trkpt lat="43.25779" lon="6.02044">
        <ele>563.95</ele>
        <time>2017-05-04T09:00:09Z</time>
      </trkpt>
      <trkpt lat="43.25783" lon="6.02057">
        <ele>564.43</ele>
        <time>2017-05-04T09:00:21Z</time>
      </trkpt>
      <trkpt lat="43.25784" lon="6.0206">
        <ele>564.91</ele>
        <time>2017-05-04T09:00:24Z</time>
      </trkpt>
      <trkpt lat="43.2579" lon="6.02072">
        <ele>565.39</ele>
        <time>2017-05-04T09:00:36Z</time>
      </trkpt>
      <trkpt lat="43.25796" lon="6.02087">
        <ele>566.35</ele>
        <time>2017-05-04T09:00:50Z</time>
      </trkpt>
      <trkpt lat="43.25799" lon="6.02093">
        <ele>566.83</ele>
        <time>2017-05-04T09:00:56Z</time>
      </trkpt>
      <trkpt lat="43.25801" lon="6.02096">
        <ele>566.83</ele>
        <time>2017-05-04T09:00:59Z</time>
      </trkpt>
      <trkpt lat="43.25805" lon="6.02107">
        <ele>567.32</ele>
        <time>2017-05-04T09:01:10Z</time>
      </trkpt>
      <trkpt lat="43.25809" lon="6.02118">
        <ele>568.28</ele>
        <time>2017-05-04T09:01:20Z</time>
      </trkpt>
      <trkpt lat="43.25812" lon="6.02126">
        <ele>568.76</ele>
        <time>2017-05-04T09:01:27Z</time>
      </trkpt>
      <trkpt lat="43.25813" lon="6.0213">
        <ele>568.76</ele>
        <time>2017-05-04T09:01:30Z</time>
      </trkpt>
      <trkpt lat="43.25816" lon="6.02148">
        <ele>569.24</ele>
        <time>2017-05-04T09:01:47Z</time>
      </trkpt>
      <trkpt lat="43.25818" lon="6.02161">
        <ele>570.68</ele>
        <time>2017-05-04T09:02:00Z</time>
      </trkpt>
      <trkpt lat="43.25819" lon="6.02171">
        <ele>571.64</ele>
        <time>2017-05-04T09:02:09Z</time>
      </trkpt>
      <trkpt lat="43.25821" lon="6.02183">
        <ele>573.56</ele>
        <time>2017-05-04T09:02:23Z</time>
      </trkpt>
      <trkpt lat="43.25821" lon="6.02191">
        <ele>574.53</ele>
        <time>2017-05-04T09:02:32Z</time>
      </trkpt>
      <trkpt lat="43.25824" lon="6.02205">
        <ele>575.97</ele>
        <time>2017-05-04T09:02:46Z</time>
      </trkpt>
      <trkpt lat="43.25827" lon="6.02217">
        <ele>577.41</ele>
        <time>2017-05-04T09:02:58Z</time>
      </trkpt>
      <trkpt lat="43.25828" lon="6.02218">
        <ele>577.41</ele>
        <time>2017-05-04T09:03:00Z</time>
      </trkpt>
      <trkpt lat="43.25831" lon="6.02233">
        <ele>578.85</ele>
        <time>2017-05-04T09:03:14Z</time>
      </trkpt>
      <trkpt lat="43.25833" lon="6.02246">
        <ele>580.29</ele>
        <time>2017-05-04T09:03:27Z</time>
      </trkpt>
      <trkpt lat="43.25836" lon="6.0226">
        <ele>582.22</ele>
        <time>2017-05-04T09:03:41Z</time>
      </trkpt>
      <trkpt lat="43.25839" lon="6.02269">
        <ele>583.18</ele>
        <time>2017-05-04T09:03:49Z</time>
      </trkpt>
      <trkpt lat="43.2584" lon="6.02277">
        <ele>583.18</ele>
        <time>2017-05-04T09:04:00Z</time>
      </trkpt>
      <trkpt lat="43.25844" lon="6.02282">
        <ele>583.66</ele>
        <time>2017-05-04T09:04:18Z</time>
      </trkpt>
      <trkpt lat="43.25846" lon="6.02286">
        <ele>583.66</ele>
        <time>2017-05-04T09:04:23Z</time>
      </trkpt>
      <trkpt lat="43.25849" lon="6.02291">
        <ele>583.66</ele>
        <time>2017-05-04T09:04:28Z</time>
      </trkpt>
      <trkpt lat="43.25853" lon="6.02304">
        <ele>586.54</ele>
        <time>2017-05-04T09:04:41Z</time>
      </trkpt>
      <trkpt lat="43.25852" lon="6.02311">
        <ele>588.95</ele>
        <time>2017-05-04T09:04:47Z</time>
      </trkpt>
      <trkpt lat="43.25853" lon="6.02324">
        <ele>590.39</ele>
        <time>2017-05-04T09:04:59Z</time>
      </trkpt>
      <trkpt lat="43.25851" lon="6.02325">
        <ele>590.39</ele>
        <time>2017-05-04T09:05:10Z</time>
      </trkpt>
      <trkpt lat="43.25853" lon="6.02324">
        <ele>590.87</ele>
        <time>2017-05-04T09:05:23Z</time>
      </trkpt>
      <trkpt lat="43.25851" lon="6.0232">
        <ele>590.39</ele>
        <time>2017-05-04T09:05:37Z</time>
      </trkpt>
      <trkpt lat="43.25851" lon="6.02326">
        <ele>590.87</ele>
        <time>2017-05-04T09:05:50Z</time>
      </trkpt>
      <trkpt lat="43.2585" lon="6.02326">
        <ele>590.87</ele>
        <time>2017-05-04T09:06:07Z</time>
      </trkpt>
      <trkpt lat="43.2585" lon="6.02326">
        <ele>590.87</ele>
        <time>2017-05-04T09:06:22Z</time>
      </trkpt>
      <trkpt lat="43.2585" lon="6.02325">
        <ele>590.87</ele>
        <time>2017-05-04T09:06:38Z</time>
      </trkpt>
      <trkpt lat="43.2585" lon="6.02326">
        <ele>590.87</ele>
        <time>2017-05-04T09:06:57Z</time>
      </trkpt>
      <trkpt lat="43.2585" lon="6.0233">
        <ele>590.87</ele>
        <time>2017-05-04T09:07:10Z</time>
      </trkpt>
      <trkpt lat="43.25851" lon="6.02325">
        <ele>590.87</ele>
        <time>2017-05-04T09:07:27Z</time>
      </trkpt>
      <trkpt lat="43.25848" lon="6.02324">
        <ele>590.87</ele>
        <time>2017-05-04T09:07:43Z</time>
      </trkpt>
      <trkpt lat="43.25852" lon="6.02328">
        <ele>590.87</ele>
        <time>2017-05-04T09:07:58Z</time>
      </trkpt>
      <trkpt lat="43.25851" lon="6.02329">
        <ele>590.87</ele>
        <time>2017-05-04T09:08:14Z</time>
      </trkpt>
      <trkpt lat="43.25851" lon="6.0233">
        <ele>590.87</ele>
        <time>2017-05-04T09:08:32Z</time>
      </trkpt>
      <trkpt lat="43.25856" lon="6.02334">
        <ele>590.39</ele>
        <time>2017-05-04T09:08:48Z</time>
      </trkpt>
      <trkpt lat="43.25863" lon="6.0234">
        <ele>589.43</ele>
        <time>2017-05-04T09:08:59Z</time>
      </trkpt>
      <trkpt lat="43.25876" lon="6.02343">
        <ele>587.5</ele>
        <time>2017-05-04T09:09:15Z</time>
      </trkpt>
      <trkpt lat="43.25878" lon="6.02345">
        <ele>587.5</ele>
        <time>2017-05-04T09:09:20Z</time>
      </trkpt>
      <trkpt lat="43.2588" lon="6.02351">
        <ele>587.5</ele>
        <time>2017-05-04T09:09:24Z</time>
      </trkpt>
      <trkpt lat="43.25883" lon="6.02353">
        <ele>588.46</ele>
        <time>2017-05-04T09:09:37Z</time>
      </trkpt>
      <trkpt lat="43.25883" lon="6.02353">
        <ele>588.46</ele>
        <time>2017-05-04T09:09:39Z</time>
      </trkpt>
      <trkpt lat="43.25884" lon="6.02358">
        <ele>588.46</ele>
        <time>2017-05-04T09:09:42Z</time>
      </trkpt>
      <trkpt lat="43.25885" lon="6.0236">
        <ele>588.46</ele>
        <time>2017-05-04T09:09:44Z</time>
      </trkpt>
      <trkpt lat="43.25886" lon="6.02363">
        <ele>588.95</ele>
        <time>2017-05-04T09:09:46Z</time>
      </trkpt>
      <trkpt lat="43.25889" lon="6.02373">
        <ele>589.43</ele>
        <time>2017-05-04T09:09:53Z</time>
      </trkpt>
      <trkpt lat="43.25893" lon="6.02382">
        <ele>590.39</ele>
        <time>2017-05-04T09:10:00Z</time>
      </trkpt>
      <trkpt lat="43.25895" lon="6.02384">
        <ele>590.87</ele>
        <time>2017-05-04T09:10:02Z</time>
      </trkpt>
      <trkpt lat="43.259" lon="6.02398">
        <ele>590.87</ele>
        <time>2017-05-04T09:10:13Z</time>
      </trkpt>
      <trkpt lat="43.25902" lon="6.02403">
        <ele>591.83</ele>
        <time>2017-05-04T09:10:17Z</time>
      </trkpt>
      <trkpt lat="43.25904" lon="6.02404">
        <ele>592.31</ele>
        <time>2017-05-04T09:10:25Z</time>
      </trkpt>
      <trkpt lat="43.25905" lon="6.02409">
        <ele>591.83</ele>
        <time>2017-05-04T09:10:28Z</time>
      </trkpt>
      <trkpt lat="43.25906" lon="6.02415">
        <ele>593.27</ele>
        <time>2017-05-04T09:10:33Z</time>
      </trkpt>
      <trkpt lat="43.25908" lon="6.02422">
        <ele>594.23</ele>
        <time>2017-05-04T09:10:38Z</time>
      </trkpt>
      <trkpt lat="43.25908" lon="6.02426">
        <ele>594.23</ele>
        <time>2017-05-04T09:10:41Z</time>
      </trkpt>
      <trkpt lat="43.25911" lon="6.02442">
        <ele>595.67</ele>
        <time>2017-05-04T09:10:54Z</time>
      </trkpt>
      <trkpt lat="43.25911" lon="6.02448">
        <ele>596.64</ele>
        <time>2017-05-04T09:10:59Z</time>
      </trkpt>
      <trkpt lat="43.25911" lon="6.0245">
        <ele>597.12</ele>
        <time>2017-05-04T09:11:01Z</time>
      </trkpt>
      <trkpt lat="43.25913" lon="6.02459">
        <ele>597.6</ele>
        <time>2017-05-04T09:11:12Z</time>
      </trkpt>
      <trkpt lat="43.25913" lon="6.0246">
        <ele>598.08</ele>
        <time>2017-05-04T09:11:29Z</time>
      </trkpt>
      <trkpt lat="43.25914" lon="6.0246">
        <ele>598.08</ele>
        <time>2017-05-04T09:11:44Z</time>
      </trkpt>
      <trkpt lat="43.25914" lon="6.0246">
        <ele>598.08</ele>
        <time>2017-05-04T09:12:04Z</time>
      </trkpt>
      <trkpt lat="43.25914" lon="6.0246">
        <ele>598.08</ele>
        <time>2017-05-04T09:12:32Z</time>
      </trkpt>
      <trkpt lat="43.25912" lon="6.02461">
        <ele>598.56</ele>
        <time>2017-05-04T09:12:54Z</time>
      </trkpt>
      <trkpt lat="43.2591" lon="6.02458">
        <ele>598.56</ele>
        <time>2017-05-04T09:13:07Z</time>
      </trkpt>
      <trkpt lat="43.2591" lon="6.02458">
        <ele>598.56</ele>
        <time>2017-05-04T09:13:19Z</time>
      </trkpt>
      <trkpt lat="43.2591" lon="6.02458">
        <ele>598.08</ele>
        <time>2017-05-04T09:13:42Z</time>
      </trkpt>
      <trkpt lat="43.2591" lon="6.02458">
        <ele>597.6</ele>
        <time>2017-05-04T09:14:04Z</time>
      </trkpt>
      <trkpt lat="43.2591" lon="6.02458">
        <ele>598.08</ele>
        <time>2017-05-04T09:14:28Z</time>
      </trkpt>
      <trkpt lat="43.25911" lon="6.02461">
        <ele>598.08</ele>
        <time>2017-05-04T09:14:50Z</time>
      </trkpt>
      <trkpt lat="43.25916" lon="6.02464">
        <ele>599.04</ele>
        <time>2017-05-04T09:15:01Z</time>
      </trkpt>
      <trkpt lat="43.25925" lon="6.02467">
        <ele>600.48</ele>
        <time>2017-05-04T09:15:14Z</time>
      </trkpt>
      <trkpt lat="43.25935" lon="6.02475">
        <ele>599.52</ele>
        <time>2017-05-04T09:15:28Z</time>
      </trkpt>
      <trkpt lat="43.25941" lon="6.02487">
        <ele>597.6</ele>
        <time>2017-05-04T09:15:40Z</time>
      </trkpt>
      <trkpt lat="43.25943" lon="6.02489">
        <ele>597.6</ele>
        <time>2017-05-04T09:15:43Z</time>
      </trkpt>
      <trkpt lat="43.25951" lon="6.02492">
        <ele>597.12</ele>
        <time>2017-05-04T09:15:56Z</time>
      </trkpt>
      <trkpt lat="43.25953" lon="6.02491">
        <ele>596.64</ele>
        <time>2017-05-04T09:16:10Z</time>
      </trkpt>
      <trkpt lat="43.25959" lon="6.02488">
        <ele>595.19</ele>
        <time>2017-05-04T09:16:24Z</time>
      </trkpt>
      <trkpt lat="43.25963" lon="6.02487">
        <ele>594.23</ele>
        <time>2017-05-04T09:16:31Z</time>
      </trkpt>
      <trkpt lat="43.25965" lon="6.02486">
        <ele>593.75</ele>
        <time>2017-05-04T09:16:33Z</time>
      </trkpt>
      <trkpt lat="43.2597" lon="6.02487">
        <ele>593.75</ele>
        <time>2017-05-04T09:16:45Z</time>
      </trkpt>
      <trkpt lat="43.25971" lon="6.02487">
        <ele>593.75</ele>
        <time>2017-05-04T09:16:57Z</time>
      </trkpt>
      <trkpt lat="43.25971" lon="6.02487">
        <ele>593.75</ele>
        <time>2017-05-04T09:16:58Z</time>
      </trkpt>
      <trkpt lat="43.25977" lon="6.02494">
        <ele>593.75</ele>
        <time>2017-05-04T09:17:09Z</time>
      </trkpt>
      <trkpt lat="43.25978" lon="6.02504">
        <ele>594.23</ele>
        <time>2017-05-04T09:17:18Z</time>
      </trkpt>
      <trkpt lat="43.2598" lon="6.02512">
        <ele>595.19</ele>
        <time>2017-05-04T09:17:24Z</time>
      </trkpt>
      <trkpt lat="43.25983" lon="6.02518">
        <ele>595.67</ele>
        <time>2017-05-04T09:17:29Z</time>
      </trkpt>
      <trkpt lat="43.25987" lon="6.02524">
        <ele>596.15</ele>
        <time>2017-05-04T09:17:34Z</time>
      </trkpt>
      <trkpt lat="43.25992" lon="6.02527">
        <ele>596.15</ele>
        <time>2017-05-04T09:17:38Z</time>
      </trkpt>
      <trkpt lat="43.26" lon="6.02533">
        <ele>596.15</ele>
        <time>2017-05-04T09:17:48Z</time>
      </trkpt>
      <trkpt lat="43.26" lon="6.0254">
        <ele>596.15</ele>
        <time>2017-05-04T09:17:53Z</time>
      </trkpt>
      <trkpt lat="43.26001" lon="6.0255">
        <ele>596.64</ele>
        <time>2017-05-04T09:18:00Z</time>
      </trkpt>
      <trkpt lat="43.26004" lon="6.02557">
        <ele>597.12</ele>
        <time>2017-05-04T09:18:05Z</time>
      </trkpt>
      <trkpt lat="43.26005" lon="6.02559">
        <ele>597.6</ele>
        <time>2017-05-04T09:18:07Z</time>
      </trkpt>
      <trkpt lat="43.2601" lon="6.02574">
        <ele>599.04</ele>
        <time>2017-05-04T09:18:23Z</time>
      </trkpt>
      <trkpt lat="43.26012" lon="6.02575">
        <ele>599.04</ele>
        <time>2017-05-04T09:18:25Z</time>
      </trkpt>
      <trkpt lat="43.26013" lon="6.02576">
        <ele>599.52</ele>
        <time>2017-05-04T09:18:27Z</time>
      </trkpt>
      <trkpt lat="43.26014" lon="6.02581">
        <ele>599.52</ele>
        <time>2017-05-04T09:18:30Z</time>
      </trkpt>
      <trkpt lat="43.26015" lon="6.02587">
        <ele>599.52</ele>
        <time>2017-05-04T09:18:34Z</time>
      </trkpt>
      <trkpt lat="43.2602" lon="6.02601">
        <ele>600.48</ele>
        <time>2017-05-04T09:18:45Z</time>
      </trkpt>
      <trkpt lat="43.26022" lon="6.02608">
        <ele>600.48</ele>
        <time>2017-05-04T09:18:57Z</time>
      </trkpt>
      <trkpt lat="43.26027" lon="6.0262">
        <ele>600.96</ele>
        <time>2017-05-04T09:19:10Z</time>
      </trkpt>
      <trkpt lat="43.26036" lon="6.02629">
        <ele>600.96</ele>
        <time>2017-05-04T09:19:24Z</time>
      </trkpt>
      <trkpt lat="43.26038" lon="6.0263">
        <ele>600.96</ele>
        <time>2017-05-04T09:19:26Z</time>
      </trkpt>
      <trkpt lat="43.26043" lon="6.02633">
        <ele>600.48</ele>
        <time>2017-05-04T09:19:40Z</time>
      </trkpt>
      <trkpt lat="43.26051" lon="6.02639">
        <ele>600.48</ele>
        <time>2017-05-04T09:19:54Z</time>
      </trkpt>
      <trkpt lat="43.26061" lon="6.02647">
        <ele>600</ele>
        <time>2017-05-04T09:20:08Z</time>
      </trkpt>
      <trkpt lat="43.26063" lon="6.02647">
        <ele>599.52</ele>
        <time>2017-05-04T09:20:10Z</time>
      </trkpt>
      <trkpt lat="43.26069" lon="6.02647">
        <ele>599.52</ele>
        <time>2017-05-04T09:20:18Z</time>
      </trkpt>
      <trkpt lat="43.26076" lon="6.0265">
        <ele>599.52</ele>
        <time>2017-05-04T09:20:25Z</time>
      </trkpt>
      <trkpt lat="43.26082" lon="6.02655">
        <ele>599.52</ele>
        <time>2017-05-04T09:20:38Z</time>
      </trkpt>
      <trkpt lat="43.26087" lon="6.02665">
        <ele>599.52</ele>
        <time>2017-05-04T09:20:46Z</time>
      </trkpt>
      <trkpt lat="43.26088" lon="6.02668">
        <ele>599.52</ele>
        <time>2017-05-04T09:20:48Z</time>
      </trkpt>
      <trkpt lat="43.26095" lon="6.02676">
        <ele>599.04</ele>
        <time>2017-05-04T09:21:00Z</time>
      </trkpt>
      <trkpt lat="43.26095" lon="6.02677">
        <ele>599.04</ele>
        <time>2017-05-04T09:21:15Z</time>
      </trkpt>
      <trkpt lat="43.26096" lon="6.02678">
        <ele>599.04</ele>
        <time>2017-05-04T09:21:27Z</time>
      </trkpt>
      <trkpt lat="43.26095" lon="6.02678">
        <ele>599.04</ele>
        <time>2017-05-04T09:21:41Z</time>
      </trkpt>
      <trkpt lat="43.26103" lon="6.02683">
        <ele>598.56</ele>
        <time>2017-05-04T09:21:54Z</time>
      </trkpt>
      <trkpt lat="43.26105" lon="6.02686">
        <ele>598.56</ele>
        <time>2017-05-04T09:21:57Z</time>
      </trkpt>
      <trkpt lat="43.26108" lon="6.02687">
        <ele>598.56</ele>
        <time>2017-05-04T09:22:01Z</time>
      </trkpt>
      <trkpt lat="43.2611" lon="6.0269">
        <ele>598.08</ele>
        <time>2017-05-04T09:22:04Z</time>
      </trkpt>
      <trkpt lat="43.26114" lon="6.02691">
        <ele>598.08</ele>
        <time>2017-05-04T09:22:08Z</time>
      </trkpt>
      <trkpt lat="43.2612" lon="6.02696">
        <ele>597.12</ele>
        <time>2017-05-04T09:22:16Z</time>
      </trkpt>
      <trkpt lat="43.26124" lon="6.02699">
        <ele>596.64</ele>
        <time>2017-05-04T09:22:20Z</time>
      </trkpt>
      <trkpt lat="43.2613" lon="6.02704">
        <ele>596.15</ele>
        <time>2017-05-04T09:22:28Z</time>
      </trkpt>
      <trkpt lat="43.26134" lon="6.02707">
        <ele>595.67</ele>
        <time>2017-05-04T09:22:32Z</time>
      </trkpt>
      <trkpt lat="43.26136" lon="6.02709">
        <ele>595.67</ele>
        <time>2017-05-04T09:22:35Z</time>
      </trkpt>
      <trkpt lat="43.26145" lon="6.02718">
        <ele>595.19</ele>
        <time>2017-05-04T09:22:46Z</time>
      </trkpt>
      <trkpt lat="43.26151" lon="6.02724">
        <ele>595.67</ele>
        <time>2017-05-04T09:22:57Z</time>
      </trkpt>
      <trkpt lat="43.26154" lon="6.02727">
        <ele>596.15</ele>
        <time>2017-05-04T09:23:01Z</time>
      </trkpt>
      <trkpt lat="43.26159" lon="6.02733">
        <ele>596.15</ele>
        <time>2017-05-04T09:23:08Z</time>
      </trkpt>
      <trkpt lat="43.26163" lon="6.02735">
        <ele>596.15</ele>
        <time>2017-05-04T09:23:14Z</time>
      </trkpt>
      <trkpt lat="43.26168" lon="6.02742">
        <ele>596.15</ele>
        <time>2017-05-04T09:23:26Z</time>
      </trkpt>
      <trkpt lat="43.26171" lon="6.02744">
        <ele>596.64</ele>
        <time>2017-05-04T09:23:30Z</time>
      </trkpt>
      <trkpt lat="43.26173" lon="6.02746">
        <ele>596.15</ele>
        <time>2017-05-04T09:23:33Z</time>
      </trkpt>
      <trkpt lat="43.26183" lon="6.02752">
        <ele>596.15</ele>
        <time>2017-05-04T09:23:46Z</time>
      </trkpt>
      <trkpt lat="43.26184" lon="6.02753">
        <ele>596.15</ele>
        <time>2017-05-04T09:23:47Z</time>
      </trkpt>
      <trkpt lat="43.26192" lon="6.02764">
        <ele>596.64</ele>
        <time>2017-05-04T09:23:59Z</time>
      </trkpt>
      <trkpt lat="43.26193" lon="6.02767">
        <ele>596.15</ele>
        <time>2017-05-04T09:24:01Z</time>
      </trkpt>
      <trkpt lat="43.26195" lon="6.02769">
        <ele>596.64</ele>
        <time>2017-05-04T09:24:03Z</time>
      </trkpt>
      <trkpt lat="43.26198" lon="6.02775">
        <ele>596.64</ele>
        <time>2017-05-04T09:24:09Z</time>
      </trkpt>
      <trkpt lat="43.26205" lon="6.0278">
        <ele>597.12</ele>
        <time>2017-05-04T09:24:20Z</time>
      </trkpt>
      <trkpt lat="43.26216" lon="6.0279">
        <ele>596.64</ele>
        <time>2017-05-04T09:24:35Z</time>
      </trkpt>
      <trkpt lat="43.26225" lon="6.02801">
        <ele>596.15</ele>
        <time>2017-05-04T09:24:48Z</time>
      </trkpt>
      <trkpt lat="43.26233" lon="6.0281">
        <ele>596.15</ele>
        <time>2017-05-04T09:25:01Z</time>
      </trkpt>
      <trkpt lat="43.26239" lon="6.02817">
        <ele>595.67</ele>
        <time>2017-05-04T09:25:11Z</time>
      </trkpt>
      <trkpt lat="43.2625" lon="6.02826">
        <ele>595.19</ele>
        <time>2017-05-04T09:25:26Z</time>
      </trkpt>
      <trkpt lat="43.26252" lon="6.02828">
        <ele>594.71</ele>
        <time>2017-05-04T09:25:29Z</time>
      </trkpt>
      <trkpt lat="43.26261" lon="6.02842">
        <ele>594.23</ele>
        <time>2017-05-04T09:25:44Z</time>
      </trkpt>
      <trkpt lat="43.26264" lon="6.02844">
        <ele>594.23</ele>
        <time>2017-05-04T09:25:49Z</time>
      </trkpt>
      <trkpt lat="43.26274" lon="6.02855">
        <ele>593.27</ele>
        <time>2017-05-04T09:26:05Z</time>
      </trkpt>
      <trkpt lat="43.26277" lon="6.02856">
        <ele>593.27</ele>
        <time>2017-05-04T09:26:08Z</time>
      </trkpt>
      <trkpt lat="43.2628" lon="6.02861">
        <ele>592.79</ele>
        <time>2017-05-04T09:26:13Z</time>
      </trkpt>
      <trkpt lat="43.26283" lon="6.02863">
        <ele>592.31</ele>
        <time>2017-05-04T09:26:16Z</time>
      </trkpt>
      <trkpt lat="43.26293" lon="6.02873">
        <ele>591.35</ele>
        <time>2017-05-04T09:26:32Z</time>
      </trkpt>
      <trkpt lat="43.26297" lon="6.02874">
        <ele>591.35</ele>
        <time>2017-05-04T09:26:37Z</time>
      </trkpt>
      <trkpt lat="43.26306" lon="6.02883">
        <ele>589.91</ele>
        <time>2017-05-04T09:26:50Z</time>
      </trkpt>
      <trkpt lat="43.26317" lon="6.02888">
        <ele>588.46</ele>
        <time>2017-05-04T09:27:05Z</time>
      </trkpt>
      <trkpt lat="43.26316" lon="6.02895">
        <ele>588.46</ele>
        <time>2017-05-04T09:27:12Z</time>
      </trkpt>
      <trkpt lat="43.26319" lon="6.02907">
        <ele>588.46</ele>
        <time>2017-05-04T09:27:25Z</time>
      </trkpt>
      <trkpt lat="43.26323" lon="6.0291">
        <ele>588.46</ele>
        <time>2017-05-04T09:27:30Z</time>
      </trkpt>
      <trkpt lat="43.2633" lon="6.02917">
        <ele>587.5</ele>
        <time>2017-05-04T09:27:43Z</time>
      </trkpt>
      <trkpt lat="43.26334" lon="6.02916">
        <ele>586.54</ele>
        <time>2017-05-04T09:27:48Z</time>
      </trkpt>
      <trkpt lat="43.26339" lon="6.0291">
        <ele>586.06</ele>
        <time>2017-05-04T09:27:56Z</time>
      </trkpt>
      <trkpt lat="43.2635" lon="6.02909">
        <ele>584.14</ele>
        <time>2017-05-04T09:28:11Z</time>
      </trkpt>
      <trkpt lat="43.26352" lon="6.02909">
        <ele>584.14</ele>
        <time>2017-05-04T09:28:13Z</time>
      </trkpt>
      <trkpt lat="43.26356" lon="6.02911">
        <ele>582.7</ele>
        <time>2017-05-04T09:28:27Z</time>
      </trkpt>
      <trkpt lat="43.26356" lon="6.02912">
        <ele>583.18</ele>
        <time>2017-05-04T09:28:49Z</time>
      </trkpt>
      <trkpt lat="43.26356" lon="6.02911">
        <ele>583.18</ele>
        <time>2017-05-04T09:29:08Z</time>
      </trkpt>
      <trkpt lat="43.26356" lon="6.02912">
        <ele>583.18</ele>
        <time>2017-05-04T09:29:29Z</time>
      </trkpt>
      <trkpt lat="43.26356" lon="6.02911">
        <ele>582.7</ele>
        <time>2017-05-04T09:29:50Z</time>
      </trkpt>
      <trkpt lat="43.26356" lon="6.0291">
        <ele>583.18</ele>
        <time>2017-05-04T09:30:13Z</time>
      </trkpt>
      <trkpt lat="43.26358" lon="6.02912">
        <ele>583.18</ele>
        <time>2017-05-04T09:30:18Z</time>
      </trkpt>
      <trkpt lat="43.2637" lon="6.02912">
        <ele>581.25</ele>
        <time>2017-05-04T09:30:33Z</time>
      </trkpt>
      <trkpt lat="43.26371" lon="6.02915">
        <ele>581.25</ele>
        <time>2017-05-04T09:30:35Z</time>
      </trkpt>
      <trkpt lat="43.26378" lon="6.02928">
        <ele>580.29</ele>
        <time>2017-05-04T09:30:46Z</time>
      </trkpt>
      <trkpt lat="43.2638" lon="6.02939">
        <ele>579.81</ele>
        <time>2017-05-04T09:30:53Z</time>
      </trkpt>
      <trkpt lat="43.26383" lon="6.02945">
        <ele>580.29</ele>
        <time>2017-05-04T09:30:58Z</time>
      </trkpt>
      <trkpt lat="43.26385" lon="6.0295">
        <ele>580.29</ele>
        <time>2017-05-04T09:31:02Z</time>
      </trkpt>
      <trkpt lat="43.26393" lon="6.02963">
        <ele>578.37</ele>
        <time>2017-05-04T09:31:15Z</time>
      </trkpt>
      <trkpt lat="43.26402" lon="6.0298">
        <ele>576.93</ele>
        <time>2017-05-04T09:31:29Z</time>
      </trkpt>
      <trkpt lat="43.26409" lon="6.02997">
        <ele>576.45</ele>
        <time>2017-05-04T09:31:42Z</time>
      </trkpt>
      <trkpt lat="43.26413" lon="6.03016">
        <ele>575.97</ele>
        <time>2017-05-04T09:31:57Z</time>
      </trkpt>
      <trkpt lat="43.26412" lon="6.03019">
        <ele>575.97</ele>
        <time>2017-05-04T09:31:59Z</time>
      </trkpt>
      <trkpt lat="43.26412" lon="6.03025">
        <ele>575.97</ele>
        <time>2017-05-04T09:32:05Z</time>
      </trkpt>
      <trkpt lat="43.26415" lon="6.03044">
        <ele>575.97</ele>
        <time>2017-05-04T09:32:18Z</time>
      </trkpt>
      <trkpt lat="43.2642" lon="6.03047">
        <ele>578.85</ele>
        <time>2017-05-04T09:32:30Z</time>
      </trkpt>
      <trkpt lat="43.26428" lon="6.03058">
        <ele>579.33</ele>
        <time>2017-05-04T09:32:39Z</time>
      </trkpt>
      <trkpt lat="43.26431" lon="6.03064">
        <ele>579.81</ele>
        <time>2017-05-04T09:32:44Z</time>
      </trkpt>
      <trkpt lat="43.26433" lon="6.03071">
        <ele>579.81</ele>
        <time>2017-05-04T09:32:49Z</time>
      </trkpt>
      <trkpt lat="43.26438" lon="6.03089">
        <ele>579.81</ele>
        <time>2017-05-04T09:33:01Z</time>
      </trkpt>
      <trkpt lat="43.26447" lon="6.03106">
        <ele>580.29</ele>
        <time>2017-05-04T09:33:15Z</time>
      </trkpt>
      <trkpt lat="43.2645" lon="6.03113">
        <ele>579.81</ele>
        <time>2017-05-04T09:33:20Z</time>
      </trkpt>
      <trkpt lat="43.26455" lon="6.03131">
        <ele>580.29</ele>
        <time>2017-05-04T09:33:33Z</time>
      </trkpt>
      <trkpt lat="43.26459" lon="6.03142">
        <ele>580.77</ele>
        <time>2017-05-04T09:33:41Z</time>
      </trkpt>
      <trkpt lat="43.26462" lon="6.03144">
        <ele>581.25</ele>
        <time>2017-05-04T09:33:45Z</time>
      </trkpt>
      <trkpt lat="43.26466" lon="6.03146">
        <ele>581.25</ele>
        <time>2017-05-04T09:33:59Z</time>
      </trkpt>
      <trkpt lat="43.26466" lon="6.03148">
        <ele>581.73</ele>
        <time>2017-05-04T09:34:15Z</time>
      </trkpt>
      <trkpt lat="43.26467" lon="6.03147">
        <ele>581.25</ele>
        <time>2017-05-04T09:34:31Z</time>
      </trkpt>
      <trkpt lat="43.26466" lon="6.03148">
        <ele>581.25</ele>
        <time>2017-05-04T09:34:51Z</time>
      </trkpt>
      <trkpt lat="43.26466" lon="6.03148">
        <ele>581.25</ele>
        <time>2017-05-04T09:35:14Z</time>
      </trkpt>
      <trkpt lat="43.26466" lon="6.03148">
        <ele>581.25</ele>
        <time>2017-05-04T09:35:36Z</time>
      </trkpt>
      <trkpt lat="43.2647" lon="6.03156">
        <ele>581.25</ele>
        <time>2017-05-04T09:35:45Z</time>
      </trkpt>
      <trkpt lat="43.26473" lon="6.03169">
        <ele>582.22</ele>
        <time>2017-05-04T09:35:53Z</time>
      </trkpt>
      <trkpt lat="43.26476" lon="6.03187">
        <ele>583.66</ele>
        <time>2017-05-04T09:36:06Z</time>
      </trkpt>
      <trkpt lat="43.26476" lon="6.03203">
        <ele>586.06</ele>
        <time>2017-05-04T09:36:18Z</time>
      </trkpt>
      <trkpt lat="43.26476" lon="6.03204">
        <ele>586.06</ele>
        <time>2017-05-04T09:36:19Z</time>
      </trkpt>
      <trkpt lat="43.26475" lon="6.03207">
        <ele>586.54</ele>
        <time>2017-05-04T09:36:21Z</time>
      </trkpt>
      <trkpt lat="43.26475" lon="6.03209">
        <ele>587.02</ele>
        <time>2017-05-04T09:36:23Z</time>
      </trkpt>
      <trkpt lat="43.26474" lon="6.03216">
        <ele>587.98</ele>
        <time>2017-05-04T09:36:29Z</time>
      </trkpt>
      <trkpt lat="43.26473" lon="6.03229">
        <ele>590.87</ele>
        <time>2017-05-04T09:36:41Z</time>
      </trkpt>
      <trkpt lat="43.26476" lon="6.03236">
        <ele>591.35</ele>
        <time>2017-05-04T09:36:47Z</time>
      </trkpt>
      <trkpt lat="43.26475" lon="6.0325">
        <ele>594.23</ele>
        <time>2017-05-04T09:37:00Z</time>
      </trkpt>
      <trkpt lat="43.26481" lon="6.03258">
        <ele>596.15</ele>
        <time>2017-05-04T09:37:12Z</time>
      </trkpt>
      <trkpt lat="43.26483" lon="6.03266">
        <ele>598.56</ele>
        <time>2017-05-04T09:37:23Z</time>
      </trkpt>
      <trkpt lat="43.26489" lon="6.0327">
        <ele>601.44</ele>
        <time>2017-05-04T09:37:36Z</time>
      </trkpt>
      <trkpt lat="43.26497" lon="6.03275">
        <ele>604.33</ele>
        <time>2017-05-04T09:37:49Z</time>
      </trkpt>
      <trkpt lat="43.26503" lon="6.03277">
        <ele>606.25</ele>
        <time>2017-05-04T09:38:02Z</time>
      </trkpt>
      <trkpt lat="43.26504" lon="6.03279">
        <ele>606.25</ele>
        <time>2017-05-04T09:38:20Z</time>
      </trkpt>
      <trkpt lat="43.26505" lon="6.03281">
        <ele>606.73</ele>
        <time>2017-05-04T09:38:38Z</time>
      </trkpt>
      <trkpt lat="43.26506" lon="6.03283">
        <ele>606.73</ele>
        <time>2017-05-04T09:38:53Z</time>
      </trkpt>
      <trkpt lat="43.26506" lon="6.03295">
        <ele>608.65</ele>
        <time>2017-05-04T09:39:07Z</time>
      </trkpt>
      <trkpt lat="43.26506" lon="6.03297">
        <ele>609.61</ele>
        <time>2017-05-04T09:39:09Z</time>
      </trkpt>
      <trkpt lat="43.26504" lon="6.033">
        <ele>609.61</ele>
        <time>2017-05-04T09:39:13Z</time>
      </trkpt>
      <trkpt lat="43.26501" lon="6.03302">
        <ele>610.09</ele>
        <time>2017-05-04T09:39:16Z</time>
      </trkpt>
      <trkpt lat="43.26497" lon="6.03306">
        <ele>610.57</ele>
        <time>2017-05-04T09:39:21Z</time>
      </trkpt>
      <trkpt lat="43.26496" lon="6.03312">
        <ele>611.06</ele>
        <time>2017-05-04T09:39:26Z</time>
      </trkpt>
      <trkpt lat="43.26499" lon="6.03324">
        <ele>613.94</ele>
        <time>2017-05-04T09:39:39Z</time>
      </trkpt>
      <trkpt lat="43.26501" lon="6.03334">
        <ele>616.34</ele>
        <time>2017-05-04T09:39:50Z</time>
      </trkpt>
      <trkpt lat="43.26506" lon="6.03342">
        <ele>619.23</ele>
        <time>2017-05-04T09:40:04Z</time>
      </trkpt>
      <trkpt lat="43.26506" lon="6.03343">
        <ele>620.19</ele>
        <time>2017-05-04T09:40:07Z</time>
      </trkpt>
      <trkpt lat="43.26507" lon="6.03356">
        <ele>622.59</ele>
        <time>2017-05-04T09:40:19Z</time>
      </trkpt>
      <trkpt lat="43.26505" lon="6.03363">
        <ele>624.03</ele>
        <time>2017-05-04T09:40:27Z</time>
      </trkpt>
      <trkpt lat="43.26506" lon="6.03375">
        <ele>625.96</ele>
        <time>2017-05-04T09:40:40Z</time>
      </trkpt>
      <trkpt lat="43.26508" lon="6.03383">
        <ele>627.4</ele>
        <time>2017-05-04T09:40:48Z</time>
      </trkpt>
      <trkpt lat="43.26511" lon="6.03383">
        <ele>627.88</ele>
        <time>2017-05-04T09:40:51Z</time>
      </trkpt>
      <trkpt lat="43.26522" lon="6.03378">
        <ele>627.88</ele>
        <time>2017-05-04T09:41:06Z</time>
      </trkpt>
      <trkpt lat="43.26528" lon="6.0338">
        <ele>628.84</ele>
        <time>2017-05-04T09:41:13Z</time>
      </trkpt>
      <trkpt lat="43.26535" lon="6.03389">
        <ele>630.28</ele>
        <time>2017-05-04T09:41:25Z</time>
      </trkpt>
      <trkpt lat="43.26537" lon="6.03394">
        <ele>631.24</ele>
        <time>2017-05-04T09:41:29Z</time>
      </trkpt>
      <trkpt lat="43.26541" lon="6.03403">
        <ele>633.17</ele>
        <time>2017-05-04T09:41:39Z</time>
      </trkpt>
      <trkpt lat="43.26543" lon="6.03411">
        <ele>634.13</ele>
        <time>2017-05-04T09:41:46Z</time>
      </trkpt>
      <trkpt lat="43.26545" lon="6.03418">
        <ele>635.57</ele>
        <time>2017-05-04T09:41:53Z</time>
      </trkpt>
      <trkpt lat="43.26548" lon="6.03427">
        <ele>637.49</ele>
        <time>2017-05-04T09:42:04Z</time>
      </trkpt>
      <trkpt lat="43.2655" lon="6.03432">
        <ele>637.97</ele>
        <time>2017-05-04T09:42:09Z</time>
      </trkpt>
      <trkpt lat="43.26557" lon="6.03442">
        <ele>638.93</ele>
        <time>2017-05-04T09:42:21Z</time>
      </trkpt>
      <trkpt lat="43.26562" lon="6.03453">
        <ele>639.89</ele>
        <time>2017-05-04T09:42:32Z</time>
      </trkpt>
      <trkpt lat="43.26564" lon="6.03456">
        <ele>639.89</ele>
        <time>2017-05-04T09:42:35Z</time>
      </trkpt>
      <trkpt lat="43.26568" lon="6.03464">
        <ele>640.86</ele>
        <time>2017-05-04T09:42:43Z</time>
      </trkpt>
      <trkpt lat="43.26571" lon="6.03471">
        <ele>641.82</ele>
        <time>2017-05-04T09:42:54Z</time>
      </trkpt>
      <trkpt lat="43.2657" lon="6.0347">
        <ele>641.34</ele>
        <time>2017-05-04T09:43:15Z</time>
      </trkpt>
      <trkpt lat="43.2657" lon="6.0347">
        <ele>641.82</ele>
        <time>2017-05-04T09:43:43Z</time>
      </trkpt>
      <trkpt lat="43.26569" lon="6.03467">
        <ele>640.38</ele>
        <time>2017-05-04T09:43:55Z</time>
      </trkpt>
      <trkpt lat="43.26569" lon="6.03468">
        <ele>640.86</ele>
        <time>2017-05-04T09:44:13Z</time>
      </trkpt>
      <trkpt lat="43.2657" lon="6.03468">
        <ele>640.86</ele>
        <time>2017-05-04T09:44:34Z</time>
      </trkpt>
      <trkpt lat="43.2657" lon="6.03468">
        <ele>641.34</ele>
        <time>2017-05-04T09:45:00Z</time>
      </trkpt>
      <trkpt lat="43.2657" lon="6.03469">
        <ele>641.34</ele>
        <time>2017-05-04T09:45:20Z</time>
      </trkpt>
      <trkpt lat="43.2657" lon="6.03469">
        <ele>641.34</ele>
        <time>2017-05-04T09:45:39Z</time>
      </trkpt>
      <trkpt lat="43.2657" lon="6.03469">
        <ele>641.34</ele>
        <time>2017-05-04T09:46:07Z</time>
      </trkpt>
      <trkpt lat="43.2657" lon="6.03469">
        <ele>641.82</ele>
        <time>2017-05-04T09:46:32Z</time>
      </trkpt>
      <trkpt lat="43.26569" lon="6.03469">
        <ele>641.82</ele>
        <time>2017-05-04T09:47:05Z</time>
      </trkpt>
      <trkpt lat="43.26576" lon="6.03478">
        <ele>641.82</ele>
        <time>2017-05-04T09:47:17Z</time>
      </trkpt>
      <trkpt lat="43.26588" lon="6.03487">
        <ele>641.34</ele>
        <time>2017-05-04T09:47:32Z</time>
      </trkpt>
      <trkpt lat="43.26594" lon="6.03501">
        <ele>640.86</ele>
        <time>2017-05-04T09:47:45Z</time>
      </trkpt>
      <trkpt lat="43.26594" lon="6.03502">
        <ele>640.86</ele>
        <time>2017-05-04T09:47:46Z</time>
      </trkpt>
      <trkpt lat="43.26595" lon="6.03506">
        <ele>640.86</ele>
        <time>2017-05-04T09:47:49Z</time>
      </trkpt>
      <trkpt lat="43.26601" lon="6.03516">
        <ele>640.38</ele>
        <time>2017-05-04T09:48:03Z</time>
      </trkpt>
      <trkpt lat="43.26602" lon="6.03518">
        <ele>639.41</ele>
        <time>2017-05-04T09:48:11Z</time>
      </trkpt>
      <trkpt lat="43.26605" lon="6.03528">
        <ele>637.97</ele>
        <time>2017-05-04T09:48:21Z</time>
      </trkpt>
      <trkpt lat="43.26608" lon="6.03529">
        <ele>637.49</ele>
        <time>2017-05-04T09:48:24Z</time>
      </trkpt>
      <trkpt lat="43.26619" lon="6.03534">
        <ele>636.05</ele>
        <time>2017-05-04T09:48:38Z</time>
      </trkpt>
      <trkpt lat="43.26623" lon="6.03534">
        <ele>634.61</ele>
        <time>2017-05-04T09:48:46Z</time>
      </trkpt>
      <trkpt lat="43.26631" lon="6.03538">
        <ele>632.2</ele>
        <time>2017-05-04T09:48:59Z</time>
      </trkpt>
      <trkpt lat="43.26643" lon="6.0354">
        <ele>629.8</ele>
        <time>2017-05-04T09:49:13Z</time>
      </trkpt>
      <trkpt lat="43.26648" lon="6.03541">
        <ele>628.36</ele>
        <time>2017-05-04T09:49:27Z</time>
      </trkpt>
      <trkpt lat="43.26655" lon="6.03539">
        <ele>626.44</ele>
        <time>2017-05-04T09:49:40Z</time>
      </trkpt>
      <trkpt lat="43.2666" lon="6.03541">
        <ele>625.47</ele>
        <time>2017-05-04T09:49:47Z</time>
      </trkpt>
      <trkpt lat="43.26662" lon="6.03543">
        <ele>625.47</ele>
        <time>2017-05-04T09:49:49Z</time>
      </trkpt>
      <trkpt lat="43.26665" lon="6.03548">
        <ele>624.99</ele>
        <time>2017-05-04T09:49:54Z</time>
      </trkpt>
      <trkpt lat="43.26669" lon="6.03553">
        <ele>624.03</ele>
        <time>2017-05-04T09:50:01Z</time>
      </trkpt>
      <trkpt lat="43.2667" lon="6.03557">
        <ele>623.55</ele>
        <time>2017-05-04T09:50:05Z</time>
      </trkpt>
      <trkpt lat="43.26675" lon="6.03569">
        <ele>622.11</ele>
        <time>2017-05-04T09:50:19Z</time>
      </trkpt>
      <trkpt lat="43.26679" lon="6.03577">
        <ele>621.63</ele>
        <time>2017-05-04T09:50:29Z</time>
      </trkpt>
      <trkpt lat="43.26679" lon="6.0358">
        <ele>621.63</ele>
        <time>2017-05-04T09:50:31Z</time>
      </trkpt>
      <trkpt lat="43.26681" lon="6.03594">
        <ele>621.63</ele>
        <time>2017-05-04T09:50:43Z</time>
      </trkpt>
      <trkpt lat="43.26682" lon="6.03597">
        <ele>622.11</ele>
        <time>2017-05-04T09:50:46Z</time>
      </trkpt>
      <trkpt lat="43.26684" lon="6.036">
        <ele>622.11</ele>
        <time>2017-05-04T09:50:49Z</time>
      </trkpt>
      <trkpt lat="43.26687" lon="6.03604">
        <ele>622.59</ele>
        <time>2017-05-04T09:50:55Z</time>
      </trkpt>
      <trkpt lat="43.26689" lon="6.03604">
        <ele>622.59</ele>
        <time>2017-05-04T09:50:57Z</time>
      </trkpt>
      <trkpt lat="43.26696" lon="6.0361">
        <ele>622.59</ele>
        <time>2017-05-04T09:51:05Z</time>
      </trkpt>
      <trkpt lat="43.26697" lon="6.03616">
        <ele>623.55</ele>
        <time>2017-05-04T09:51:11Z</time>
      </trkpt>
      <trkpt lat="43.26698" lon="6.03619">
        <ele>623.55</ele>
        <time>2017-05-04T09:51:13Z</time>
      </trkpt>
      <trkpt lat="43.26704" lon="6.03627">
        <ele>624.51</ele>
        <time>2017-05-04T09:51:24Z</time>
      </trkpt>
      <trkpt lat="43.26715" lon="6.03631">
        <ele>624.99</ele>
        <time>2017-05-04T09:51:37Z</time>
      </trkpt>
      <trkpt lat="43.26726" lon="6.03638">
        <ele>625.96</ele>
        <time>2017-05-04T09:51:50Z</time>
      </trkpt>
      <trkpt lat="43.26726" lon="6.03641">
        <ele>625.96</ele>
        <time>2017-05-04T09:51:52Z</time>
      </trkpt>
      <trkpt lat="43.26726" lon="6.03653">
        <ele>628.36</ele>
        <time>2017-05-04T09:52:04Z</time>
      </trkpt>
      <trkpt lat="43.26732" lon="6.03665">
        <ele>630.76</ele>
        <time>2017-05-04T09:52:18Z</time>
      </trkpt>
      <trkpt lat="43.26734" lon="6.03667">
        <ele>630.76</ele>
        <time>2017-05-04T09:52:21Z</time>
      </trkpt>
      <trkpt lat="43.26736" lon="6.03678">
        <ele>633.17</ele>
        <time>2017-05-04T09:52:33Z</time>
      </trkpt>
      <trkpt lat="43.26736" lon="6.03681">
        <ele>633.17</ele>
        <time>2017-05-04T09:52:36Z</time>
      </trkpt>
      <trkpt lat="43.2674" lon="6.03692">
        <ele>635.57</ele>
        <time>2017-05-04T09:52:49Z</time>
      </trkpt>
      <trkpt lat="43.26741" lon="6.03696">
        <ele>636.05</ele>
        <time>2017-05-04T09:52:53Z</time>
      </trkpt>
      <trkpt lat="43.2675" lon="6.03704">
        <ele>637.97</ele>
        <time>2017-05-04T09:53:08Z</time>
      </trkpt>
      <trkpt lat="43.26752" lon="6.03718">
        <ele>640.38</ele>
        <time>2017-05-04T09:53:21Z</time>
      </trkpt>
      <trkpt lat="43.26752" lon="6.03721">
        <ele>640.86</ele>
        <time>2017-05-04T09:53:24Z</time>
      </trkpt>
      <trkpt lat="43.26755" lon="6.03722">
        <ele>641.34</ele>
        <time>2017-05-04T09:53:28Z</time>
      </trkpt>
      <trkpt lat="43.26764" lon="6.03729">
        <ele>642.3</ele>
        <time>2017-05-04T09:53:40Z</time>
      </trkpt>
      <trkpt lat="43.26763" lon="6.03743">
        <ele>644.22</ele>
        <time>2017-05-04T09:53:52Z</time>
      </trkpt>
      <trkpt lat="43.26768" lon="6.03756">
        <ele>646.14</ele>
        <time>2017-05-04T09:54:06Z</time>
      </trkpt>
      <trkpt lat="43.26771" lon="6.03766">
        <ele>647.59</ele>
        <time>2017-05-04T09:54:17Z</time>
      </trkpt>
      <trkpt lat="43.26778" lon="6.03776">
        <ele>649.51</ele>
        <time>2017-05-04T09:54:29Z</time>
      </trkpt>
      <trkpt lat="43.26781" lon="6.0379">
        <ele>650.95</ele>
        <time>2017-05-04T09:54:42Z</time>
      </trkpt>
      <trkpt lat="43.26786" lon="6.038">
        <ele>653.35</ele>
        <time>2017-05-04T09:54:55Z</time>
      </trkpt>
      <trkpt lat="43.26789" lon="6.03811">
        <ele>655.76</ele>
        <time>2017-05-04T09:55:07Z</time>
      </trkpt>
      <trkpt lat="43.2679" lon="6.03825">
        <ele>657.68</ele>
        <time>2017-05-04T09:55:19Z</time>
      </trkpt>
      <trkpt lat="43.26788" lon="6.03828">
        <ele>658.16</ele>
        <time>2017-05-04T09:55:23Z</time>
      </trkpt>
      <trkpt lat="43.26787" lon="6.03835">
        <ele>658.64</ele>
        <time>2017-05-04T09:55:30Z</time>
      </trkpt>
      <trkpt lat="43.26789" lon="6.0384">
        <ele>659.12</ele>
        <time>2017-05-04T09:55:35Z</time>
      </trkpt>
      <trkpt lat="43.26792" lon="6.03853">
        <ele>662.01</ele>
        <time>2017-05-04T09:55:46Z</time>
      </trkpt>
      <trkpt lat="43.26791" lon="6.03855">
        <ele>662.49</ele>
        <time>2017-05-04T09:55:48Z</time>
      </trkpt>
      <trkpt lat="43.2679" lon="6.03863">
        <ele>663.93</ele>
        <time>2017-05-04T09:55:53Z</time>
      </trkpt>
      <trkpt lat="43.26788" lon="6.03866">
        <ele>664.89</ele>
        <time>2017-05-04T09:55:55Z</time>
      </trkpt>
      <trkpt lat="43.26787" lon="6.03876">
        <ele>665.85</ele>
        <time>2017-05-04T09:56:04Z</time>
      </trkpt>
      <trkpt lat="43.2679" lon="6.03884">
        <ele>667.29</ele>
        <time>2017-05-04T09:56:11Z</time>
      </trkpt>
      <trkpt lat="43.26793" lon="6.03887">
        <ele>667.77</ele>
        <time>2017-05-04T09:56:15Z</time>
      </trkpt>
      <trkpt lat="43.26797" lon="6.03902">
        <ele>669.22</ele>
        <time>2017-05-04T09:56:29Z</time>
      </trkpt>
      <trkpt lat="43.26798" lon="6.03916">
        <ele>670.18</ele>
        <time>2017-05-04T09:56:43Z</time>
      </trkpt>
      <trkpt lat="43.26798" lon="6.03919">
        <ele>670.66</ele>
        <time>2017-05-04T09:56:54Z</time>
      </trkpt>
      <trkpt lat="43.26798" lon="6.0392">
        <ele>670.66</ele>
        <time>2017-05-04T09:57:17Z</time>
      </trkpt>
      <trkpt lat="43.26799" lon="6.0392">
        <ele>671.14</ele>
        <time>2017-05-04T09:57:36Z</time>
      </trkpt>
      <trkpt lat="43.26801" lon="6.0393">
        <ele>671.62</ele>
        <time>2017-05-04T09:57:47Z</time>
      </trkpt>
      <trkpt lat="43.26802" lon="6.03933">
        <ele>671.62</ele>
        <time>2017-05-04T09:57:49Z</time>
      </trkpt>
      <trkpt lat="43.26805" lon="6.03947">
        <ele>673.06</ele>
        <time>2017-05-04T09:58:03Z</time>
      </trkpt>
      <trkpt lat="43.26806" lon="6.03952">
        <ele>673.54</ele>
        <time>2017-05-04T09:58:07Z</time>
      </trkpt>
      <trkpt lat="43.26805" lon="6.03955">
        <ele>674.02</ele>
        <time>2017-05-04T09:58:09Z</time>
      </trkpt>
      <trkpt lat="43.26804" lon="6.03959">
        <ele>674.02</ele>
        <time>2017-05-04T09:58:12Z</time>
      </trkpt>
      <trkpt lat="43.26804" lon="6.03961">
        <ele>674.02</ele>
        <time>2017-05-04T09:58:14Z</time>
      </trkpt>
      <trkpt lat="43.26804" lon="6.03968">
        <ele>674.5</ele>
        <time>2017-05-04T09:58:20Z</time>
      </trkpt>
      <trkpt lat="43.26808" lon="6.03983">
        <ele>675.46</ele>
        <time>2017-05-04T09:58:33Z</time>
      </trkpt>
      <trkpt lat="43.26807" lon="6.03986">
        <ele>675.94</ele>
        <time>2017-05-04T09:58:35Z</time>
      </trkpt>
      <trkpt lat="43.26807" lon="6.0399">
        <ele>675.94</ele>
        <time>2017-05-04T09:58:38Z</time>
      </trkpt>
      <trkpt lat="43.2681" lon="6.03993">
        <ele>675.94</ele>
        <time>2017-05-04T09:58:42Z</time>
      </trkpt>
      <trkpt lat="43.2681" lon="6.03996">
        <ele>676.42</ele>
        <time>2017-05-04T09:58:44Z</time>
      </trkpt>
      <trkpt lat="43.26811" lon="6.04001">
        <ele>676.42</ele>
        <time>2017-05-04T09:58:48Z</time>
      </trkpt>
      <trkpt lat="43.26814" lon="6.04011">
        <ele>677.39</ele>
        <time>2017-05-04T09:58:57Z</time>
      </trkpt>
      <trkpt lat="43.26815" lon="6.04015">
        <ele>677.39</ele>
        <time>2017-05-04T09:59:00Z</time>
      </trkpt>
      <trkpt lat="43.26817" lon="6.04026">
        <ele>677.87</ele>
        <time>2017-05-04T09:59:08Z</time>
      </trkpt>
      <trkpt lat="43.26816" lon="6.04034">
        <ele>677.87</ele>
        <time>2017-05-04T09:59:14Z</time>
      </trkpt>
      <trkpt lat="43.26818" lon="6.04043">
        <ele>678.35</ele>
        <time>2017-05-04T09:59:21Z</time>
      </trkpt>
      <trkpt lat="43.2682" lon="6.04049">
        <ele>678.83</ele>
        <time>2017-05-04T09:59:26Z</time>
      </trkpt>
      <trkpt lat="43.26821" lon="6.04056">
        <ele>678.83</ele>
        <time>2017-05-04T09:59:32Z</time>
      </trkpt>
      <trkpt lat="43.26823" lon="6.0406">
        <ele>678.83</ele>
        <time>2017-05-04T09:59:35Z</time>
      </trkpt>
      <trkpt lat="43.26826" lon="6.04064">
        <ele>678.83</ele>
        <time>2017-05-04T09:59:41Z</time>
      </trkpt>
      <trkpt lat="43.26829" lon="6.0407">
        <ele>678.83</ele>
        <time>2017-05-04T09:59:46Z</time>
      </trkpt>
      <trkpt lat="43.2683" lon="6.04087">
        <ele>678.83</ele>
        <time>2017-05-04T09:59:58Z</time>
      </trkpt>
      <trkpt lat="43.2683" lon="6.0409">
        <ele>678.83</ele>
        <time>2017-05-04T10:00:00Z</time>
      </trkpt>
      <trkpt lat="43.26838" lon="6.04109">
        <ele>678.83</ele>
        <time>2017-05-04T10:00:15Z</time>
      </trkpt>
      <trkpt lat="43.26839" lon="6.04116">
        <ele>679.31</ele>
        <time>2017-05-04T10:00:20Z</time>
      </trkpt>
      <trkpt lat="43.2684" lon="6.04123">
        <ele>679.31</ele>
        <time>2017-05-04T10:00:33Z</time>
      </trkpt>
      <trkpt lat="43.26842" lon="6.04129">
        <ele>679.79</ele>
        <time>2017-05-04T10:00:48Z</time>
      </trkpt>
      <trkpt lat="43.26843" lon="6.04134">
        <ele>679.79</ele>
        <time>2017-05-04T10:00:52Z</time>
      </trkpt>
      <trkpt lat="43.26849" lon="6.04145">
        <ele>679.79</ele>
        <time>2017-05-04T10:01:02Z</time>
      </trkpt>
      <trkpt lat="43.2685" lon="6.04151">
        <ele>679.79</ele>
        <time>2017-05-04T10:01:06Z</time>
      </trkpt>
      <trkpt lat="43.26852" lon="6.04156">
        <ele>680.27</ele>
        <time>2017-05-04T10:01:22Z</time>
      </trkpt>
      <trkpt lat="43.26852" lon="6.04156">
        <ele>680.27</ele>
        <time>2017-05-04T10:01:42Z</time>
      </trkpt>
      <trkpt lat="43.26856" lon="6.04163">
        <ele>680.75</ele>
        <time>2017-05-04T10:01:57Z</time>
      </trkpt>
      <trkpt lat="43.2686" lon="6.04168">
        <ele>681.23</ele>
        <time>2017-05-04T10:02:12Z</time>
      </trkpt>
      <trkpt lat="43.26861" lon="6.04167">
        <ele>681.23</ele>
        <time>2017-05-04T10:02:27Z</time>
      </trkpt>
      <trkpt lat="43.26861" lon="6.04168">
        <ele>681.23</ele>
        <time>2017-05-04T10:02:31Z</time>
      </trkpt>
      <trkpt lat="43.26862" lon="6.04175">
        <ele>681.23</ele>
        <time>2017-05-04T10:02:39Z</time>
      </trkpt>
      <trkpt lat="43.26863" lon="6.04177">
        <ele>681.23</ele>
        <time>2017-05-04T10:02:41Z</time>
      </trkpt>
      <trkpt lat="43.26869" lon="6.04182">
        <ele>681.71</ele>
        <time>2017-05-04T10:02:48Z</time>
      </trkpt>
      <trkpt lat="43.26876" lon="6.0419">
        <ele>682.67</ele>
        <time>2017-05-04T10:03:01Z</time>
      </trkpt>
      <trkpt lat="43.26877" lon="6.04193">
        <ele>682.67</ele>
        <time>2017-05-04T10:03:04Z</time>
      </trkpt>
      <trkpt lat="43.26879" lon="6.04201">
        <ele>682.67</ele>
        <time>2017-05-04T10:03:11Z</time>
      </trkpt>
      <trkpt lat="43.2688" lon="6.04204">
        <ele>682.67</ele>
        <time>2017-05-04T10:03:14Z</time>
      </trkpt>
      <trkpt lat="43.26881" lon="6.04208">
        <ele>682.67</ele>
        <time>2017-05-04T10:03:18Z</time>
      </trkpt>
      <trkpt lat="43.26886" lon="6.04209">
        <ele>683.15</ele>
        <time>2017-05-04T10:03:24Z</time>
      </trkpt>
      <trkpt lat="43.26892" lon="6.04211">
        <ele>683.63</ele>
        <time>2017-05-04T10:03:33Z</time>
      </trkpt>
      <trkpt lat="43.26894" lon="6.04214">
        <ele>683.63</ele>
        <time>2017-05-04T10:03:36Z</time>
      </trkpt>
      <trkpt lat="43.26901" lon="6.04212">
        <ele>684.12</ele>
        <time>2017-05-04T10:03:49Z</time>
      </trkpt>
      <trkpt lat="43.26899" lon="6.0421">
        <ele>683.63</ele>
        <time>2017-05-04T10:04:05Z</time>
      </trkpt>
      <trkpt lat="43.26895" lon="6.04201">
        <ele>684.12</ele>
        <time>2017-05-04T10:04:18Z</time>
      </trkpt>
      <trkpt lat="43.26893" lon="6.04199">
        <ele>683.15</ele>
        <time>2017-05-04T10:04:32Z</time>
      </trkpt>
      <trkpt lat="43.26893" lon="6.04201">
        <ele>683.63</ele>
        <time>2017-05-04T10:04:45Z</time>
      </trkpt>
      <trkpt lat="43.26893" lon="6.042">
        <ele>682.67</ele>
        <time>2017-05-04T10:04:59Z</time>
      </trkpt>
      <trkpt lat="43.26893" lon="6.042">
        <ele>682.67</ele>
        <time>2017-05-04T10:05:24Z</time>
      </trkpt>
      <trkpt lat="43.26893" lon="6.042">
        <ele>682.67</ele>
        <time>2017-05-04T10:05:50Z</time>
      </trkpt>
      <trkpt lat="43.26893" lon="6.042">
        <ele>682.67</ele>
        <time>2017-05-04T10:06:19Z</time>
      </trkpt>
      <trkpt lat="43.26893" lon="6.042">
        <ele>682.67</ele>
        <time>2017-05-04T10:06:47Z</time>
      </trkpt>
      <trkpt lat="43.26894" lon="6.042">
        <ele>682.67</ele>
        <time>2017-05-04T10:07:21Z</time>
      </trkpt>
      <trkpt lat="43.26894" lon="6.042">
        <ele>682.67</ele>
        <time>2017-05-04T10:07:52Z</time>
      </trkpt>
      <trkpt lat="43.26893" lon="6.042">
        <ele>682.67</ele>
        <time>2017-05-04T10:08:20Z</time>
      </trkpt>
      <trkpt lat="43.26893" lon="6.042">
        <ele>682.67</ele>
        <time>2017-05-04T10:08:52Z</time>
      </trkpt>
      <trkpt lat="43.26893" lon="6.04199">
        <ele>683.15</ele>
        <time>2017-05-04T10:09:21Z</time>
      </trkpt>
      <trkpt lat="43.26893" lon="6.04199">
        <ele>683.15</ele>
        <time>2017-05-04T10:09:55Z</time>
      </trkpt>
      <trkpt lat="43.26892" lon="6.04199">
        <ele>683.15</ele>
        <time>2017-05-04T10:10:32Z</time>
      </trkpt>
      <trkpt lat="43.26893" lon="6.04199">
        <ele>682.67</ele>
        <time>2017-05-04T10:11:03Z</time>
      </trkpt>
      <trkpt lat="43.26893" lon="6.042">
        <ele>682.67</ele>
        <time>2017-05-04T10:11:39Z</time>
      </trkpt>
      <trkpt lat="43.26894" lon="6.042">
        <ele>682.67</ele>
        <time>2017-05-04T10:11:57Z</time>
      </trkpt>
      <trkpt lat="43.26894" lon="6.042">
        <ele>682.67</ele>
        <time>2017-05-04T10:12:17Z</time>
      </trkpt>
      <trkpt lat="43.26893" lon="6.042">
        <ele>683.15</ele>
        <time>2017-05-04T10:12:51Z</time>
      </trkpt>
      <trkpt lat="43.26893" lon="6.042">
        <ele>682.67</ele>
        <time>2017-05-04T10:13:30Z</time>
      </trkpt>
      <trkpt lat="43.26894" lon="6.042">
        <ele>682.67</ele>
        <time>2017-05-04T10:14:03Z</time>
      </trkpt>
      <trkpt lat="43.26894" lon="6.04201">
        <ele>683.15</ele>
        <time>2017-05-04T10:14:36Z</time>
      </trkpt>
      <trkpt lat="43.26894" lon="6.04201">
        <ele>683.15</ele>
        <time>2017-05-04T10:15:09Z</time>
      </trkpt>
      <trkpt lat="43.26894" lon="6.042">
        <ele>683.15</ele>
        <time>2017-05-04T10:15:40Z</time>
      </trkpt>
      <trkpt lat="43.26894" lon="6.042">
        <ele>683.63</ele>
        <time>2017-05-04T10:16:10Z</time>
      </trkpt>
      <trkpt lat="43.26894" lon="6.042">
        <ele>684.12</ele>
        <time>2017-05-04T10:16:40Z</time>
      </trkpt>
      <trkpt lat="43.26894" lon="6.042">
        <ele>683.63</ele>
        <time>2017-05-04T10:17:15Z</time>
      </trkpt>
      <trkpt lat="43.26894" lon="6.042">
        <ele>684.12</ele>
        <time>2017-05-04T10:17:45Z</time>
      </trkpt>
      <trkpt lat="43.26894" lon="6.042">
        <ele>684.12</ele>
        <time>2017-05-04T10:18:14Z</time>
      </trkpt>
      <trkpt lat="43.26894" lon="6.042">
        <ele>684.12</ele>
        <time>2017-05-04T10:18:46Z</time>
      </trkpt>
      <trkpt lat="43.26894" lon="6.042">
        <ele>684.12</ele>
        <time>2017-05-04T10:19:20Z</time>
      </trkpt>
      <trkpt lat="43.26893" lon="6.042">
        <ele>683.63</ele>
        <time>2017-05-04T10:19:52Z</time>
      </trkpt>
      <trkpt lat="43.26894" lon="6.04201">
        <ele>683.63</ele>
        <time>2017-05-04T10:20:27Z</time>
      </trkpt>
      <trkpt lat="43.26893" lon="6.04201">
        <ele>683.63</ele>
        <time>2017-05-04T10:21:03Z</time>
      </trkpt>
      <trkpt lat="43.26893" lon="6.04202">
        <ele>684.12</ele>
        <time>2017-05-04T10:21:39Z</time>
      </trkpt>
      <trkpt lat="43.26893" lon="6.04201">
        <ele>684.12</ele>
        <time>2017-05-04T10:22:12Z</time>
      </trkpt>
      <trkpt lat="43.26893" lon="6.042">
        <ele>684.6</ele>
        <time>2017-05-04T10:22:48Z</time>
      </trkpt>
      <trkpt lat="43.26894" lon="6.04199">
        <ele>684.6</ele>
        <time>2017-05-04T10:23:25Z</time>
      </trkpt>
      <trkpt lat="43.26894" lon="6.04199">
        <ele>684.6</ele>
        <time>2017-05-04T10:23:50Z</time>
      </trkpt>
      <trkpt lat="43.26894" lon="6.04199">
        <ele>684.6</ele>
        <time>2017-05-04T10:24:22Z</time>
      </trkpt>
      <trkpt lat="43.26894" lon="6.042">
        <ele>685.08</ele>
        <time>2017-05-04T10:24:46Z</time>
      </trkpt>
      <trkpt lat="43.26895" lon="6.04201">
        <ele>685.08</ele>
        <time>2017-05-04T10:25:16Z</time>
      </trkpt>
      <trkpt lat="43.26895" lon="6.04201">
        <ele>685.08</ele>
        <time>2017-05-04T10:25:54Z</time>
      </trkpt>
      <trkpt lat="43.26894" lon="6.04201">
        <ele>685.08</ele>
        <time>2017-05-04T10:26:25Z</time>
      </trkpt>
      <trkpt lat="43.26893" lon="6.04201">
        <ele>685.08</ele>
        <time>2017-05-04T10:26:54Z</time>
      </trkpt>
      <trkpt lat="43.26893" lon="6.042">
        <ele>685.56</ele>
        <time>2017-05-04T10:27:26Z</time>
      </trkpt>
      <trkpt lat="43.26893" lon="6.042">
        <ele>685.56</ele>
        <time>2017-05-04T10:28:03Z</time>
      </trkpt>
      <trkpt lat="43.26893" lon="6.04199">
        <ele>685.56</ele>
        <time>2017-05-04T10:28:33Z</time>
      </trkpt>
      <trkpt lat="43.26894" lon="6.04199">
        <ele>685.56</ele>
        <time>2017-05-04T10:29:08Z</time>
      </trkpt>
      <trkpt lat="43.26894" lon="6.042">
        <ele>685.08</ele>
        <time>2017-05-04T10:29:40Z</time>
      </trkpt>
      <trkpt lat="43.26893" lon="6.042">
        <ele>685.56</ele>
        <time>2017-05-04T10:30:10Z</time>
      </trkpt>
      <trkpt lat="43.26893" lon="6.04201">
        <ele>685.08</ele>
        <time>2017-05-04T10:30:37Z</time>
      </trkpt>
      <trkpt lat="43.26893" lon="6.04201">
        <ele>685.08</ele>
        <time>2017-05-04T10:31:10Z</time>
      </trkpt>
      <trkpt lat="43.26893" lon="6.04201">
        <ele>685.56</ele>
        <time>2017-05-04T10:31:41Z</time>
      </trkpt>
      <trkpt lat="43.26893" lon="6.04202">
        <ele>685.56</ele>
        <time>2017-05-04T10:32:12Z</time>
      </trkpt>
      <trkpt lat="43.26893" lon="6.04201">
        <ele>685.08</ele>
        <time>2017-05-04T10:32:40Z</time>
      </trkpt>
      <trkpt lat="43.26893" lon="6.04201">
        <ele>685.56</ele>
        <time>2017-05-04T10:33:05Z</time>
      </trkpt>
      <trkpt lat="43.26893" lon="6.04201">
        <ele>685.08</ele>
        <time>2017-05-04T10:33:26Z</time>
      </trkpt>
      <trkpt lat="43.26893" lon="6.04201">
        <ele>685.56</ele>
        <time>2017-05-04T10:33:51Z</time>
      </trkpt>
      <trkpt lat="43.26893" lon="6.04201">
        <ele>685.56</ele>
        <time>2017-05-04T10:34:16Z</time>
      </trkpt>
      <trkpt lat="43.26893" lon="6.04201">
        <ele>685.56</ele>
        <time>2017-05-04T10:34:43Z</time>
      </trkpt>
      <trkpt lat="43.26893" lon="6.04201">
        <ele>685.56</ele>
        <time>2017-05-04T10:35:13Z</time>
      </trkpt>
      <trkpt lat="43.26893" lon="6.04201">
        <ele>686.04</ele>
        <time>2017-05-04T10:35:42Z</time>
      </trkpt>
      <trkpt lat="43.26893" lon="6.04201">
        <ele>686.04</ele>
        <time>2017-05-04T10:36:10Z</time>
      </trkpt>
      <trkpt lat="43.26892" lon="6.04201">
        <ele>686.04</ele>
        <time>2017-05-04T10:36:40Z</time>
      </trkpt>
      <trkpt lat="43.26892" lon="6.04201">
        <ele>686.04</ele>
        <time>2017-05-04T10:37:09Z</time>
      </trkpt>
      <trkpt lat="43.26893" lon="6.04201">
        <ele>686.04</ele>
        <time>2017-05-04T10:37:31Z</time>
      </trkpt>
      <trkpt lat="43.26893" lon="6.04201">
        <ele>686.04</ele>
        <time>2017-05-04T10:37:50Z</time>
      </trkpt>
      <trkpt lat="43.26894" lon="6.04202">
        <ele>687.48</ele>
        <time>2017-05-04T10:38:03Z</time>
      </trkpt>
      <trkpt lat="43.26894" lon="6.04202">
        <ele>687.48</ele>
        <time>2017-05-04T10:38:35Z</time>
      </trkpt>
      <trkpt lat="43.26895" lon="6.04202">
        <ele>687.48</ele>
        <time>2017-05-04T10:39:06Z</time>
      </trkpt>
      <trkpt lat="43.26896" lon="6.04205">
        <ele>687.48</ele>
        <time>2017-05-04T10:39:20Z</time>
      </trkpt>
      <trkpt lat="43.26895" lon="6.04206">
        <ele>687.96</ele>
        <time>2017-05-04T10:39:49Z</time>
      </trkpt>
      <trkpt lat="43.26895" lon="6.04206">
        <ele>687.48</ele>
        <time>2017-05-04T10:40:12Z</time>
      </trkpt>
      <trkpt lat="43.26895" lon="6.04205">
        <ele>687</ele>
        <time>2017-05-04T10:40:38Z</time>
      </trkpt>
      <trkpt lat="43.26896" lon="6.04205">
        <ele>687.48</ele>
        <time>2017-05-04T10:41:01Z</time>
      </trkpt>
      <trkpt lat="43.26896" lon="6.04205">
        <ele>687</ele>
        <time>2017-05-04T10:41:27Z</time>
      </trkpt>
      <trkpt lat="43.26896" lon="6.04205">
        <ele>687</ele>
        <time>2017-05-04T10:41:46Z</time>
      </trkpt>
      <trkpt lat="43.26896" lon="6.04204">
        <ele>687</ele>
        <time>2017-05-04T10:41:55Z</time>
      </trkpt>
      <trkpt lat="43.26896" lon="6.04204">
        <ele>687.48</ele>
        <time>2017-05-04T10:42:13Z</time>
      </trkpt>
      <trkpt lat="43.26896" lon="6.04204">
        <ele>685.56</ele>
        <time>2017-05-04T10:42:41Z</time>
      </trkpt>
      <trkpt lat="43.26895" lon="6.04203">
        <ele>686.52</ele>
        <time>2017-05-04T10:43:05Z</time>
      </trkpt>
      <trkpt lat="43.26895" lon="6.04202">
        <ele>687</ele>
        <time>2017-05-04T10:43:23Z</time>
      </trkpt>
      <trkpt lat="43.26894" lon="6.04201">
        <ele>687</ele>
        <time>2017-05-04T10:43:37Z</time>
      </trkpt>
      <trkpt lat="43.26894" lon="6.042">
        <ele>686.52</ele>
        <time>2017-05-04T10:43:54Z</time>
      </trkpt>
      <trkpt lat="43.26893" lon="6.04199">
        <ele>687</ele>
        <time>2017-05-04T10:44:10Z</time>
      </trkpt>
      <trkpt lat="43.26893" lon="6.04199">
        <ele>686.52</ele>
        <time>2017-05-04T10:44:29Z</time>
      </trkpt>
      <trkpt lat="43.26892" lon="6.04199">
        <ele>686.04</ele>
        <time>2017-05-04T10:44:44Z</time>
      </trkpt>
      <trkpt lat="43.26892" lon="6.04199">
        <ele>686.04</ele>
        <time>2017-05-04T10:45:06Z</time>
      </trkpt>
      <trkpt lat="43.26892" lon="6.04199">
        <ele>686.04</ele>
        <time>2017-05-04T10:45:22Z</time>
      </trkpt>
      <trkpt lat="43.26892" lon="6.042">
        <ele>686.52</ele>
        <time>2017-05-04T10:45:40Z</time>
      </trkpt>
      <trkpt lat="43.26893" lon="6.04199">
        <ele>686.52</ele>
        <time>2017-05-04T10:45:59Z</time>
      </trkpt>
      <trkpt lat="43.26892" lon="6.04199">
        <ele>686.04</ele>
        <time>2017-05-04T10:46:14Z</time>
      </trkpt>
      <trkpt lat="43.26892" lon="6.04199">
        <ele>686.04</ele>
        <time>2017-05-04T10:46:22Z</time>
      </trkpt>
      <trkpt lat="43.26889" lon="6.04209">
        <ele>685.08</ele>
        <time>2017-05-04T10:46:35Z</time>
      </trkpt>
      <trkpt lat="43.26895" lon="6.04213">
        <ele>685.08</ele>
        <time>2017-05-04T10:46:47Z</time>
      </trkpt>
      <trkpt lat="43.26898" lon="6.04217">
        <ele>685.08</ele>
        <time>2017-05-04T10:46:51Z</time>
      </trkpt>
      <trkpt lat="43.26901" lon="6.04222">
        <ele>685.08</ele>
        <time>2017-05-04T10:46:57Z</time>
      </trkpt>
      <trkpt lat="43.26902" lon="6.04226">
        <ele>684.6</ele>
        <time>2017-05-04T10:47:00Z</time>
      </trkpt>
      <trkpt lat="43.26904" lon="6.04227">
        <ele>684.6</ele>
        <time>2017-05-04T10:47:02Z</time>
      </trkpt>
      <trkpt lat="43.26905" lon="6.04231">
        <ele>684.6</ele>
        <time>2017-05-04T10:47:05Z</time>
      </trkpt>
      <trkpt lat="43.26903" lon="6.04237">
        <ele>683.63</ele>
        <time>2017-05-04T10:47:09Z</time>
      </trkpt>
      <trkpt lat="43.26905" lon="6.04244">
        <ele>683.15</ele>
        <time>2017-05-04T10:47:14Z</time>
      </trkpt>
      <trkpt lat="43.26905" lon="6.04247">
        <ele>683.15</ele>
        <time>2017-05-04T10:47:16Z</time>
      </trkpt>
      <trkpt lat="43.26908" lon="6.04254">
        <ele>682.67</ele>
        <time>2017-05-04T10:47:21Z</time>
      </trkpt>
      <trkpt lat="43.26912" lon="6.04256">
        <ele>682.19</ele>
        <time>2017-05-04T10:47:25Z</time>
      </trkpt>
      <trkpt lat="43.26921" lon="6.04259">
        <ele>681.71</ele>
        <time>2017-05-04T10:47:34Z</time>
      </trkpt>
      <trkpt lat="43.26935" lon="6.04262">
        <ele>682.67</ele>
        <time>2017-05-04T10:47:49Z</time>
      </trkpt>
      <trkpt lat="43.26937" lon="6.04264">
        <ele>682.67</ele>
        <time>2017-05-04T10:47:51Z</time>
      </trkpt>
      <trkpt lat="43.26951" lon="6.04272">
        <ele>683.15</ele>
        <time>2017-05-04T10:48:05Z</time>
      </trkpt>
      <trkpt lat="43.26952" lon="6.04274">
        <ele>683.15</ele>
        <time>2017-05-04T10:48:07Z</time>
      </trkpt>
      <trkpt lat="43.26959" lon="6.04278">
        <ele>683.15</ele>
        <time>2017-05-04T10:48:15Z</time>
      </trkpt>
      <trkpt lat="43.26971" lon="6.04282">
        <ele>684.6</ele>
        <time>2017-05-04T10:48:30Z</time>
      </trkpt>
      <trkpt lat="43.26975" lon="6.04284">
        <ele>685.08</ele>
        <time>2017-05-04T10:48:35Z</time>
      </trkpt>
      <trkpt lat="43.26985" lon="6.04291">
        <ele>685.08</ele>
        <time>2017-05-04T10:48:49Z</time>
      </trkpt>
      <trkpt lat="43.26989" lon="6.04297">
        <ele>684.6</ele>
        <time>2017-05-04T10:48:55Z</time>
      </trkpt>
      <trkpt lat="43.26991" lon="6.04301">
        <ele>684.6</ele>
        <time>2017-05-04T10:48:58Z</time>
      </trkpt>
      <trkpt lat="43.26993" lon="6.04302">
        <ele>684.6</ele>
        <time>2017-05-04T10:49:00Z</time>
      </trkpt>
      <trkpt lat="43.26999" lon="6.0431">
        <ele>684.12</ele>
        <time>2017-05-04T10:49:08Z</time>
      </trkpt>
      <trkpt lat="43.27" lon="6.04311">
        <ele>684.12</ele>
        <time>2017-05-04T10:49:10Z</time>
      </trkpt>
      <trkpt lat="43.27003" lon="6.04315">
        <ele>684.12</ele>
        <time>2017-05-04T10:49:14Z</time>
      </trkpt>
      <trkpt lat="43.27011" lon="6.04323">
        <ele>684.12</ele>
        <time>2017-05-04T10:49:26Z</time>
      </trkpt>
      <trkpt lat="43.27014" lon="6.04327">
        <ele>683.63</ele>
        <time>2017-05-04T10:49:38Z</time>
      </trkpt>
      <trkpt lat="43.27016" lon="6.04329">
        <ele>683.63</ele>
        <time>2017-05-04T10:49:50Z</time>
      </trkpt>
      <trkpt lat="43.27017" lon="6.04331">
        <ele>683.63</ele>
        <time>2017-05-04T10:49:52Z</time>
      </trkpt>
      <trkpt lat="43.27023" lon="6.04342">
        <ele>683.15</ele>
        <time>2017-05-04T10:50:05Z</time>
      </trkpt>
      <trkpt lat="43.2703" lon="6.04347">
        <ele>682.67</ele>
        <time>2017-05-04T10:50:17Z</time>
      </trkpt>
      <trkpt lat="43.27034" lon="6.04345">
        <ele>683.15</ele>
        <time>2017-05-04T10:50:21Z</time>
      </trkpt>
      <trkpt lat="43.27042" lon="6.04352">
        <ele>683.15</ele>
        <time>2017-05-04T10:50:32Z</time>
      </trkpt>
      <trkpt lat="43.27044" lon="6.04354">
        <ele>683.15</ele>
        <time>2017-05-04T10:50:36Z</time>
      </trkpt>
      <trkpt lat="43.2705" lon="6.04356">
        <ele>682.19</ele>
        <time>2017-05-04T10:50:42Z</time>
      </trkpt>
      <trkpt lat="43.27058" lon="6.04368">
        <ele>682.19</ele>
        <time>2017-05-04T10:50:53Z</time>
      </trkpt>
      <trkpt lat="43.27062" lon="6.0437">
        <ele>681.71</ele>
        <time>2017-05-04T10:50:57Z</time>
      </trkpt>
      <trkpt lat="43.27068" lon="6.04377">
        <ele>681.71</ele>
        <time>2017-05-04T10:51:04Z</time>
      </trkpt>
      <trkpt lat="43.27073" lon="6.04381">
        <ele>680.27</ele>
        <time>2017-05-04T10:51:10Z</time>
      </trkpt>
      <trkpt lat="43.27078" lon="6.04383">
        <ele>680.75</ele>
        <time>2017-05-04T10:51:16Z</time>
      </trkpt>
      <trkpt lat="43.2708" lon="6.04384">
        <ele>680.75</ele>
        <time>2017-05-04T10:51:18Z</time>
      </trkpt>
      <trkpt lat="43.27086" lon="6.04388">
        <ele>681.71</ele>
        <time>2017-05-04T10:51:32Z</time>
      </trkpt>
      <trkpt lat="43.2709" lon="6.04393">
        <ele>680.75</ele>
        <time>2017-05-04T10:51:47Z</time>
      </trkpt>
      <trkpt lat="43.27093" lon="6.04395">
        <ele>680.27</ele>
        <time>2017-05-04T10:51:50Z</time>
      </trkpt>
      <trkpt lat="43.27102" lon="6.04396">
        <ele>680.27</ele>
        <time>2017-05-04T10:52:00Z</time>
      </trkpt>
      <trkpt lat="43.27108" lon="6.04391">
        <ele>680.27</ele>
        <time>2017-05-04T10:52:13Z</time>
      </trkpt>
      <trkpt lat="43.27116" lon="6.04392">
        <ele>678.83</ele>
        <time>2017-05-04T10:52:26Z</time>
      </trkpt>
      <trkpt lat="43.27117" lon="6.04392">
        <ele>678.35</ele>
        <time>2017-05-04T10:52:30Z</time>
      </trkpt>
      <trkpt lat="43.27128" lon="6.04395">
        <ele>676.91</ele>
        <time>2017-05-04T10:52:42Z</time>
      </trkpt>
      <trkpt lat="43.27138" lon="6.04393">
        <ele>675.46</ele>
        <time>2017-05-04T10:52:54Z</time>
      </trkpt>
      <trkpt lat="43.27146" lon="6.04394">
        <ele>674.02</ele>
        <time>2017-05-04T10:53:05Z</time>
      </trkpt>
      <trkpt lat="43.27152" lon="6.04398">
        <ele>672.1</ele>
        <time>2017-05-04T10:53:17Z</time>
      </trkpt>
      <trkpt lat="43.27153" lon="6.04399">
        <ele>671.14</ele>
        <time>2017-05-04T10:53:27Z</time>
      </trkpt>
      <trkpt lat="43.27159" lon="6.04401">
        <ele>669.7</ele>
        <time>2017-05-04T10:53:39Z</time>
      </trkpt>
      <trkpt lat="43.27168" lon="6.04406">
        <ele>666.81</ele>
        <time>2017-05-04T10:53:51Z</time>
      </trkpt>
      <trkpt lat="43.27183" lon="6.04401">
        <ele>664.89</ele>
        <time>2017-05-04T10:54:04Z</time>
      </trkpt>
      <trkpt lat="43.27191" lon="6.0441">
        <ele>662.49</ele>
        <time>2017-05-04T10:54:17Z</time>
      </trkpt>
      <trkpt lat="43.27202" lon="6.0441">
        <ele>660.56</ele>
        <time>2017-05-04T10:54:29Z</time>
      </trkpt>
      <trkpt lat="43.27207" lon="6.04408">
        <ele>658.64</ele>
        <time>2017-05-04T10:54:41Z</time>
      </trkpt>
      <trkpt lat="43.27211" lon="6.04407">
        <ele>657.68</ele>
        <time>2017-05-04T10:54:51Z</time>
      </trkpt>
      <trkpt lat="43.27217" lon="6.0441">
        <ele>655.28</ele>
        <time>2017-05-04T10:55:04Z</time>
      </trkpt>
      <trkpt lat="43.27219" lon="6.04412">
        <ele>654.8</ele>
        <time>2017-05-04T10:55:07Z</time>
      </trkpt>
      <trkpt lat="43.27229" lon="6.04419">
        <ele>652.87</ele>
        <time>2017-05-04T10:55:18Z</time>
      </trkpt>
      <trkpt lat="43.27236" lon="6.04423">
        <ele>651.91</ele>
        <time>2017-05-04T10:55:25Z</time>
      </trkpt>
      <trkpt lat="43.27238" lon="6.04426">
        <ele>651.43</ele>
        <time>2017-05-04T10:55:28Z</time>
      </trkpt>
      <trkpt lat="43.27245" lon="6.04434">
        <ele>649.99</ele>
        <time>2017-05-04T10:55:40Z</time>
      </trkpt>
      <trkpt lat="43.27248" lon="6.04439">
        <ele>649.03</ele>
        <time>2017-05-04T10:55:45Z</time>
      </trkpt>
      <trkpt lat="43.27256" lon="6.04441">
        <ele>647.59</ele>
        <time>2017-05-04T10:55:57Z</time>
      </trkpt>
      <trkpt lat="43.27264" lon="6.0445">
        <ele>646.62</ele>
        <time>2017-05-04T10:56:06Z</time>
      </trkpt>
      <trkpt lat="43.27268" lon="6.04454">
        <ele>646.62</ele>
        <time>2017-05-04T10:56:10Z</time>
      </trkpt>
      <trkpt lat="43.2727" lon="6.04456">
        <ele>646.62</ele>
        <time>2017-05-04T10:56:13Z</time>
      </trkpt>
      <trkpt lat="43.2728" lon="6.04463">
        <ele>644.7</ele>
        <time>2017-05-04T10:56:25Z</time>
      </trkpt>
      <trkpt lat="43.27286" lon="6.04468">
        <ele>644.22</ele>
        <time>2017-05-04T10:56:32Z</time>
      </trkpt>
      <trkpt lat="43.27295" lon="6.04468">
        <ele>642.3</ele>
        <time>2017-05-04T10:56:44Z</time>
      </trkpt>
      <trkpt lat="43.27298" lon="6.04469">
        <ele>641.34</ele>
        <time>2017-05-04T10:56:50Z</time>
      </trkpt>
      <trkpt lat="43.27301" lon="6.04471">
        <ele>640.86</ele>
        <time>2017-05-04T10:56:53Z</time>
      </trkpt>
      <trkpt lat="43.27307" lon="6.04476">
        <ele>640.86</ele>
        <time>2017-05-04T10:57:00Z</time>
      </trkpt>
      <trkpt lat="43.27313" lon="6.04484">
        <ele>639.89</ele>
        <time>2017-05-04T10:57:11Z</time>
      </trkpt>
      <trkpt lat="43.27315" lon="6.04485">
        <ele>639.41</ele>
        <time>2017-05-04T10:57:14Z</time>
      </trkpt>
      <trkpt lat="43.27322" lon="6.04483">
        <ele>637.97</ele>
        <time>2017-05-04T10:57:26Z</time>
      </trkpt>
      <trkpt lat="43.27324" lon="6.04484">
        <ele>636.53</ele>
        <time>2017-05-04T10:57:35Z</time>
      </trkpt>
      <trkpt lat="43.27333" lon="6.04483">
        <ele>634.61</ele>
        <time>2017-05-04T10:57:48Z</time>
      </trkpt>
      <trkpt lat="43.27342" lon="6.04484">
        <ele>632.68</ele>
        <time>2017-05-04T10:58:00Z</time>
      </trkpt>
      <trkpt lat="43.27356" lon="6.04485">
        <ele>630.76</ele>
        <time>2017-05-04T10:58:14Z</time>
      </trkpt>
      <trkpt lat="43.27367" lon="6.0449">
        <ele>628.84</ele>
        <time>2017-05-04T10:58:26Z</time>
      </trkpt>
      <trkpt lat="43.27376" lon="6.04497">
        <ele>627.4</ele>
        <time>2017-05-04T10:58:39Z</time>
      </trkpt>
      <trkpt lat="43.27383" lon="6.04505">
        <ele>625.96</ele>
        <time>2017-05-04T10:58:49Z</time>
      </trkpt>
      <trkpt lat="43.27392" lon="6.04507">
        <ele>624.51</ele>
        <time>2017-05-04T10:59:02Z</time>
      </trkpt>
      <trkpt lat="43.27399" lon="6.04513">
        <ele>622.59</ele>
        <time>2017-05-04T10:59:14Z</time>
      </trkpt>
      <trkpt lat="43.27406" lon="6.04527">
        <ele>621.15</ele>
        <time>2017-05-04T10:59:27Z</time>
      </trkpt>
      <trkpt lat="43.27415" lon="6.04529">
        <ele>619.71</ele>
        <time>2017-05-04T10:59:39Z</time>
      </trkpt>
      <trkpt lat="43.27425" lon="6.04536">
        <ele>617.78</ele>
        <time>2017-05-04T10:59:53Z</time>
      </trkpt>
      <trkpt lat="43.27432" lon="6.04544">
        <ele>615.86</ele>
        <time>2017-05-04T11:00:05Z</time>
      </trkpt>
      <trkpt lat="43.27435" lon="6.04547">
        <ele>615.38</ele>
        <time>2017-05-04T11:00:09Z</time>
      </trkpt>
      <trkpt lat="43.27444" lon="6.04554">
        <ele>614.42</ele>
        <time>2017-05-04T11:00:21Z</time>
      </trkpt>
      <trkpt lat="43.27453" lon="6.04563">
        <ele>613.46</ele>
        <time>2017-05-04T11:00:34Z</time>
      </trkpt>
      <trkpt lat="43.27463" lon="6.04572">
        <ele>612.02</ele>
        <time>2017-05-04T11:00:49Z</time>
      </trkpt>
      <trkpt lat="43.2747" lon="6.04575">
        <ele>611.06</ele>
        <time>2017-05-04T11:00:57Z</time>
      </trkpt>
      <trkpt lat="43.27477" lon="6.04579">
        <ele>610.09</ele>
        <time>2017-05-04T11:01:08Z</time>
      </trkpt>
      <trkpt lat="43.27484" lon="6.04587">
        <ele>609.13</ele>
        <time>2017-05-04T11:01:20Z</time>
      </trkpt>
      <trkpt lat="43.27491" lon="6.04589">
        <ele>607.69</ele>
        <time>2017-05-04T11:01:32Z</time>
      </trkpt>
      <trkpt lat="43.27501" lon="6.04596">
        <ele>606.73</ele>
        <time>2017-05-04T11:01:43Z</time>
      </trkpt>
      <trkpt lat="43.27512" lon="6.04594">
        <ele>605.29</ele>
        <time>2017-05-04T11:01:57Z</time>
      </trkpt>
      <trkpt lat="43.27518" lon="6.04598">
        <ele>604.81</ele>
        <time>2017-05-04T11:02:06Z</time>
      </trkpt>
      <trkpt lat="43.27526" lon="6.04602">
        <ele>603.36</ele>
        <time>2017-05-04T11:02:18Z</time>
      </trkpt>
      <trkpt lat="43.27538" lon="6.04603">
        <ele>601.92</ele>
        <time>2017-05-04T11:02:32Z</time>
      </trkpt>
      <trkpt lat="43.27548" lon="6.04608">
        <ele>600.96</ele>
        <time>2017-05-04T11:02:45Z</time>
      </trkpt>
      <trkpt lat="43.27559" lon="6.04615">
        <ele>600</ele>
        <time>2017-05-04T11:02:59Z</time>
      </trkpt>
      <trkpt lat="43.27566" lon="6.04623">
        <ele>599.04</ele>
        <time>2017-05-04T11:03:10Z</time>
      </trkpt>
      <trkpt lat="43.27571" lon="6.0463">
        <ele>598.08</ele>
        <time>2017-05-04T11:03:18Z</time>
      </trkpt>
      <trkpt lat="43.27577" lon="6.04634">
        <ele>598.08</ele>
        <time>2017-05-04T11:03:30Z</time>
      </trkpt>
      <trkpt lat="43.27578" lon="6.04636">
        <ele>597.6</ele>
        <time>2017-05-04T11:03:42Z</time>
      </trkpt>
      <trkpt lat="43.27579" lon="6.04637">
        <ele>597.12</ele>
        <time>2017-05-04T11:03:54Z</time>
      </trkpt>
      <trkpt lat="43.2758" lon="6.04638">
        <ele>597.12</ele>
        <time>2017-05-04T11:04:13Z</time>
      </trkpt>
      <trkpt lat="43.2758" lon="6.04638">
        <ele>597.12</ele>
        <time>2017-05-04T11:04:30Z</time>
      </trkpt>
      <trkpt lat="43.2758" lon="6.04639">
        <ele>597.12</ele>
        <time>2017-05-04T11:04:55Z</time>
      </trkpt>
      <trkpt lat="43.2758" lon="6.0464">
        <ele>597.6</ele>
        <time>2017-05-04T11:05:26Z</time>
      </trkpt>
      <trkpt lat="43.2758" lon="6.0464">
        <ele>597.6</ele>
        <time>2017-05-04T11:05:52Z</time>
      </trkpt>
      <trkpt lat="43.27583" lon="6.0464">
        <ele>597.6</ele>
        <time>2017-05-04T11:06:14Z</time>
      </trkpt>
      <trkpt lat="43.27592" lon="6.0464">
        <ele>596.64</ele>
        <time>2017-05-04T11:06:25Z</time>
      </trkpt>
      <trkpt lat="43.27598" lon="6.04651">
        <ele>595.19</ele>
        <time>2017-05-04T11:06:37Z</time>
      </trkpt>
      <trkpt lat="43.27604" lon="6.04661">
        <ele>593.75</ele>
        <time>2017-05-04T11:06:49Z</time>
      </trkpt>
      <trkpt lat="43.27611" lon="6.04668">
        <ele>591.83</ele>
        <time>2017-05-04T11:07:02Z</time>
      </trkpt>
      <trkpt lat="43.27619" lon="6.04674">
        <ele>590.39</ele>
        <time>2017-05-04T11:07:14Z</time>
      </trkpt>
      <trkpt lat="43.27628" lon="6.0468">
        <ele>588.46</ele>
        <time>2017-05-04T11:07:26Z</time>
      </trkpt>
      <trkpt lat="43.27629" lon="6.0468">
        <ele>588.46</ele>
        <time>2017-05-04T11:07:27Z</time>
      </trkpt>
      <trkpt lat="43.27639" lon="6.04681">
        <ele>587.98</ele>
        <time>2017-05-04T11:07:38Z</time>
      </trkpt>
      <trkpt lat="43.27638" lon="6.04686">
        <ele>587.98</ele>
        <time>2017-05-04T11:07:51Z</time>
      </trkpt>
      <trkpt lat="43.27639" lon="6.04698">
        <ele>588.46</ele>
        <time>2017-05-04T11:08:05Z</time>
      </trkpt>
      <trkpt lat="43.27639" lon="6.04707">
        <ele>589.43</ele>
        <time>2017-05-04T11:08:17Z</time>
      </trkpt>
      <trkpt lat="43.27642" lon="6.04711">
        <ele>590.39</ele>
        <time>2017-05-04T11:08:22Z</time>
      </trkpt>
      <trkpt lat="43.27651" lon="6.04721">
        <ele>592.31</ele>
        <time>2017-05-04T11:08:37Z</time>
      </trkpt>
      <trkpt lat="43.27656" lon="6.04729">
        <ele>593.75</ele>
        <time>2017-05-04T11:08:50Z</time>
      </trkpt>
      <trkpt lat="43.27661" lon="6.04735">
        <ele>595.19</ele>
        <time>2017-05-04T11:08:59Z</time>
      </trkpt>
      <trkpt lat="43.27663" lon="6.04736">
        <ele>595.19</ele>
        <time>2017-05-04T11:09:01Z</time>
      </trkpt>
      <trkpt lat="43.27671" lon="6.04742">
        <ele>596.64</ele>
        <time>2017-05-04T11:09:14Z</time>
      </trkpt>
      <trkpt lat="43.27671" lon="6.04744">
        <ele>597.12</ele>
        <time>2017-05-04T11:09:16Z</time>
      </trkpt>
      <trkpt lat="43.27676" lon="6.04751">
        <ele>598.08</ele>
        <time>2017-05-04T11:09:28Z</time>
      </trkpt>
      <trkpt lat="43.27681" lon="6.04761">
        <ele>600</ele>
        <time>2017-05-04T11:09:39Z</time>
      </trkpt>
      <trkpt lat="43.27686" lon="6.04766">
        <ele>600.48</ele>
        <time>2017-05-04T11:09:46Z</time>
      </trkpt>
      <trkpt lat="43.27689" lon="6.04777">
        <ele>602.4</ele>
        <time>2017-05-04T11:09:59Z</time>
      </trkpt>
      <trkpt lat="43.27689" lon="6.0478">
        <ele>603.36</ele>
        <time>2017-05-04T11:10:03Z</time>
      </trkpt>
      <trkpt lat="43.27696" lon="6.04787">
        <ele>605.29</ele>
        <time>2017-05-04T11:10:15Z</time>
      </trkpt>
      <trkpt lat="43.27699" lon="6.048">
        <ele>606.73</ele>
        <time>2017-05-04T11:10:27Z</time>
      </trkpt>
      <trkpt lat="43.27706" lon="6.04809">
        <ele>608.65</ele>
        <time>2017-05-04T11:10:41Z</time>
      </trkpt>
      <trkpt lat="43.27712" lon="6.0482">
        <ele>610.09</ele>
        <time>2017-05-04T11:10:55Z</time>
      </trkpt>
      <trkpt lat="43.27717" lon="6.04829">
        <ele>612.5</ele>
        <time>2017-05-04T11:11:08Z</time>
      </trkpt>
      <trkpt lat="43.27715" lon="6.0484">
        <ele>614.42</ele>
        <time>2017-05-04T11:11:21Z</time>
      </trkpt>
      <trkpt lat="43.27713" lon="6.04843">
        <ele>614.9</ele>
        <time>2017-05-04T11:11:24Z</time>
      </trkpt>
      <trkpt lat="43.2771" lon="6.04848">
        <ele>616.82</ele>
        <time>2017-05-04T11:11:38Z</time>
      </trkpt>
      <trkpt lat="43.27713" lon="6.04855">
        <ele>618.26</ele>
        <time>2017-05-04T11:11:48Z</time>
      </trkpt>
      <trkpt lat="43.27714" lon="6.04863">
        <ele>620.19</ele>
        <time>2017-05-04T11:12:01Z</time>
      </trkpt>
      <trkpt lat="43.27714" lon="6.04873">
        <ele>622.11</ele>
        <time>2017-05-04T11:12:14Z</time>
      </trkpt>
      <trkpt lat="43.2771" lon="6.04881">
        <ele>623.55</ele>
        <time>2017-05-04T11:12:24Z</time>
      </trkpt>
      <trkpt lat="43.2771" lon="6.04884">
        <ele>623.55</ele>
        <time>2017-05-04T11:12:26Z</time>
      </trkpt>
      <trkpt lat="43.27705" lon="6.04893">
        <ele>624.99</ele>
        <time>2017-05-04T11:12:37Z</time>
      </trkpt>
      <trkpt lat="43.27707" lon="6.04897">
        <ele>625.47</ele>
        <time>2017-05-04T11:12:42Z</time>
      </trkpt>
      <trkpt lat="43.27712" lon="6.04902">
        <ele>626.92</ele>
        <time>2017-05-04T11:12:54Z</time>
      </trkpt>
      <trkpt lat="43.27714" lon="6.04911">
        <ele>628.36</ele>
        <time>2017-05-04T11:13:07Z</time>
      </trkpt>
      <trkpt lat="43.27715" lon="6.04926">
        <ele>630.28</ele>
        <time>2017-05-04T11:13:22Z</time>
      </trkpt>
      <trkpt lat="43.27718" lon="6.04936">
        <ele>631.72</ele>
        <time>2017-05-04T11:13:35Z</time>
      </trkpt>
      <trkpt lat="43.27719" lon="6.04942">
        <ele>632.68</ele>
        <time>2017-05-04T11:13:41Z</time>
      </trkpt>
      <trkpt lat="43.27726" lon="6.04964">
        <ele>635.57</ele>
        <time>2017-05-04T11:13:53Z</time>
      </trkpt>
      <trkpt lat="43.27728" lon="6.04976">
        <ele>637.49</ele>
        <time>2017-05-04T11:14:06Z</time>
      </trkpt>
      <trkpt lat="43.27731" lon="6.04988">
        <ele>638.93</ele>
        <time>2017-05-04T11:14:15Z</time>
      </trkpt>
      <trkpt lat="43.27734" lon="6.05">
        <ele>639.89</ele>
        <time>2017-05-04T11:14:24Z</time>
      </trkpt>
      <trkpt lat="43.27734" lon="6.05003">
        <ele>640.38</ele>
        <time>2017-05-04T11:14:26Z</time>
      </trkpt>
      <trkpt lat="43.27737" lon="6.05016">
        <ele>641.82</ele>
        <time>2017-05-04T11:14:36Z</time>
      </trkpt>
      <trkpt lat="43.2774" lon="6.05024">
        <ele>642.3</ele>
        <time>2017-05-04T11:14:44Z</time>
      </trkpt>
      <trkpt lat="43.27743" lon="6.05027">
        <ele>642.3</ele>
        <time>2017-05-04T11:14:58Z</time>
      </trkpt>
      <trkpt lat="43.27746" lon="6.05028">
        <ele>642.78</ele>
        <time>2017-05-04T11:15:14Z</time>
      </trkpt>
      <trkpt lat="43.27746" lon="6.05028">
        <ele>642.78</ele>
        <time>2017-05-04T11:15:19Z</time>
      </trkpt>
      <trkpt lat="43.27753" lon="6.05032">
        <ele>642.78</ele>
        <time>2017-05-04T11:15:28Z</time>
      </trkpt>
      <trkpt lat="43.27765" lon="6.05038">
        <ele>642.3</ele>
        <time>2017-05-04T11:15:40Z</time>
      </trkpt>
      <trkpt lat="43.27768" lon="6.0504">
        <ele>641.82</ele>
        <time>2017-05-04T11:15:43Z</time>
      </trkpt>
      <trkpt lat="43.27769" lon="6.05042">
        <ele>641.82</ele>
        <time>2017-05-04T11:15:45Z</time>
      </trkpt>
      <trkpt lat="43.27774" lon="6.05046">
        <ele>641.82</ele>
        <time>2017-05-04T11:15:51Z</time>
      </trkpt>
      <trkpt lat="43.2778" lon="6.05054">
        <ele>641.34</ele>
        <time>2017-05-04T11:16:02Z</time>
      </trkpt>
      <trkpt lat="43.27786" lon="6.05058">
        <ele>640.86</ele>
        <time>2017-05-04T11:16:12Z</time>
      </trkpt>
      <trkpt lat="43.27788" lon="6.05062">
        <ele>640.86</ele>
        <time>2017-05-04T11:16:15Z</time>
      </trkpt>
      <trkpt lat="43.27793" lon="6.05071">
        <ele>640.86</ele>
        <time>2017-05-04T11:16:22Z</time>
      </trkpt>
      <trkpt lat="43.27796" lon="6.05075">
        <ele>640.86</ele>
        <time>2017-05-04T11:16:27Z</time>
      </trkpt>
      <trkpt lat="43.27801" lon="6.05085">
        <ele>640.86</ele>
        <time>2017-05-04T11:16:36Z</time>
      </trkpt>
      <trkpt lat="43.27801" lon="6.0509">
        <ele>640.38</ele>
        <time>2017-05-04T11:16:40Z</time>
      </trkpt>
      <trkpt lat="43.27804" lon="6.05097">
        <ele>640.86</ele>
        <time>2017-05-04T11:16:45Z</time>
      </trkpt>
      <trkpt lat="43.27811" lon="6.05101">
        <ele>640.38</ele>
        <time>2017-05-04T11:16:53Z</time>
      </trkpt>
      <trkpt lat="43.27813" lon="6.05109">
        <ele>640.38</ele>
        <time>2017-05-04T11:16:59Z</time>
      </trkpt>
      <trkpt lat="43.27814" lon="6.05114">
        <ele>640.86</ele>
        <time>2017-05-04T11:17:02Z</time>
      </trkpt>
      <trkpt lat="43.27817" lon="6.05126">
        <ele>640.86</ele>
        <time>2017-05-04T11:17:12Z</time>
      </trkpt>
      <trkpt lat="43.2782" lon="6.0513">
        <ele>641.34</ele>
        <time>2017-05-04T11:17:16Z</time>
      </trkpt>
      <trkpt lat="43.27828" lon="6.05136">
        <ele>641.34</ele>
        <time>2017-05-04T11:17:28Z</time>
      </trkpt>
      <trkpt lat="43.27829" lon="6.05138">
        <ele>641.34</ele>
        <time>2017-05-04T11:17:43Z</time>
      </trkpt>
      <trkpt lat="43.27829" lon="6.05138">
        <ele>641.82</ele>
        <time>2017-05-04T11:17:58Z</time>
      </trkpt>
      <trkpt lat="43.27829" lon="6.05138">
        <ele>640.86</ele>
        <time>2017-05-04T11:18:14Z</time>
      </trkpt>
      <trkpt lat="43.27829" lon="6.05139">
        <ele>642.3</ele>
        <time>2017-05-04T11:18:33Z</time>
      </trkpt>
      <trkpt lat="43.27833" lon="6.05141">
        <ele>641.82</ele>
        <time>2017-05-04T11:18:43Z</time>
      </trkpt>
      <trkpt lat="43.27838" lon="6.05144">
        <ele>642.3</ele>
        <time>2017-05-04T11:18:48Z</time>
      </trkpt>
      <trkpt lat="43.27838" lon="6.05147">
        <ele>642.3</ele>
        <time>2017-05-04T11:18:50Z</time>
      </trkpt>
      <trkpt lat="43.27845" lon="6.05149">
        <ele>642.3</ele>
        <time>2017-05-04T11:19:03Z</time>
      </trkpt>
      <trkpt lat="43.27847" lon="6.05151">
        <ele>641.82</ele>
        <time>2017-05-04T11:19:07Z</time>
      </trkpt>
      <trkpt lat="43.27857" lon="6.05156">
        <ele>641.82</ele>
        <time>2017-05-04T11:19:18Z</time>
      </trkpt>
      <trkpt lat="43.27861" lon="6.05158">
        <ele>641.82</ele>
        <time>2017-05-04T11:19:32Z</time>
      </trkpt>
      <trkpt lat="43.27869" lon="6.05157">
        <ele>640.86</ele>
        <time>2017-05-04T11:19:42Z</time>
      </trkpt>
      <trkpt lat="43.27873" lon="6.05159">
        <ele>640.38</ele>
        <time>2017-05-04T11:19:56Z</time>
      </trkpt>
      <trkpt lat="43.27877" lon="6.0516">
        <ele>640.38</ele>
        <time>2017-05-04T11:20:03Z</time>
      </trkpt>
      <trkpt lat="43.27881" lon="6.05159">
        <ele>639.41</ele>
        <time>2017-05-04T11:20:07Z</time>
      </trkpt>
      <trkpt lat="43.27888" lon="6.05155">
        <ele>637.97</ele>
        <time>2017-05-04T11:20:16Z</time>
      </trkpt>
      <trkpt lat="43.27898" lon="6.05148">
        <ele>635.09</ele>
        <time>2017-05-04T11:20:29Z</time>
      </trkpt>
      <trkpt lat="43.27899" lon="6.05148">
        <ele>635.09</ele>
        <time>2017-05-04T11:20:30Z</time>
      </trkpt>
      <trkpt lat="43.27905" lon="6.05152">
        <ele>634.61</ele>
        <time>2017-05-04T11:20:36Z</time>
      </trkpt>
      <trkpt lat="43.27911" lon="6.0516">
        <ele>635.09</ele>
        <time>2017-05-04T11:20:44Z</time>
      </trkpt>
      <trkpt lat="43.27911" lon="6.05162">
        <ele>635.09</ele>
        <time>2017-05-04T11:20:46Z</time>
      </trkpt>
      <trkpt lat="43.27914" lon="6.05165">
        <ele>635.57</ele>
        <time>2017-05-04T11:20:49Z</time>
      </trkpt>
      <trkpt lat="43.27919" lon="6.05167">
        <ele>635.57</ele>
        <time>2017-05-04T11:20:54Z</time>
      </trkpt>
      <trkpt lat="43.27921" lon="6.05172">
        <ele>636.05</ele>
        <time>2017-05-04T11:20:59Z</time>
      </trkpt>
      <trkpt lat="43.27921" lon="6.05174">
        <ele>636.05</ele>
        <time>2017-05-04T11:21:01Z</time>
      </trkpt>
      <trkpt lat="43.2793" lon="6.05184">
        <ele>636.53</ele>
        <time>2017-05-04T11:21:15Z</time>
      </trkpt>
      <trkpt lat="43.2794" lon="6.0519">
        <ele>636.05</ele>
        <time>2017-05-04T11:21:28Z</time>
      </trkpt>
      <trkpt lat="43.27943" lon="6.05191">
        <ele>636.05</ele>
        <time>2017-05-04T11:21:32Z</time>
      </trkpt>
      <trkpt lat="43.27955" lon="6.05194">
        <ele>634.13</ele>
        <time>2017-05-04T11:21:45Z</time>
      </trkpt>
      <trkpt lat="43.27963" lon="6.052">
        <ele>633.17</ele>
        <time>2017-05-04T11:21:56Z</time>
      </trkpt>
      <trkpt lat="43.27969" lon="6.05201">
        <ele>632.2</ele>
        <time>2017-05-04T11:22:02Z</time>
      </trkpt>
      <trkpt lat="43.27972" lon="6.05203">
        <ele>631.72</ele>
        <time>2017-05-04T11:22:05Z</time>
      </trkpt>
      <trkpt lat="43.27975" lon="6.05207">
        <ele>631.72</ele>
        <time>2017-05-04T11:22:09Z</time>
      </trkpt>
      <trkpt lat="43.27978" lon="6.05209">
        <ele>631.24</ele>
        <time>2017-05-04T11:22:12Z</time>
      </trkpt>
      <trkpt lat="43.27979" lon="6.05212">
        <ele>631.72</ele>
        <time>2017-05-04T11:22:14Z</time>
      </trkpt>
      <trkpt lat="43.27983" lon="6.05217">
        <ele>631.24</ele>
        <time>2017-05-04T11:22:19Z</time>
      </trkpt>
      <trkpt lat="43.27989" lon="6.05222">
        <ele>630.28</ele>
        <time>2017-05-04T11:22:27Z</time>
      </trkpt>
      <trkpt lat="43.28001" lon="6.05229">
        <ele>628.84</ele>
        <time>2017-05-04T11:22:40Z</time>
      </trkpt>
      <trkpt lat="43.28002" lon="6.0523">
        <ele>628.36</ele>
        <time>2017-05-04T11:22:42Z</time>
      </trkpt>
      <trkpt lat="43.28007" lon="6.05237">
        <ele>628.36</ele>
        <time>2017-05-04T11:22:48Z</time>
      </trkpt>
      <trkpt lat="43.28014" lon="6.0524">
        <ele>626.92</ele>
        <time>2017-05-04T11:22:58Z</time>
      </trkpt>
      <trkpt lat="43.28015" lon="6.05242">
        <ele>626.92</ele>
        <time>2017-05-04T11:23:00Z</time>
      </trkpt>
      <trkpt lat="43.28017" lon="6.05247">
        <ele>626.92</ele>
        <time>2017-05-04T11:23:04Z</time>
      </trkpt>
      <trkpt lat="43.28025" lon="6.05251">
        <ele>624.99</ele>
        <time>2017-05-04T11:23:16Z</time>
      </trkpt>
      <trkpt lat="43.28025" lon="6.05251">
        <ele>624.51</ele>
        <time>2017-05-04T11:23:17Z</time>
      </trkpt>
      <trkpt lat="43.28027" lon="6.05249">
        <ele>624.51</ele>
        <time>2017-05-04T11:23:20Z</time>
      </trkpt>
      <trkpt lat="43.28032" lon="6.05245">
        <ele>622.59</ele>
        <time>2017-05-04T11:23:32Z</time>
      </trkpt>
      <trkpt lat="43.28045" lon="6.0525">
        <ele>620.19</ele>
        <time>2017-05-04T11:23:45Z</time>
      </trkpt>
      <trkpt lat="43.28047" lon="6.05251">
        <ele>619.23</ele>
        <time>2017-05-04T11:23:49Z</time>
      </trkpt>
      <trkpt lat="43.2805" lon="6.05253">
        <ele>619.23</ele>
        <time>2017-05-04T11:23:52Z</time>
      </trkpt>
      <trkpt lat="43.28052" lon="6.05255">
        <ele>619.23</ele>
        <time>2017-05-04T11:23:54Z</time>
      </trkpt>
      <trkpt lat="43.28059" lon="6.05257">
        <ele>617.3</ele>
        <time>2017-05-04T11:24:03Z</time>
      </trkpt>
      <trkpt lat="43.28062" lon="6.05258">
        <ele>616.34</ele>
        <time>2017-05-04T11:24:06Z</time>
      </trkpt>
      <trkpt lat="43.28072" lon="6.05264">
        <ele>614.42</ele>
        <time>2017-05-04T11:24:20Z</time>
      </trkpt>
      <trkpt lat="43.28079" lon="6.05272">
        <ele>612.02</ele>
        <time>2017-05-04T11:24:32Z</time>
      </trkpt>
      <trkpt lat="43.2809" lon="6.05279">
        <ele>610.09</ele>
        <time>2017-05-04T11:24:44Z</time>
      </trkpt>
      <trkpt lat="43.28101" lon="6.05286">
        <ele>608.65</ele>
        <time>2017-05-04T11:24:55Z</time>
      </trkpt>
      <trkpt lat="43.28109" lon="6.05291">
        <ele>607.21</ele>
        <time>2017-05-04T11:25:05Z</time>
      </trkpt>
      <trkpt lat="43.28112" lon="6.05297">
        <ele>606.73</ele>
        <time>2017-05-04T11:25:10Z</time>
      </trkpt>
      <trkpt lat="43.28114" lon="6.05298">
        <ele>606.73</ele>
        <time>2017-05-04T11:25:12Z</time>
      </trkpt>
      <trkpt lat="43.28119" lon="6.05302">
        <ele>606.73</ele>
        <time>2017-05-04T11:25:17Z</time>
      </trkpt>
      <trkpt lat="43.28123" lon="6.05304">
        <ele>606.25</ele>
        <time>2017-05-04T11:25:20Z</time>
      </trkpt>
      <trkpt lat="43.28125" lon="6.05307">
        <ele>606.25</ele>
        <time>2017-05-04T11:25:24Z</time>
      </trkpt>
      <trkpt lat="43.28134" lon="6.05312">
        <ele>604.81</ele>
        <time>2017-05-04T11:25:33Z</time>
      </trkpt>
      <trkpt lat="43.28135" lon="6.05315">
        <ele>604.33</ele>
        <time>2017-05-04T11:25:35Z</time>
      </trkpt>
      <trkpt lat="43.28148" lon="6.05324">
        <ele>602.4</ele>
        <time>2017-05-04T11:25:49Z</time>
      </trkpt>
      <trkpt lat="43.28154" lon="6.05331">
        <ele>601.44</ele>
        <time>2017-05-04T11:25:58Z</time>
      </trkpt>
      <trkpt lat="43.2816" lon="6.05333">
        <ele>600.96</ele>
        <time>2017-05-04T11:26:02Z</time>
      </trkpt>
      <trkpt lat="43.28172" lon="6.05344">
        <ele>599.52</ele>
        <time>2017-05-04T11:26:15Z</time>
      </trkpt>
      <trkpt lat="43.28174" lon="6.0535">
        <ele>599.04</ele>
        <time>2017-05-04T11:26:20Z</time>
      </trkpt>
      <trkpt lat="43.2818" lon="6.05364">
        <ele>599.04</ele>
        <time>2017-05-04T11:26:29Z</time>
      </trkpt>
      <trkpt lat="43.28186" lon="6.05367">
        <ele>598.56</ele>
        <time>2017-05-04T11:26:35Z</time>
      </trkpt>
      <trkpt lat="43.28189" lon="6.05369">
        <ele>597.6</ele>
        <time>2017-05-04T11:26:39Z</time>
      </trkpt>
      <trkpt lat="43.28201" lon="6.05379">
        <ele>596.15</ele>
        <time>2017-05-04T11:26:53Z</time>
      </trkpt>
      <trkpt lat="43.28202" lon="6.0538">
        <ele>596.15</ele>
        <time>2017-05-04T11:26:54Z</time>
      </trkpt>
      <trkpt lat="43.28208" lon="6.05392">
        <ele>595.19</ele>
        <time>2017-05-04T11:27:05Z</time>
      </trkpt>
      <trkpt lat="43.28219" lon="6.05405">
        <ele>593.27</ele>
        <time>2017-05-04T11:27:19Z</time>
      </trkpt>
      <trkpt lat="43.28229" lon="6.05408">
        <ele>591.83</ele>
        <time>2017-05-04T11:27:31Z</time>
      </trkpt>
      <trkpt lat="43.28235" lon="6.05413">
        <ele>589.91</ele>
        <time>2017-05-04T11:27:44Z</time>
      </trkpt>
      <trkpt lat="43.28239" lon="6.05407">
        <ele>588.95</ele>
        <time>2017-05-04T11:27:50Z</time>
      </trkpt>
      <trkpt lat="43.28244" lon="6.05406">
        <ele>588.95</ele>
        <time>2017-05-04T11:27:54Z</time>
      </trkpt>
      <trkpt lat="43.28247" lon="6.05409">
        <ele>588.46</ele>
        <time>2017-05-04T11:27:57Z</time>
      </trkpt>
      <trkpt lat="43.28258" lon="6.05413">
        <ele>587.98</ele>
        <time>2017-05-04T11:28:04Z</time>
      </trkpt>
      <trkpt lat="43.28268" lon="6.05424">
        <ele>587.98</ele>
        <time>2017-05-04T11:28:14Z</time>
      </trkpt>
      <trkpt lat="43.28272" lon="6.0543">
        <ele>587.98</ele>
        <time>2017-05-04T11:28:19Z</time>
      </trkpt>
      <trkpt lat="43.28277" lon="6.05436">
        <ele>588.46</ele>
        <time>2017-05-04T11:28:25Z</time>
      </trkpt>
      <trkpt lat="43.28284" lon="6.05452">
        <ele>590.39</ele>
        <time>2017-05-04T11:28:40Z</time>
      </trkpt>
      <trkpt lat="43.28291" lon="6.05457">
        <ele>590.87</ele>
        <time>2017-05-04T11:28:54Z</time>
      </trkpt>
      <trkpt lat="43.28295" lon="6.05467">
        <ele>592.31</ele>
        <time>2017-05-04T11:29:05Z</time>
      </trkpt>
      <trkpt lat="43.28301" lon="6.05478">
        <ele>594.71</ele>
        <time>2017-05-04T11:29:17Z</time>
      </trkpt>
      <trkpt lat="43.28305" lon="6.05489">
        <ele>597.12</ele>
        <time>2017-05-04T11:29:31Z</time>
      </trkpt>
      <trkpt lat="43.28307" lon="6.05494">
        <ele>598.08</ele>
        <time>2017-05-04T11:29:36Z</time>
      </trkpt>
      <trkpt lat="43.28314" lon="6.05504">
        <ele>600</ele>
        <time>2017-05-04T11:29:47Z</time>
      </trkpt>
      <trkpt lat="43.28323" lon="6.05513">
        <ele>602.4</ele>
        <time>2017-05-04T11:30:00Z</time>
      </trkpt>
      <trkpt lat="43.28324" lon="6.05519">
        <ele>603.85</ele>
        <time>2017-05-04T11:30:06Z</time>
      </trkpt>
      <trkpt lat="43.28325" lon="6.05521">
        <ele>603.85</ele>
        <time>2017-05-04T11:30:08Z</time>
      </trkpt>
      <trkpt lat="43.2833" lon="6.05527">
        <ele>605.77</ele>
        <time>2017-05-04T11:30:17Z</time>
      </trkpt>
      <trkpt lat="43.28337" lon="6.05533">
        <ele>606.73</ele>
        <time>2017-05-04T11:30:30Z</time>
      </trkpt>
      <trkpt lat="43.28344" lon="6.05543">
        <ele>608.65</ele>
        <time>2017-05-04T11:30:40Z</time>
      </trkpt>
      <trkpt lat="43.28351" lon="6.0555">
        <ele>610.57</ele>
        <time>2017-05-04T11:30:49Z</time>
      </trkpt>
      <trkpt lat="43.28356" lon="6.05551">
        <ele>611.06</ele>
        <time>2017-05-04T11:30:53Z</time>
      </trkpt>
      <trkpt lat="43.28361" lon="6.05564">
        <ele>613.46</ele>
        <time>2017-05-04T11:31:05Z</time>
      </trkpt>
      <trkpt lat="43.28362" lon="6.05575">
        <ele>616.34</ele>
        <time>2017-05-04T11:31:17Z</time>
      </trkpt>
      <trkpt lat="43.28362" lon="6.05578">
        <ele>617.3</ele>
        <time>2017-05-04T11:31:20Z</time>
      </trkpt>
      <trkpt lat="43.28362" lon="6.05583">
        <ele>618.26</ele>
        <time>2017-05-04T11:31:24Z</time>
      </trkpt>
      <trkpt lat="43.28363" lon="6.05593">
        <ele>619.71</ele>
        <time>2017-05-04T11:31:31Z</time>
      </trkpt>
      <trkpt lat="43.28363" lon="6.05605">
        <ele>622.59</ele>
        <time>2017-05-04T11:31:45Z</time>
      </trkpt>
      <trkpt lat="43.28363" lon="6.05605">
        <ele>622.11</ele>
        <time>2017-05-04T11:32:00Z</time>
      </trkpt>
      <trkpt lat="43.28364" lon="6.05606">
        <ele>622.11</ele>
        <time>2017-05-04T11:32:19Z</time>
      </trkpt>
      <trkpt lat="43.28364" lon="6.05605">
        <ele>623.07</ele>
        <time>2017-05-04T11:32:37Z</time>
      </trkpt>
      <trkpt lat="43.28364" lon="6.05605">
        <ele>623.07</ele>
        <time>2017-05-04T11:32:57Z</time>
      </trkpt>
      <trkpt lat="43.28364" lon="6.05606">
        <ele>623.07</ele>
        <time>2017-05-04T11:33:26Z</time>
      </trkpt>
      <trkpt lat="43.28363" lon="6.05606">
        <ele>623.55</ele>
        <time>2017-05-04T11:33:56Z</time>
      </trkpt>
      <trkpt lat="43.28363" lon="6.05606">
        <ele>623.55</ele>
        <time>2017-05-04T11:34:17Z</time>
      </trkpt>
      <trkpt lat="43.28364" lon="6.05606">
        <ele>623.55</ele>
        <time>2017-05-04T11:34:40Z</time>
      </trkpt>
      <trkpt lat="43.28364" lon="6.05606">
        <ele>623.55</ele>
        <time>2017-05-04T11:34:59Z</time>
      </trkpt>
      <trkpt lat="43.28366" lon="6.05606">
        <ele>623.55</ele>
        <time>2017-05-04T11:35:20Z</time>
      </trkpt>
      <trkpt lat="43.28369" lon="6.05607">
        <ele>624.03</ele>
        <time>2017-05-04T11:35:23Z</time>
      </trkpt>
      <trkpt lat="43.28373" lon="6.05617">
        <ele>626.44</ele>
        <time>2017-05-04T11:35:35Z</time>
      </trkpt>
      <trkpt lat="43.28377" lon="6.0563">
        <ele>629.32</ele>
        <time>2017-05-04T11:35:47Z</time>
      </trkpt>
      <trkpt lat="43.28383" lon="6.0564">
        <ele>631.72</ele>
        <time>2017-05-04T11:35:59Z</time>
      </trkpt>
      <trkpt lat="43.28383" lon="6.05653">
        <ele>635.09</ele>
        <time>2017-05-04T11:36:13Z</time>
      </trkpt>
      <trkpt lat="43.28384" lon="6.05666">
        <ele>637.49</ele>
        <time>2017-05-04T11:36:24Z</time>
      </trkpt>
      <trkpt lat="43.28383" lon="6.05679">
        <ele>640.38</ele>
        <time>2017-05-04T11:36:37Z</time>
      </trkpt>
      <trkpt lat="43.28384" lon="6.05691">
        <ele>642.78</ele>
        <time>2017-05-04T11:36:49Z</time>
      </trkpt>
      <trkpt lat="43.28384" lon="6.05695">
        <ele>643.26</ele>
        <time>2017-05-04T11:36:52Z</time>
      </trkpt>
      <trkpt lat="43.28384" lon="6.05698">
        <ele>643.74</ele>
        <time>2017-05-04T11:36:54Z</time>
      </trkpt>
      <trkpt lat="43.28382" lon="6.0571">
        <ele>646.62</ele>
        <time>2017-05-04T11:37:07Z</time>
      </trkpt>
      <trkpt lat="43.28386" lon="6.05716">
        <ele>648.07</ele>
        <time>2017-05-04T11:37:14Z</time>
      </trkpt>
      <trkpt lat="43.28389" lon="6.05718">
        <ele>648.55</ele>
        <time>2017-05-04T11:37:17Z</time>
      </trkpt>
      <trkpt lat="43.2839" lon="6.05731">
        <ele>650.95</ele>
        <time>2017-05-04T11:37:29Z</time>
      </trkpt>
      <trkpt lat="43.28396" lon="6.05739">
        <ele>652.39</ele>
        <time>2017-05-04T11:37:40Z</time>
      </trkpt>
      <trkpt lat="43.284" lon="6.05751">
        <ele>655.28</ele>
        <time>2017-05-04T11:37:53Z</time>
      </trkpt>
      <trkpt lat="43.28406" lon="6.0576">
        <ele>657.2</ele>
        <time>2017-05-04T11:38:04Z</time>
      </trkpt>
      <trkpt lat="43.28411" lon="6.05772">
        <ele>659.12</ele>
        <time>2017-05-04T11:38:16Z</time>
      </trkpt>
      <trkpt lat="43.28414" lon="6.05781">
        <ele>661.04</ele>
        <time>2017-05-04T11:38:26Z</time>
      </trkpt>
      <trkpt lat="43.28418" lon="6.05791">
        <ele>663.93</ele>
        <time>2017-05-04T11:38:36Z</time>
      </trkpt>
      <trkpt lat="43.28419" lon="6.05795">
        <ele>664.41</ele>
        <time>2017-05-04T11:38:39Z</time>
      </trkpt>
      <trkpt lat="43.28431" lon="6.05804">
        <ele>667.29</ele>
        <time>2017-05-04T11:38:51Z</time>
      </trkpt>
      <trkpt lat="43.2844" lon="6.0582">
        <ele>670.18</ele>
        <time>2017-05-04T11:39:04Z</time>
      </trkpt>
      <trkpt lat="43.28445" lon="6.05836">
        <ele>673.06</ele>
        <time>2017-05-04T11:39:16Z</time>
      </trkpt>
      <trkpt lat="43.28446" lon="6.05837">
        <ele>673.54</ele>
        <time>2017-05-04T11:39:18Z</time>
      </trkpt>
      <trkpt lat="43.28448" lon="6.05837">
        <ele>674.02</ele>
        <time>2017-05-04T11:39:20Z</time>
      </trkpt>
      <trkpt lat="43.28461" lon="6.05849">
        <ele>676.42</ele>
        <time>2017-05-04T11:39:33Z</time>
      </trkpt>
      <trkpt lat="43.28476" lon="6.05855">
        <ele>678.35</ele>
        <time>2017-05-04T11:39:46Z</time>
      </trkpt>
      <trkpt lat="43.28485" lon="6.05864">
        <ele>680.75</ele>
        <time>2017-05-04T11:39:58Z</time>
      </trkpt>
      <trkpt lat="43.28492" lon="6.0587">
        <ele>681.23</ele>
        <time>2017-05-04T11:40:06Z</time>
      </trkpt>
      <trkpt lat="43.28497" lon="6.05874">
        <ele>682.19</ele>
        <time>2017-05-04T11:40:10Z</time>
      </trkpt>
      <trkpt lat="43.28507" lon="6.05886">
        <ele>683.63</ele>
        <time>2017-05-04T11:40:21Z</time>
      </trkpt>
      <trkpt lat="43.28511" lon="6.05887">
        <ele>684.12</ele>
        <time>2017-05-04T11:40:27Z</time>
      </trkpt>
      <trkpt lat="43.28525" lon="6.05897">
        <ele>686.04</ele>
        <time>2017-05-04T11:40:39Z</time>
      </trkpt>
      <trkpt lat="43.28527" lon="6.059">
        <ele>686.04</ele>
        <time>2017-05-04T11:40:42Z</time>
      </trkpt>
      <trkpt lat="43.28531" lon="6.05903">
        <ele>686.52</ele>
        <time>2017-05-04T11:40:46Z</time>
      </trkpt>
      <trkpt lat="43.28537" lon="6.05903">
        <ele>687.96</ele>
        <time>2017-05-04T11:40:50Z</time>
      </trkpt>
      <trkpt lat="43.28547" lon="6.05914">
        <ele>690.36</ele>
        <time>2017-05-04T11:41:04Z</time>
      </trkpt>
      <trkpt lat="43.28551" lon="6.05924">
        <ele>688.92</ele>
        <time>2017-05-04T11:41:18Z</time>
      </trkpt>
      <trkpt lat="43.28555" lon="6.05927">
        <ele>688.92</ele>
        <time>2017-05-04T11:41:45Z</time>
      </trkpt>
      <trkpt lat="43.28556" lon="6.05929">
        <ele>688.92</ele>
        <time>2017-05-04T11:42:15Z</time>
      </trkpt>
      <trkpt lat="43.28556" lon="6.05929">
        <ele>688.92</ele>
        <time>2017-05-04T11:42:42Z</time>
      </trkpt>
      <trkpt lat="43.28556" lon="6.05928">
        <ele>688.92</ele>
        <time>2017-05-04T11:43:17Z</time>
      </trkpt>
      <trkpt lat="43.28556" lon="6.05927">
        <ele>689.88</ele>
        <time>2017-05-04T11:43:50Z</time>
      </trkpt>
      <trkpt lat="43.28556" lon="6.05927">
        <ele>689.88</ele>
        <time>2017-05-04T11:44:15Z</time>
      </trkpt>
      <trkpt lat="43.28556" lon="6.05928">
        <ele>689.88</ele>
        <time>2017-05-04T11:44:45Z</time>
      </trkpt>
      <trkpt lat="43.28556" lon="6.05928">
        <ele>689.4</ele>
        <time>2017-05-04T11:45:13Z</time>
      </trkpt>
      <trkpt lat="43.28556" lon="6.05928">
        <ele>689.4</ele>
        <time>2017-05-04T11:45:45Z</time>
      </trkpt>
      <trkpt lat="43.28556" lon="6.05928">
        <ele>689.88</ele>
        <time>2017-05-04T11:46:15Z</time>
      </trkpt>
      <trkpt lat="43.28556" lon="6.05927">
        <ele>690.36</ele>
        <time>2017-05-04T11:46:45Z</time>
      </trkpt>
      <trkpt lat="43.28556" lon="6.05929">
        <ele>691.81</ele>
        <time>2017-05-04T11:47:08Z</time>
      </trkpt>
      <trkpt lat="43.28556" lon="6.05927">
        <ele>691.33</ele>
        <time>2017-05-04T11:47:35Z</time>
      </trkpt>
      <trkpt lat="43.28556" lon="6.05927">
        <ele>691.33</ele>
        <time>2017-05-04T11:47:51Z</time>
      </trkpt>
      <trkpt lat="43.28556" lon="6.05927">
        <ele>691.33</ele>
        <time>2017-05-04T11:48:09Z</time>
      </trkpt>
      <trkpt lat="43.28556" lon="6.05927">
        <ele>691.33</ele>
        <time>2017-05-04T11:48:28Z</time>
      </trkpt>
      <trkpt lat="43.28555" lon="6.05928">
        <ele>690.36</ele>
        <time>2017-05-04T11:48:45Z</time>
      </trkpt>
      <trkpt lat="43.28555" lon="6.05928">
        <ele>690.84</ele>
        <time>2017-05-04T11:49:16Z</time>
      </trkpt>
      <trkpt lat="43.28555" lon="6.05927">
        <ele>690.84</ele>
        <time>2017-05-04T11:49:47Z</time>
      </trkpt>
      <trkpt lat="43.28554" lon="6.05927">
        <ele>691.33</ele>
        <time>2017-05-04T11:50:15Z</time>
      </trkpt>
      <trkpt lat="43.28554" lon="6.05927">
        <ele>691.33</ele>
        <time>2017-05-04T11:50:47Z</time>
      </trkpt>
      <trkpt lat="43.28554" lon="6.05927">
        <ele>691.33</ele>
        <time>2017-05-04T11:51:15Z</time>
      </trkpt>
      <trkpt lat="43.28554" lon="6.05927">
        <ele>692.77</ele>
        <time>2017-05-04T11:51:41Z</time>
      </trkpt>
      <trkpt lat="43.28555" lon="6.05926">
        <ele>692.77</ele>
        <time>2017-05-04T11:51:59Z</time>
      </trkpt>
      <trkpt lat="43.28555" lon="6.05926">
        <ele>692.77</ele>
        <time>2017-05-04T11:52:14Z</time>
      </trkpt>
      <trkpt lat="43.28554" lon="6.05925">
        <ele>692.77</ele>
        <time>2017-05-04T11:52:31Z</time>
      </trkpt>
      <trkpt lat="43.28554" lon="6.05926">
        <ele>692.77</ele>
        <time>2017-05-04T11:52:44Z</time>
      </trkpt>
      <trkpt lat="43.28554" lon="6.05926">
        <ele>692.77</ele>
        <time>2017-05-04T11:53:12Z</time>
      </trkpt>
      <trkpt lat="43.28554" lon="6.05926">
        <ele>693.25</ele>
        <time>2017-05-04T11:53:30Z</time>
      </trkpt>
      <trkpt lat="43.28554" lon="6.05927">
        <ele>692.77</ele>
        <time>2017-05-04T11:53:56Z</time>
      </trkpt>
      <trkpt lat="43.28554" lon="6.05926">
        <ele>692.77</ele>
        <time>2017-05-04T11:54:19Z</time>
      </trkpt>
      <trkpt lat="43.28554" lon="6.05926">
        <ele>692.77</ele>
        <time>2017-05-04T11:54:33Z</time>
      </trkpt>
      <trkpt lat="43.28547" lon="6.05922">
        <ele>691.33</ele>
        <time>2017-05-04T11:54:47Z</time>
      </trkpt>
      <trkpt lat="43.28545" lon="6.05919">
        <ele>690.84</ele>
        <time>2017-05-04T11:54:50Z</time>
      </trkpt>
      <trkpt lat="43.28536" lon="6.05916">
        <ele>688.92</ele>
        <time>2017-05-04T11:55:03Z</time>
      </trkpt>
      <trkpt lat="43.28524" lon="6.05908">
        <ele>687.96</ele>
        <time>2017-05-04T11:55:17Z</time>
      </trkpt>
      <trkpt lat="43.28516" lon="6.05902">
        <ele>686.52</ele>
        <time>2017-05-04T11:55:28Z</time>
      </trkpt>
      <trkpt lat="43.28514" lon="6.05901">
        <ele>686.52</ele>
        <time>2017-05-04T11:55:32Z</time>
      </trkpt>
      <trkpt lat="43.28502" lon="6.05896">
        <ele>684.6</ele>
        <time>2017-05-04T11:55:48Z</time>
      </trkpt>
      <trkpt lat="43.28499" lon="6.05892">
        <ele>684.12</ele>
        <time>2017-05-04T11:55:52Z</time>
      </trkpt>
      <trkpt lat="43.2849" lon="6.05883">
        <ele>682.19</ele>
        <time>2017-05-04T11:56:05Z</time>
      </trkpt>
      <trkpt lat="43.28483" lon="6.05872">
        <ele>680.75</ele>
        <time>2017-05-04T11:56:18Z</time>
      </trkpt>
      <trkpt lat="43.28476" lon="6.05865">
        <ele>679.31</ele>
        <time>2017-05-04T11:56:30Z</time>
      </trkpt>
      <trkpt lat="43.28468" lon="6.05861">
        <ele>678.83</ele>
        <time>2017-05-04T11:56:37Z</time>
      </trkpt>
      <trkpt lat="43.28459" lon="6.05854">
        <ele>677.87</ele>
        <time>2017-05-04T11:56:47Z</time>
      </trkpt>
      <trkpt lat="43.28452" lon="6.05846">
        <ele>676.91</ele>
        <time>2017-05-04T11:56:57Z</time>
      </trkpt>
      <trkpt lat="43.28447" lon="6.05844">
        <ele>676.42</ele>
        <time>2017-05-04T11:57:03Z</time>
      </trkpt>
      <trkpt lat="43.28444" lon="6.05841">
        <ele>675.46</ele>
        <time>2017-05-04T11:57:07Z</time>
      </trkpt>
      <trkpt lat="43.28442" lon="6.0583">
        <ele>674.02</ele>
        <time>2017-05-04T11:57:18Z</time>
      </trkpt>
      <trkpt lat="43.28433" lon="6.05813">
        <ele>670.66</ele>
        <time>2017-05-04T11:57:35Z</time>
      </trkpt>
      <trkpt lat="43.28424" lon="6.05803">
        <ele>668.25</ele>
        <time>2017-05-04T11:57:49Z</time>
      </trkpt>
      <trkpt lat="43.28423" lon="6.05799">
        <ele>667.29</ele>
        <time>2017-05-04T11:57:54Z</time>
      </trkpt>
      <trkpt lat="43.28417" lon="6.05789">
        <ele>665.37</ele>
        <time>2017-05-04T11:58:06Z</time>
      </trkpt>
      <trkpt lat="43.28412" lon="6.05775">
        <ele>662.49</ele>
        <time>2017-05-04T11:58:21Z</time>
      </trkpt>
      <trkpt lat="43.28408" lon="6.05767">
        <ele>660.08</ele>
        <time>2017-05-04T11:58:31Z</time>
      </trkpt>
      <trkpt lat="43.28401" lon="6.05756">
        <ele>658.16</ele>
        <time>2017-05-04T11:58:42Z</time>
      </trkpt>
      <trkpt lat="43.28399" lon="6.05754">
        <ele>658.16</ele>
        <time>2017-05-04T11:58:57Z</time>
      </trkpt>
      <trkpt lat="43.28399" lon="6.05754">
        <ele>658.16</ele>
        <time>2017-05-04T11:58:59Z</time>
      </trkpt>
      <trkpt lat="43.28398" lon="6.05742">
        <ele>656.24</ele>
        <time>2017-05-04T11:59:12Z</time>
      </trkpt>
      <trkpt lat="43.28394" lon="6.05737">
        <ele>654.31</ele>
        <time>2017-05-04T11:59:21Z</time>
      </trkpt>
      <trkpt lat="43.28393" lon="6.05732">
        <ele>653.83</ele>
        <time>2017-05-04T11:59:26Z</time>
      </trkpt>
      <trkpt lat="43.28391" lon="6.05723">
        <ele>652.39</ele>
        <time>2017-05-04T11:59:34Z</time>
      </trkpt>
      <trkpt lat="43.2839" lon="6.05721">
        <ele>651.91</ele>
        <time>2017-05-04T11:59:36Z</time>
      </trkpt>
      <trkpt lat="43.28384" lon="6.05716">
        <ele>649.99</ele>
        <time>2017-05-04T11:59:45Z</time>
      </trkpt>
      <trkpt lat="43.28385" lon="6.05702">
        <ele>647.1</ele>
        <time>2017-05-04T11:59:59Z</time>
      </trkpt>
      <trkpt lat="43.28385" lon="6.05695">
        <ele>645.66</ele>
        <time>2017-05-04T12:00:06Z</time>
      </trkpt>
      <trkpt lat="43.28384" lon="6.05681">
        <ele>643.26</ele>
        <time>2017-05-04T12:00:19Z</time>
      </trkpt>
      <trkpt lat="43.28385" lon="6.05674">
        <ele>641.82</ele>
        <time>2017-05-04T12:00:29Z</time>
      </trkpt>
      <trkpt lat="43.28384" lon="6.05662">
        <ele>638.93</ele>
        <time>2017-05-04T12:00:42Z</time>
      </trkpt>
      <trkpt lat="43.28386" lon="6.0565">
        <ele>636.53</ele>
        <time>2017-05-04T12:00:56Z</time>
      </trkpt>
      <trkpt lat="43.28386" lon="6.0564">
        <ele>633.65</ele>
        <time>2017-05-04T12:01:07Z</time>
      </trkpt>
      <trkpt lat="43.28379" lon="6.05631">
        <ele>631.72</ele>
        <time>2017-05-04T12:01:18Z</time>
      </trkpt>
      <trkpt lat="43.28377" lon="6.05626">
        <ele>630.76</ele>
        <time>2017-05-04T12:01:21Z</time>
      </trkpt>
      <trkpt lat="43.28374" lon="6.05614">
        <ele>627.88</ele>
        <time>2017-05-04T12:01:30Z</time>
      </trkpt>
      <trkpt lat="43.28369" lon="6.05609">
        <ele>626.44</ele>
        <time>2017-05-04T12:01:36Z</time>
      </trkpt>
      <trkpt lat="43.28363" lon="6.05594">
        <ele>623.55</ele>
        <time>2017-05-04T12:01:49Z</time>
      </trkpt>
      <trkpt lat="43.28363" lon="6.05588">
        <ele>622.11</ele>
        <time>2017-05-04T12:01:56Z</time>
      </trkpt>
      <trkpt lat="43.28364" lon="6.05578">
        <ele>619.71</ele>
        <time>2017-05-04T12:02:01Z</time>
      </trkpt>
      <trkpt lat="43.28363" lon="6.05574">
        <ele>618.75</ele>
        <time>2017-05-04T12:02:03Z</time>
      </trkpt>
      <trkpt lat="43.28361" lon="6.05559">
        <ele>615.86</ele>
        <time>2017-05-04T12:02:15Z</time>
      </trkpt>
      <trkpt lat="43.28359" lon="6.05556">
        <ele>615.38</ele>
        <time>2017-05-04T12:02:18Z</time>
      </trkpt>
      <trkpt lat="43.28354" lon="6.05551">
        <ele>613.94</ele>
        <time>2017-05-04T12:02:23Z</time>
      </trkpt>
      <trkpt lat="43.2835" lon="6.05546">
        <ele>612.98</ele>
        <time>2017-05-04T12:02:28Z</time>
      </trkpt>
      <trkpt lat="43.28343" lon="6.05538">
        <ele>611.06</ele>
        <time>2017-05-04T12:02:40Z</time>
      </trkpt>
      <trkpt lat="43.28341" lon="6.05536">
        <ele>610.57</ele>
        <time>2017-05-04T12:02:42Z</time>
      </trkpt>
      <trkpt lat="43.28331" lon="6.05528">
        <ele>609.13</ele>
        <time>2017-05-04T12:02:55Z</time>
      </trkpt>
      <trkpt lat="43.28329" lon="6.05526">
        <ele>608.17</ele>
        <time>2017-05-04T12:02:59Z</time>
      </trkpt>
      <trkpt lat="43.28324" lon="6.05514">
        <ele>604.81</ele>
        <time>2017-05-04T12:03:11Z</time>
      </trkpt>
      <trkpt lat="43.28314" lon="6.05505">
        <ele>602.4</ele>
        <time>2017-05-04T12:03:24Z</time>
      </trkpt>
      <trkpt lat="43.28307" lon="6.05497">
        <ele>599.52</ele>
        <time>2017-05-04T12:03:36Z</time>
      </trkpt>
      <trkpt lat="43.28304" lon="6.05485">
        <ele>597.6</ele>
        <time>2017-05-04T12:03:45Z</time>
      </trkpt>
      <trkpt lat="43.28301" lon="6.05474">
        <ele>596.64</ele>
        <time>2017-05-04T12:03:52Z</time>
      </trkpt>
      <trkpt lat="43.283" lon="6.05472">
        <ele>596.15</ele>
        <time>2017-05-04T12:03:54Z</time>
      </trkpt>
      <trkpt lat="43.28293" lon="6.05457">
        <ele>593.27</ele>
        <time>2017-05-04T12:04:07Z</time>
      </trkpt>
      <trkpt lat="43.28281" lon="6.05446">
        <ele>591.35</ele>
        <time>2017-05-04T12:04:21Z</time>
      </trkpt>
      <trkpt lat="43.2828" lon="6.05443">
        <ele>591.35</ele>
        <time>2017-05-04T12:04:23Z</time>
      </trkpt>
      <trkpt lat="43.28279" lon="6.05437">
        <ele>590.87</ele>
        <time>2017-05-04T12:04:27Z</time>
      </trkpt>
      <trkpt lat="43.28268" lon="6.05421">
        <ele>589.91</ele>
        <time>2017-05-04T12:04:39Z</time>
      </trkpt>
      <trkpt lat="43.28255" lon="6.05407">
        <ele>589.91</ele>
        <time>2017-05-04T12:04:51Z</time>
      </trkpt>
      <trkpt lat="43.28251" lon="6.05406">
        <ele>589.91</ele>
        <time>2017-05-04T12:04:55Z</time>
      </trkpt>
      <trkpt lat="43.28243" lon="6.05411">
        <ele>592.79</ele>
        <time>2017-05-04T12:05:07Z</time>
      </trkpt>
      <trkpt lat="43.28232" lon="6.0541">
        <ele>594.71</ele>
        <time>2017-05-04T12:05:20Z</time>
      </trkpt>
      <trkpt lat="43.28227" lon="6.05408">
        <ele>595.19</ele>
        <time>2017-05-04T12:05:24Z</time>
      </trkpt>
      <trkpt lat="43.28214" lon="6.05395">
        <ele>596.15</ele>
        <time>2017-05-04T12:05:35Z</time>
      </trkpt>
      <trkpt lat="43.28209" lon="6.0539">
        <ele>597.12</ele>
        <time>2017-05-04T12:05:39Z</time>
      </trkpt>
      <trkpt lat="43.28205" lon="6.05384">
        <ele>597.6</ele>
        <time>2017-05-04T12:05:45Z</time>
      </trkpt>
      <trkpt lat="43.28201" lon="6.05379">
        <ele>598.08</ele>
        <time>2017-05-04T12:05:50Z</time>
      </trkpt>
      <trkpt lat="43.28187" lon="6.05369">
        <ele>600</ele>
        <time>2017-05-04T12:06:02Z</time>
      </trkpt>
      <trkpt lat="43.28178" lon="6.05358">
        <ele>601.44</ele>
        <time>2017-05-04T12:06:12Z</time>
      </trkpt>
      <trkpt lat="43.28171" lon="6.05346">
        <ele>601.44</ele>
        <time>2017-05-04T12:06:21Z</time>
      </trkpt>
      <trkpt lat="43.28169" lon="6.05345">
        <ele>601.44</ele>
        <time>2017-05-04T12:06:23Z</time>
      </trkpt>
      <trkpt lat="43.2816" lon="6.05338">
        <ele>602.4</ele>
        <time>2017-05-04T12:06:31Z</time>
      </trkpt>
      <trkpt lat="43.28149" lon="6.0533">
        <ele>603.85</ele>
        <time>2017-05-04T12:06:44Z</time>
      </trkpt>
      <trkpt lat="43.28138" lon="6.05323">
        <ele>605.29</ele>
        <time>2017-05-04T12:06:52Z</time>
      </trkpt>
      <trkpt lat="43.28133" lon="6.05316">
        <ele>605.77</ele>
        <time>2017-05-04T12:06:57Z</time>
      </trkpt>
      <trkpt lat="43.28131" lon="6.05316">
        <ele>606.25</ele>
        <time>2017-05-04T12:06:59Z</time>
      </trkpt>
      <trkpt lat="43.28121" lon="6.05309">
        <ele>607.69</ele>
        <time>2017-05-04T12:07:07Z</time>
      </trkpt>
      <trkpt lat="43.28113" lon="6.05298">
        <ele>609.13</ele>
        <time>2017-05-04T12:07:19Z</time>
      </trkpt>
      <trkpt lat="43.28099" lon="6.05284">
        <ele>611.54</ele>
        <time>2017-05-04T12:07:31Z</time>
      </trkpt>
      <trkpt lat="43.28091" lon="6.05276">
        <ele>612.5</ele>
        <time>2017-05-04T12:07:40Z</time>
      </trkpt>
      <trkpt lat="43.28078" lon="6.0527">
        <ele>615.86</ele>
        <time>2017-05-04T12:07:52Z</time>
      </trkpt>
      <trkpt lat="43.28064" lon="6.05261">
        <ele>618.26</ele>
        <time>2017-05-04T12:08:05Z</time>
      </trkpt>
      <trkpt lat="43.28061" lon="6.0526">
        <ele>619.23</ele>
        <time>2017-05-04T12:08:07Z</time>
      </trkpt>
      <trkpt lat="43.28049" lon="6.05253">
        <ele>621.63</ele>
        <time>2017-05-04T12:08:19Z</time>
      </trkpt>
      <trkpt lat="43.28044" lon="6.05251">
        <ele>622.59</ele>
        <time>2017-05-04T12:08:25Z</time>
      </trkpt>
      <trkpt lat="43.28041" lon="6.0525">
        <ele>623.55</ele>
        <time>2017-05-04T12:08:28Z</time>
      </trkpt>
      <trkpt lat="43.28036" lon="6.05248">
        <ele>625.47</ele>
        <time>2017-05-04T12:08:35Z</time>
      </trkpt>
      <trkpt lat="43.28029" lon="6.05252">
        <ele>625.96</ele>
        <time>2017-05-04T12:08:40Z</time>
      </trkpt>
      <trkpt lat="43.28018" lon="6.05249">
        <ele>628.36</ele>
        <time>2017-05-04T12:08:53Z</time>
      </trkpt>
      <trkpt lat="43.28017" lon="6.05245">
        <ele>627.88</ele>
        <time>2017-05-04T12:08:56Z</time>
      </trkpt>
      <trkpt lat="43.2801" lon="6.05241">
        <ele>629.8</ele>
        <time>2017-05-04T12:09:06Z</time>
      </trkpt>
      <trkpt lat="43.28008" lon="6.05239">
        <ele>629.8</ele>
        <time>2017-05-04T12:09:08Z</time>
      </trkpt>
      <trkpt lat="43.27996" lon="6.0523">
        <ele>630.76</ele>
        <time>2017-05-04T12:09:20Z</time>
      </trkpt>
      <trkpt lat="43.27994" lon="6.05229">
        <ele>631.72</ele>
        <time>2017-05-04T12:09:22Z</time>
      </trkpt>
      <trkpt lat="43.27992" lon="6.05227">
        <ele>631.72</ele>
        <time>2017-05-04T12:09:24Z</time>
      </trkpt>
      <trkpt lat="43.27986" lon="6.05222">
        <ele>632.68</ele>
        <time>2017-05-04T12:09:30Z</time>
      </trkpt>
      <trkpt lat="43.27983" lon="6.0522">
        <ele>632.68</ele>
        <time>2017-05-04T12:09:32Z</time>
      </trkpt>
      <trkpt lat="43.27977" lon="6.0521">
        <ele>633.17</ele>
        <time>2017-05-04T12:09:39Z</time>
      </trkpt>
      <trkpt lat="43.27958" lon="6.05205">
        <ele>636.05</ele>
        <time>2017-05-04T12:09:54Z</time>
      </trkpt>
      <trkpt lat="43.27956" lon="6.05204">
        <ele>636.53</ele>
        <time>2017-05-04T12:09:56Z</time>
      </trkpt>
      <trkpt lat="43.27951" lon="6.05201">
        <ele>637.01</ele>
        <time>2017-05-04T12:10:00Z</time>
      </trkpt>
      <trkpt lat="43.27943" lon="6.052">
        <ele>637.97</ele>
        <time>2017-05-04T12:10:06Z</time>
      </trkpt>
      <trkpt lat="43.27939" lon="6.05196">
        <ele>637.97</ele>
        <time>2017-05-04T12:10:10Z</time>
      </trkpt>
      <trkpt lat="43.27925" lon="6.05183">
        <ele>638.45</ele>
        <time>2017-05-04T12:10:24Z</time>
      </trkpt>
      <trkpt lat="43.27924" lon="6.05177">
        <ele>637.97</ele>
        <time>2017-05-04T12:10:27Z</time>
      </trkpt>
      <trkpt lat="43.27919" lon="6.05173">
        <ele>637.97</ele>
        <time>2017-05-04T12:10:31Z</time>
      </trkpt>
      <trkpt lat="43.27912" lon="6.0516">
        <ele>637.49</ele>
        <time>2017-05-04T12:10:40Z</time>
      </trkpt>
      <trkpt lat="43.27899" lon="6.0515">
        <ele>638.45</ele>
        <time>2017-05-04T12:10:52Z</time>
      </trkpt>
      <trkpt lat="43.27893" lon="6.05152">
        <ele>639.89</ele>
        <time>2017-05-04T12:10:57Z</time>
      </trkpt>
      <trkpt lat="43.27884" lon="6.05157">
        <ele>641.34</ele>
        <time>2017-05-04T12:11:04Z</time>
      </trkpt>
      <trkpt lat="43.27876" lon="6.05157">
        <ele>642.3</ele>
        <time>2017-05-04T12:11:10Z</time>
      </trkpt>
      <trkpt lat="43.27873" lon="6.05156">
        <ele>642.3</ele>
        <time>2017-05-04T12:11:12Z</time>
      </trkpt>
      <trkpt lat="43.2787" lon="6.05155">
        <ele>641.82</ele>
        <time>2017-05-04T12:11:14Z</time>
      </trkpt>
      <trkpt lat="43.27855" lon="6.05156">
        <ele>643.26</ele>
        <time>2017-05-04T12:11:27Z</time>
      </trkpt>
      <trkpt lat="43.27845" lon="6.05151">
        <ele>643.26</ele>
        <time>2017-05-04T12:11:37Z</time>
      </trkpt>
      <trkpt lat="43.27839" lon="6.05147">
        <ele>642.78</ele>
        <time>2017-05-04T12:11:41Z</time>
      </trkpt>
      <trkpt lat="43.27828" lon="6.0514">
        <ele>642.78</ele>
        <time>2017-05-04T12:11:51Z</time>
      </trkpt>
      <trkpt lat="43.27823" lon="6.05134">
        <ele>642.78</ele>
        <time>2017-05-04T12:11:55Z</time>
      </trkpt>
      <trkpt lat="43.2782" lon="6.05128">
        <ele>642.3</ele>
        <time>2017-05-04T12:12:00Z</time>
      </trkpt>
      <trkpt lat="43.27818" lon="6.05123">
        <ele>642.78</ele>
        <time>2017-05-04T12:12:03Z</time>
      </trkpt>
      <trkpt lat="43.27816" lon="6.0512">
        <ele>642.3</ele>
        <time>2017-05-04T12:12:05Z</time>
      </trkpt>
      <trkpt lat="43.27814" lon="6.05113">
        <ele>641.82</ele>
        <time>2017-05-04T12:12:10Z</time>
      </trkpt>
      <trkpt lat="43.27809" lon="6.05108">
        <ele>641.82</ele>
        <time>2017-05-04T12:12:15Z</time>
      </trkpt>
      <trkpt lat="43.27806" lon="6.05105">
        <ele>641.82</ele>
        <time>2017-05-04T12:12:17Z</time>
      </trkpt>
      <trkpt lat="43.27801" lon="6.05092">
        <ele>641.34</ele>
        <time>2017-05-04T12:12:25Z</time>
      </trkpt>
      <trkpt lat="43.27797" lon="6.05087">
        <ele>641.34</ele>
        <time>2017-05-04T12:12:29Z</time>
      </trkpt>
      <trkpt lat="43.2779" lon="6.05072">
        <ele>641.34</ele>
        <time>2017-05-04T12:12:36Z</time>
      </trkpt>
      <trkpt lat="43.27785" lon="6.05066">
        <ele>641.82</ele>
        <time>2017-05-04T12:12:41Z</time>
      </trkpt>
      <trkpt lat="43.27781" lon="6.05064">
        <ele>642.78</ele>
        <time>2017-05-04T12:12:45Z</time>
      </trkpt>
      <trkpt lat="43.27768" lon="6.05047">
        <ele>642.78</ele>
        <time>2017-05-04T12:12:57Z</time>
      </trkpt>
      <trkpt lat="43.27764" lon="6.05044">
        <ele>643.26</ele>
        <time>2017-05-04T12:13:00Z</time>
      </trkpt>
      <trkpt lat="43.27756" lon="6.05036">
        <ele>643.26</ele>
        <time>2017-05-04T12:13:07Z</time>
      </trkpt>
      <trkpt lat="43.27742" lon="6.05024">
        <ele>643.74</ele>
        <time>2017-05-04T12:13:19Z</time>
      </trkpt>
      <trkpt lat="43.2774" lon="6.05019">
        <ele>643.74</ele>
        <time>2017-05-04T12:13:22Z</time>
      </trkpt>
      <trkpt lat="43.27735" lon="6.05001">
        <ele>641.82</ele>
        <time>2017-05-04T12:13:32Z</time>
      </trkpt>
      <trkpt lat="43.27733" lon="6.04994">
        <ele>640.86</ele>
        <time>2017-05-04T12:13:36Z</time>
      </trkpt>
      <trkpt lat="43.27729" lon="6.04972">
        <ele>638.45</ele>
        <time>2017-05-04T12:13:50Z</time>
      </trkpt>
      <trkpt lat="43.27723" lon="6.04951">
        <ele>635.57</ele>
        <time>2017-05-04T12:14:05Z</time>
      </trkpt>
      <trkpt lat="43.27718" lon="6.04931">
        <ele>633.17</ele>
        <time>2017-05-04T12:14:21Z</time>
      </trkpt>
      <trkpt lat="43.27717" lon="6.04925">
        <ele>631.72</ele>
        <time>2017-05-04T12:14:26Z</time>
      </trkpt>
      <trkpt lat="43.27719" lon="6.04908">
        <ele>629.32</ele>
        <time>2017-05-04T12:14:38Z</time>
      </trkpt>
      <trkpt lat="43.27708" lon="6.049">
        <ele>627.4</ele>
        <time>2017-05-04T12:14:48Z</time>
      </trkpt>
      <trkpt lat="43.27709" lon="6.04891">
        <ele>626.92</ele>
        <time>2017-05-04T12:14:54Z</time>
      </trkpt>
      <trkpt lat="43.27714" lon="6.04879">
        <ele>624.51</ele>
        <time>2017-05-04T12:15:05Z</time>
      </trkpt>
      <trkpt lat="43.27713" lon="6.04876">
        <ele>623.55</ele>
        <time>2017-05-04T12:15:08Z</time>
      </trkpt>
      <trkpt lat="43.27713" lon="6.04859">
        <ele>619.71</ele>
        <time>2017-05-04T12:15:21Z</time>
      </trkpt>
      <trkpt lat="43.27715" lon="6.04846">
        <ele>616.82</ele>
        <time>2017-05-04T12:15:33Z</time>
      </trkpt>
      <trkpt lat="43.27718" lon="6.04841">
        <ele>615.38</ele>
        <time>2017-05-04T12:15:38Z</time>
      </trkpt>
      <trkpt lat="43.27718" lon="6.04831">
        <ele>612.5</ele>
        <time>2017-05-04T12:15:49Z</time>
      </trkpt>
      <trkpt lat="43.27715" lon="6.04825">
        <ele>611.06</ele>
        <time>2017-05-04T12:15:55Z</time>
      </trkpt>
      <trkpt lat="43.27713" lon="6.0482">
        <ele>609.61</ele>
        <time>2017-05-04T12:16:05Z</time>
      </trkpt>
      <trkpt lat="43.27709" lon="6.04813">
        <ele>608.17</ele>
        <time>2017-05-04T12:16:10Z</time>
      </trkpt>
      <trkpt lat="43.27702" lon="6.04805">
        <ele>607.21</ele>
        <time>2017-05-04T12:16:19Z</time>
      </trkpt>
      <trkpt lat="43.27702" lon="6.048">
        <ele>606.25</ele>
        <time>2017-05-04T12:16:22Z</time>
      </trkpt>
      <trkpt lat="43.27701" lon="6.04797">
        <ele>605.77</ele>
        <time>2017-05-04T12:16:24Z</time>
      </trkpt>
      <trkpt lat="43.27698" lon="6.04793">
        <ele>605.77</ele>
        <time>2017-05-04T12:16:28Z</time>
      </trkpt>
      <trkpt lat="43.27695" lon="6.04785">
        <ele>604.33</ele>
        <time>2017-05-04T12:16:34Z</time>
      </trkpt>
      <trkpt lat="43.27694" lon="6.04779">
        <ele>603.36</ele>
        <time>2017-05-04T12:16:38Z</time>
      </trkpt>
      <trkpt lat="43.27691" lon="6.04773">
        <ele>601.92</ele>
        <time>2017-05-04T12:16:42Z</time>
      </trkpt>
      <trkpt lat="43.27685" lon="6.04765">
        <ele>600.96</ele>
        <time>2017-05-04T12:16:49Z</time>
      </trkpt>
      <trkpt lat="43.27677" lon="6.04751">
        <ele>598.56</ele>
        <time>2017-05-04T12:17:00Z</time>
      </trkpt>
      <trkpt lat="43.27673" lon="6.04748">
        <ele>598.08</ele>
        <time>2017-05-04T12:17:04Z</time>
      </trkpt>
      <trkpt lat="43.27667" lon="6.0474">
        <ele>596.64</ele>
        <time>2017-05-04T12:17:12Z</time>
      </trkpt>
      <trkpt lat="43.27662" lon="6.04737">
        <ele>596.15</ele>
        <time>2017-05-04T12:17:17Z</time>
      </trkpt>
      <trkpt lat="43.27657" lon="6.04726">
        <ele>594.23</ele>
        <time>2017-05-04T12:17:25Z</time>
      </trkpt>
      <trkpt lat="43.27644" lon="6.04714">
        <ele>591.83</ele>
        <time>2017-05-04T12:17:38Z</time>
      </trkpt>
      <trkpt lat="43.27643" lon="6.04713">
        <ele>591.83</ele>
        <time>2017-05-04T12:17:39Z</time>
      </trkpt>
      <trkpt lat="43.27642" lon="6.0471">
        <ele>591.35</ele>
        <time>2017-05-04T12:17:41Z</time>
      </trkpt>
      <trkpt lat="43.2764" lon="6.04691">
        <ele>588.95</ele>
        <time>2017-05-04T12:17:53Z</time>
      </trkpt>
      <trkpt lat="43.27635" lon="6.04682">
        <ele>587.98</ele>
        <time>2017-05-04T12:18:01Z</time>
      </trkpt>
      <trkpt lat="43.27626" lon="6.04681">
        <ele>588.46</ele>
        <time>2017-05-04T12:18:09Z</time>
      </trkpt>
      <trkpt lat="43.27617" lon="6.04676">
        <ele>589.91</ele>
        <time>2017-05-04T12:18:17Z</time>
      </trkpt>
      <trkpt lat="43.27607" lon="6.04664">
        <ele>591.83</ele>
        <time>2017-05-04T12:18:27Z</time>
      </trkpt>
      <trkpt lat="43.27602" lon="6.04656">
        <ele>593.27</ele>
        <time>2017-05-04T12:18:33Z</time>
      </trkpt>
      <trkpt lat="43.27599" lon="6.04651">
        <ele>594.23</ele>
        <time>2017-05-04T12:18:37Z</time>
      </trkpt>
      <trkpt lat="43.27597" lon="6.04647">
        <ele>594.71</ele>
        <time>2017-05-04T12:18:40Z</time>
      </trkpt>
      <trkpt lat="43.27596" lon="6.04643">
        <ele>595.19</ele>
        <time>2017-05-04T12:18:42Z</time>
      </trkpt>
      <trkpt lat="43.27594" lon="6.04639">
        <ele>595.67</ele>
        <time>2017-05-04T12:18:45Z</time>
      </trkpt>
      <trkpt lat="43.27589" lon="6.04639">
        <ele>596.15</ele>
        <time>2017-05-04T12:18:49Z</time>
      </trkpt>
      <trkpt lat="43.27587" lon="6.04639">
        <ele>596.15</ele>
        <time>2017-05-04T12:18:51Z</time>
      </trkpt>
      <trkpt lat="43.27585" lon="6.04639">
        <ele>596.15</ele>
        <time>2017-05-04T12:18:53Z</time>
      </trkpt>
      <trkpt lat="43.27577" lon="6.04633">
        <ele>597.12</ele>
        <time>2017-05-04T12:19:00Z</time>
      </trkpt>
      <trkpt lat="43.27573" lon="6.04631">
        <ele>597.6</ele>
        <time>2017-05-04T12:19:03Z</time>
      </trkpt>
      <trkpt lat="43.27564" lon="6.04619">
        <ele>598.56</ele>
        <time>2017-05-04T12:19:13Z</time>
      </trkpt>
      <trkpt lat="43.27558" lon="6.04618">
        <ele>600</ele>
        <time>2017-05-04T12:19:18Z</time>
      </trkpt>
      <trkpt lat="43.27553" lon="6.04614">
        <ele>600</ele>
        <time>2017-05-04T12:19:23Z</time>
      </trkpt>
      <trkpt lat="43.27537" lon="6.04605">
        <ele>601.92</ele>
        <time>2017-05-04T12:19:37Z</time>
      </trkpt>
      <trkpt lat="43.27524" lon="6.04604">
        <ele>603.36</ele>
        <time>2017-05-04T12:19:49Z</time>
      </trkpt>
      <trkpt lat="43.27518" lon="6.04599">
        <ele>603.85</ele>
        <time>2017-05-04T12:19:55Z</time>
      </trkpt>
      <trkpt lat="43.27507" lon="6.04598">
        <ele>605.29</ele>
        <time>2017-05-04T12:20:04Z</time>
      </trkpt>
      <trkpt lat="43.27495" lon="6.0459">
        <ele>606.73</ele>
        <time>2017-05-04T12:20:14Z</time>
      </trkpt>
      <trkpt lat="43.27491" lon="6.04588">
        <ele>607.21</ele>
        <time>2017-05-04T12:20:18Z</time>
      </trkpt>
      <trkpt lat="43.27487" lon="6.04588">
        <ele>607.69</ele>
        <time>2017-05-04T12:20:22Z</time>
      </trkpt>
      <trkpt lat="43.27483" lon="6.04585">
        <ele>608.17</ele>
        <time>2017-05-04T12:20:26Z</time>
      </trkpt>
      <trkpt lat="43.2748" lon="6.04582">
        <ele>608.17</ele>
        <time>2017-05-04T12:20:29Z</time>
      </trkpt>
      <trkpt lat="43.27471" lon="6.04577">
        <ele>609.61</ele>
        <time>2017-05-04T12:20:37Z</time>
      </trkpt>
      <trkpt lat="43.27469" lon="6.04577">
        <ele>609.61</ele>
        <time>2017-05-04T12:20:39Z</time>
      </trkpt>
      <trkpt lat="43.2746" lon="6.04568">
        <ele>611.06</ele>
        <time>2017-05-04T12:20:51Z</time>
      </trkpt>
      <trkpt lat="43.27446" lon="6.04555">
        <ele>613.46</ele>
        <time>2017-05-04T12:21:07Z</time>
      </trkpt>
      <trkpt lat="43.27433" lon="6.04548">
        <ele>615.86</ele>
        <time>2017-05-04T12:21:20Z</time>
      </trkpt>
      <trkpt lat="43.27422" lon="6.0454">
        <ele>617.78</ele>
        <time>2017-05-04T12:21:30Z</time>
      </trkpt>
      <trkpt lat="43.27418" lon="6.04537">
        <ele>618.75</ele>
        <time>2017-05-04T12:21:33Z</time>
      </trkpt>
      <trkpt lat="43.27415" lon="6.04536">
        <ele>619.23</ele>
        <time>2017-05-04T12:21:36Z</time>
      </trkpt>
      <trkpt lat="43.27412" lon="6.04535">
        <ele>619.71</ele>
        <time>2017-05-04T12:21:39Z</time>
      </trkpt>
      <trkpt lat="43.27405" lon="6.04529">
        <ele>620.67</ele>
        <time>2017-05-04T12:21:45Z</time>
      </trkpt>
      <trkpt lat="43.27401" lon="6.04522">
        <ele>621.15</ele>
        <time>2017-05-04T12:21:50Z</time>
      </trkpt>
      <trkpt lat="43.27395" lon="6.04516">
        <ele>622.59</ele>
        <time>2017-05-04T12:21:57Z</time>
      </trkpt>
      <trkpt lat="43.27393" lon="6.04515">
        <ele>622.59</ele>
        <time>2017-05-04T12:21:59Z</time>
      </trkpt>
      <trkpt lat="43.27391" lon="6.04515">
        <ele>623.55</ele>
        <time>2017-05-04T12:22:01Z</time>
      </trkpt>
      <trkpt lat="43.27382" lon="6.04508">
        <ele>624.99</ele>
        <time>2017-05-04T12:22:11Z</time>
      </trkpt>
      <trkpt lat="43.27373" lon="6.045">
        <ele>626.92</ele>
        <time>2017-05-04T12:22:24Z</time>
      </trkpt>
      <trkpt lat="43.27368" lon="6.04497">
        <ele>627.4</ele>
        <time>2017-05-04T12:22:37Z</time>
      </trkpt>
      <trkpt lat="43.27368" lon="6.04498">
        <ele>626.92</ele>
        <time>2017-05-04T12:23:10Z</time>
      </trkpt>
      <trkpt lat="43.27366" lon="6.04497">
        <ele>628.36</ele>
        <time>2017-05-04T12:23:25Z</time>
      </trkpt>
      <trkpt lat="43.27354" lon="6.04493">
        <ele>630.76</ele>
        <time>2017-05-04T12:23:37Z</time>
      </trkpt>
      <trkpt lat="43.27348" lon="6.0449">
        <ele>632.68</ele>
        <time>2017-05-04T12:23:45Z</time>
      </trkpt>
      <trkpt lat="43.27332" lon="6.04488">
        <ele>634.61</ele>
        <time>2017-05-04T12:23:59Z</time>
      </trkpt>
      <trkpt lat="43.27327" lon="6.04489">
        <ele>635.09</ele>
        <time>2017-05-04T12:24:11Z</time>
      </trkpt>
      <trkpt lat="43.27319" lon="6.04496">
        <ele>637.01</ele>
        <time>2017-05-04T12:24:22Z</time>
      </trkpt>
      <trkpt lat="43.27307" lon="6.04485">
        <ele>638.45</ele>
        <time>2017-05-04T12:24:36Z</time>
      </trkpt>
      <trkpt lat="43.27303" lon="6.04483">
        <ele>638.45</ele>
        <time>2017-05-04T12:24:40Z</time>
      </trkpt>
      <trkpt lat="43.27288" lon="6.04478">
        <ele>641.34</ele>
        <time>2017-05-04T12:24:54Z</time>
      </trkpt>
      <trkpt lat="43.27286" lon="6.04477">
        <ele>641.34</ele>
        <time>2017-05-04T12:24:56Z</time>
      </trkpt>
      <trkpt lat="43.2727" lon="6.0447">
        <ele>643.74</ele>
        <time>2017-05-04T12:25:09Z</time>
      </trkpt>
      <trkpt lat="43.27262" lon="6.04459">
        <ele>644.7</ele>
        <time>2017-05-04T12:25:21Z</time>
      </trkpt>
      <trkpt lat="43.27251" lon="6.04448">
        <ele>646.14</ele>
        <time>2017-05-04T12:25:34Z</time>
      </trkpt>
      <trkpt lat="43.27243" lon="6.04439">
        <ele>648.07</ele>
        <time>2017-05-04T12:25:47Z</time>
      </trkpt>
      <trkpt lat="43.27232" lon="6.04423">
        <ele>649.99</ele>
        <time>2017-05-04T12:26:00Z</time>
      </trkpt>
      <trkpt lat="43.27224" lon="6.04416">
        <ele>652.87</ele>
        <time>2017-05-04T12:26:13Z</time>
      </trkpt>
      <trkpt lat="43.27216" lon="6.04416">
        <ele>654.8</ele>
        <time>2017-05-04T12:26:31Z</time>
      </trkpt>
      <trkpt lat="43.27201" lon="6.04415">
        <ele>656.24</ele>
        <time>2017-05-04T12:26:45Z</time>
      </trkpt>
      <trkpt lat="43.27193" lon="6.04411">
        <ele>659.12</ele>
        <time>2017-05-04T12:26:59Z</time>
      </trkpt>
      <trkpt lat="43.27181" lon="6.04409">
        <ele>661.52</ele>
        <time>2017-05-04T12:27:14Z</time>
      </trkpt>
      <trkpt lat="43.27173" lon="6.04405">
        <ele>662.49</ele>
        <time>2017-05-04T12:27:21Z</time>
      </trkpt>
      <trkpt lat="43.27164" lon="6.04402">
        <ele>664.89</ele>
        <time>2017-05-04T12:27:33Z</time>
      </trkpt>
      <trkpt lat="43.2716" lon="6.04403">
        <ele>665.37</ele>
        <time>2017-05-04T12:27:43Z</time>
      </trkpt>
      <trkpt lat="43.27151" lon="6.04398">
        <ele>667.29</ele>
        <time>2017-05-04T12:27:56Z</time>
      </trkpt>
      <trkpt lat="43.27141" lon="6.04396">
        <ele>669.22</ele>
        <time>2017-05-04T12:28:06Z</time>
      </trkpt>
      <trkpt lat="43.2713" lon="6.04396">
        <ele>671.62</ele>
        <time>2017-05-04T12:28:17Z</time>
      </trkpt>
      <trkpt lat="43.27125" lon="6.04395">
        <ele>671.62</ele>
        <time>2017-05-04T12:28:21Z</time>
      </trkpt>
      <trkpt lat="43.27117" lon="6.04393">
        <ele>673.06</ele>
        <time>2017-05-04T12:28:32Z</time>
      </trkpt>
      <trkpt lat="43.27103" lon="6.04399">
        <ele>673.54</ele>
        <time>2017-05-04T12:28:49Z</time>
      </trkpt>
      <trkpt lat="43.27102" lon="6.044">
        <ele>674.02</ele>
        <time>2017-05-04T12:28:50Z</time>
      </trkpt>
      <trkpt lat="43.27092" lon="6.04397">
        <ele>674.02</ele>
        <time>2017-05-04T12:28:59Z</time>
      </trkpt>
      <trkpt lat="43.2708" lon="6.04386">
        <ele>674.5</ele>
        <time>2017-05-04T12:29:13Z</time>
      </trkpt>
      <trkpt lat="43.27072" lon="6.04382">
        <ele>674.5</ele>
        <time>2017-05-04T12:29:20Z</time>
      </trkpt>
      <trkpt lat="43.27057" lon="6.04366">
        <ele>675.94</ele>
        <time>2017-05-04T12:29:35Z</time>
      </trkpt>
      <trkpt lat="43.27052" lon="6.04358">
        <ele>675.94</ele>
        <time>2017-05-04T12:29:41Z</time>
      </trkpt>
      <trkpt lat="43.27038" lon="6.04349">
        <ele>676.91</ele>
        <time>2017-05-04T12:29:52Z</time>
      </trkpt>
      <trkpt lat="43.27029" lon="6.04346">
        <ele>676.91</ele>
        <time>2017-05-04T12:29:59Z</time>
      </trkpt>
      <trkpt lat="43.27015" lon="6.0433">
        <ele>677.87</ele>
        <time>2017-05-04T12:30:12Z</time>
      </trkpt>
      <trkpt lat="43.27001" lon="6.04313">
        <ele>677.87</ele>
        <time>2017-05-04T12:30:25Z</time>
      </trkpt>
      <trkpt lat="43.26989" lon="6.04299">
        <ele>678.35</ele>
        <time>2017-05-04T12:30:35Z</time>
      </trkpt>
      <trkpt lat="43.26981" lon="6.04289">
        <ele>678.83</ele>
        <time>2017-05-04T12:30:45Z</time>
      </trkpt>
      <trkpt lat="43.26979" lon="6.04289">
        <ele>679.31</ele>
        <time>2017-05-04T12:30:47Z</time>
      </trkpt>
      <trkpt lat="43.2697" lon="6.04282">
        <ele>677.87</ele>
        <time>2017-05-04T12:31:00Z</time>
      </trkpt>
      <trkpt lat="43.26968" lon="6.04281">
        <ele>677.39</ele>
        <time>2017-05-04T12:31:02Z</time>
      </trkpt>
      <trkpt lat="43.26959" lon="6.04277">
        <ele>676.91</ele>
        <time>2017-05-04T12:31:10Z</time>
      </trkpt>
      <trkpt lat="43.26953" lon="6.04272">
        <ele>676.42</ele>
        <time>2017-05-04T12:31:15Z</time>
      </trkpt>
      <trkpt lat="43.26949" lon="6.0427">
        <ele>676.42</ele>
        <time>2017-05-04T12:31:18Z</time>
      </trkpt>
      <trkpt lat="43.26931" lon="6.04261">
        <ele>676.42</ele>
        <time>2017-05-04T12:31:33Z</time>
      </trkpt>
      <trkpt lat="43.2693" lon="6.0426">
        <ele>675.94</ele>
        <time>2017-05-04T12:31:34Z</time>
      </trkpt>
      <trkpt lat="43.26918" lon="6.04256">
        <ele>676.42</ele>
        <time>2017-05-04T12:31:43Z</time>
      </trkpt>
      <trkpt lat="43.26907" lon="6.04246">
        <ele>676.42</ele>
        <time>2017-05-04T12:31:52Z</time>
      </trkpt>
      <trkpt lat="43.26906" lon="6.04238">
        <ele>677.39</ele>
        <time>2017-05-04T12:31:57Z</time>
      </trkpt>
      <trkpt lat="43.26905" lon="6.04228">
        <ele>677.87</ele>
        <time>2017-05-04T12:32:04Z</time>
      </trkpt>
      <trkpt lat="43.269" lon="6.04217">
        <ele>678.35</ele>
        <time>2017-05-04T12:32:14Z</time>
      </trkpt>
      <trkpt lat="43.26894" lon="6.04214">
        <ele>678.35</ele>
        <time>2017-05-04T12:32:18Z</time>
      </trkpt>
      <trkpt lat="43.26885" lon="6.0421">
        <ele>678.35</ele>
        <time>2017-05-04T12:32:24Z</time>
      </trkpt>
      <trkpt lat="43.2688" lon="6.04203">
        <ele>677.87</ele>
        <time>2017-05-04T12:32:30Z</time>
      </trkpt>
      <trkpt lat="43.26876" lon="6.0419">
        <ele>678.35</ele>
        <time>2017-05-04T12:32:37Z</time>
      </trkpt>
      <trkpt lat="43.26864" lon="6.04174">
        <ele>677.87</ele>
        <time>2017-05-04T12:32:51Z</time>
      </trkpt>
      <trkpt lat="43.26864" lon="6.04173">
        <ele>677.87</ele>
        <time>2017-05-04T12:32:52Z</time>
      </trkpt>
      <trkpt lat="43.26858" lon="6.04163">
        <ele>677.39</ele>
        <time>2017-05-04T12:33:00Z</time>
      </trkpt>
      <trkpt lat="43.2685" lon="6.04142">
        <ele>676.91</ele>
        <time>2017-05-04T12:33:15Z</time>
      </trkpt>
      <trkpt lat="43.26842" lon="6.04117">
        <ele>674.98</ele>
        <time>2017-05-04T12:33:30Z</time>
      </trkpt>
      <trkpt lat="43.2684" lon="6.0411">
        <ele>674.98</ele>
        <time>2017-05-04T12:33:36Z</time>
      </trkpt>
      <trkpt lat="43.26836" lon="6.04101">
        <ele>674.98</ele>
        <time>2017-05-04T12:33:41Z</time>
      </trkpt>
      <trkpt lat="43.26833" lon="6.04091">
        <ele>674.5</ele>
        <time>2017-05-04T12:33:46Z</time>
      </trkpt>
      <trkpt lat="43.2683" lon="6.04069">
        <ele>674.5</ele>
        <time>2017-05-04T12:33:59Z</time>
      </trkpt>
      <trkpt lat="43.26829" lon="6.04067">
        <ele>674.02</ele>
        <time>2017-05-04T12:34:17Z</time>
      </trkpt>
      <trkpt lat="43.26829" lon="6.04066">
        <ele>674.5</ele>
        <time>2017-05-04T12:34:41Z</time>
      </trkpt>
      <trkpt lat="43.26829" lon="6.04066">
        <ele>674.5</ele>
        <time>2017-05-04T12:35:05Z</time>
      </trkpt>
      <trkpt lat="43.2683" lon="6.04066">
        <ele>674.5</ele>
        <time>2017-05-04T12:35:17Z</time>
      </trkpt>
      <trkpt lat="43.26827" lon="6.04064">
        <ele>674.5</ele>
        <time>2017-05-04T12:35:33Z</time>
      </trkpt>
      <trkpt lat="43.26826" lon="6.04063">
        <ele>674.5</ele>
        <time>2017-05-04T12:35:37Z</time>
      </trkpt>
      <trkpt lat="43.26823" lon="6.04055">
        <ele>674.98</ele>
        <time>2017-05-04T12:35:53Z</time>
      </trkpt>
      <trkpt lat="43.26822" lon="6.04055">
        <ele>674.98</ele>
        <time>2017-05-04T12:36:13Z</time>
      </trkpt>
      <trkpt lat="43.26821" lon="6.04048">
        <ele>674.98</ele>
        <time>2017-05-04T12:36:33Z</time>
      </trkpt>
      <trkpt lat="43.26819" lon="6.04037">
        <ele>674.5</ele>
        <time>2017-05-04T12:36:44Z</time>
      </trkpt>
      <trkpt lat="43.26818" lon="6.04031">
        <ele>674.98</ele>
        <time>2017-05-04T12:36:58Z</time>
      </trkpt>
      <trkpt lat="43.26817" lon="6.04023">
        <ele>674.5</ele>
        <time>2017-05-04T12:37:05Z</time>
      </trkpt>
      <trkpt lat="43.26818" lon="6.04012">
        <ele>674.02</ele>
        <time>2017-05-04T12:37:16Z</time>
      </trkpt>
      <trkpt lat="43.26815" lon="6.04005">
        <ele>673.54</ele>
        <time>2017-05-04T12:37:24Z</time>
      </trkpt>
      <trkpt lat="43.26811" lon="6.03992">
        <ele>672.58</ele>
        <time>2017-05-04T12:37:36Z</time>
      </trkpt>
      <trkpt lat="43.2681" lon="6.03984">
        <ele>672.1</ele>
        <time>2017-05-04T12:37:43Z</time>
      </trkpt>
      <trkpt lat="43.26809" lon="6.03976">
        <ele>672.1</ele>
        <time>2017-05-04T12:37:49Z</time>
      </trkpt>
      <trkpt lat="43.26806" lon="6.03962">
        <ele>671.62</ele>
        <time>2017-05-04T12:38:01Z</time>
      </trkpt>
      <trkpt lat="43.26807" lon="6.03956">
        <ele>671.14</ele>
        <time>2017-05-04T12:38:10Z</time>
      </trkpt>
      <trkpt lat="43.26807" lon="6.03948">
        <ele>670.66</ele>
        <time>2017-05-04T12:38:21Z</time>
      </trkpt>
      <trkpt lat="43.26804" lon="6.03939">
        <ele>670.18</ele>
        <time>2017-05-04T12:38:33Z</time>
      </trkpt>
      <trkpt lat="43.26803" lon="6.03934">
        <ele>669.7</ele>
        <time>2017-05-04T12:38:42Z</time>
      </trkpt>
      <trkpt lat="43.26803" lon="6.03931">
        <ele>669.7</ele>
        <time>2017-05-04T12:38:45Z</time>
      </trkpt>
      <trkpt lat="43.26802" lon="6.03925">
        <ele>669.22</ele>
        <time>2017-05-04T12:38:50Z</time>
      </trkpt>
      <trkpt lat="43.26801" lon="6.03913">
        <ele>668.25</ele>
        <time>2017-05-04T12:39:02Z</time>
      </trkpt>
      <trkpt lat="43.268" lon="6.03904">
        <ele>666.81</ele>
        <time>2017-05-04T12:39:14Z</time>
      </trkpt>
      <trkpt lat="43.26797" lon="6.03891">
        <ele>665.37</ele>
        <time>2017-05-04T12:39:26Z</time>
      </trkpt>
      <trkpt lat="43.26792" lon="6.03885">
        <ele>664.41</ele>
        <time>2017-05-04T12:39:35Z</time>
      </trkpt>
      <trkpt lat="43.26787" lon="6.0387">
        <ele>662.49</ele>
        <time>2017-05-04T12:39:48Z</time>
      </trkpt>
      <trkpt lat="43.2679" lon="6.03862">
        <ele>660.08</ele>
        <time>2017-05-04T12:40:00Z</time>
      </trkpt>
      <trkpt lat="43.26792" lon="6.03858">
        <ele>659.12</ele>
        <time>2017-05-04T12:40:13Z</time>
      </trkpt>
      <trkpt lat="43.26794" lon="6.03846">
        <ele>657.2</ele>
        <time>2017-05-04T12:40:26Z</time>
      </trkpt>
      <trkpt lat="43.26792" lon="6.0384">
        <ele>656.72</ele>
        <time>2017-05-04T12:40:40Z</time>
      </trkpt>
      <trkpt lat="43.26789" lon="6.03836">
        <ele>655.28</ele>
        <time>2017-05-04T12:40:53Z</time>
      </trkpt>
      <trkpt lat="43.26789" lon="6.03836">
        <ele>655.28</ele>
        <time>2017-05-04T12:40:55Z</time>
      </trkpt>
      <trkpt lat="43.2679" lon="6.03828">
        <ele>654.31</ele>
        <time>2017-05-04T12:41:07Z</time>
      </trkpt>
      <trkpt lat="43.26792" lon="6.03823">
        <ele>653.83</ele>
        <time>2017-05-04T12:41:12Z</time>
      </trkpt>
      <trkpt lat="43.26789" lon="6.03813">
        <ele>652.39</ele>
        <time>2017-05-04T12:41:24Z</time>
      </trkpt>
      <trkpt lat="43.26787" lon="6.03801">
        <ele>650.47</ele>
        <time>2017-05-04T12:41:36Z</time>
      </trkpt>
      <trkpt lat="43.26782" lon="6.03792">
        <ele>648.55</ele>
        <time>2017-05-04T12:41:48Z</time>
      </trkpt>
      <trkpt lat="43.26781" lon="6.03788">
        <ele>647.59</ele>
        <time>2017-05-04T12:41:52Z</time>
      </trkpt>
      <trkpt lat="43.26778" lon="6.03775">
        <ele>645.18</ele>
        <time>2017-05-04T12:42:07Z</time>
      </trkpt>
      <trkpt lat="43.26772" lon="6.03767">
        <ele>644.22</ele>
        <time>2017-05-04T12:42:19Z</time>
      </trkpt>
      <trkpt lat="43.2677" lon="6.03757">
        <ele>642.78</ele>
        <time>2017-05-04T12:42:31Z</time>
      </trkpt>
      <trkpt lat="43.26765" lon="6.03745">
        <ele>639.89</ele>
        <time>2017-05-04T12:42:45Z</time>
      </trkpt>
      <trkpt lat="43.26765" lon="6.03739">
        <ele>639.41</ele>
        <time>2017-05-04T12:42:50Z</time>
      </trkpt>
      <trkpt lat="43.26765" lon="6.03732">
        <ele>638.45</ele>
        <time>2017-05-04T12:43:02Z</time>
      </trkpt>
      <trkpt lat="43.26761" lon="6.03727">
        <ele>637.01</ele>
        <time>2017-05-04T12:43:16Z</time>
      </trkpt>
      <trkpt lat="43.26756" lon="6.03722">
        <ele>635.57</ele>
        <time>2017-05-04T12:43:28Z</time>
      </trkpt>
      <trkpt lat="43.26753" lon="6.03709">
        <ele>635.09</ele>
        <time>2017-05-04T12:43:43Z</time>
      </trkpt>
      <trkpt lat="43.26746" lon="6.03703">
        <ele>633.65</ele>
        <time>2017-05-04T12:43:55Z</time>
      </trkpt>
      <trkpt lat="43.26743" lon="6.03694">
        <ele>632.2</ele>
        <time>2017-05-04T12:44:08Z</time>
      </trkpt>
      <trkpt lat="43.26741" lon="6.03687">
        <ele>630.76</ele>
        <time>2017-05-04T12:44:20Z</time>
      </trkpt>
      <trkpt lat="43.26739" lon="6.03677">
        <ele>629.32</ele>
        <time>2017-05-04T12:44:34Z</time>
      </trkpt>
      <trkpt lat="43.26735" lon="6.03667">
        <ele>627.4</ele>
        <time>2017-05-04T12:44:48Z</time>
      </trkpt>
      <trkpt lat="43.26731" lon="6.03662">
        <ele>625.96</ele>
        <time>2017-05-04T12:45:00Z</time>
      </trkpt>
      <trkpt lat="43.2673" lon="6.0366">
        <ele>625.96</ele>
        <time>2017-05-04T12:45:31Z</time>
      </trkpt>
      <trkpt lat="43.26731" lon="6.0366">
        <ele>625.96</ele>
        <time>2017-05-04T12:45:54Z</time>
      </trkpt>
      <trkpt lat="43.26731" lon="6.0366">
        <ele>625.47</ele>
        <time>2017-05-04T12:46:21Z</time>
      </trkpt>
      <trkpt lat="43.26729" lon="6.03653">
        <ele>624.03</ele>
        <time>2017-05-04T12:46:33Z</time>
      </trkpt>
      <trkpt lat="43.2673" lon="6.03642">
        <ele>622.59</ele>
        <time>2017-05-04T12:46:45Z</time>
      </trkpt>
      <trkpt lat="43.26727" lon="6.03633">
        <ele>621.15</ele>
        <time>2017-05-04T12:46:57Z</time>
      </trkpt>
      <trkpt lat="43.26727" lon="6.03632">
        <ele>621.15</ele>
        <time>2017-05-04T12:47:18Z</time>
      </trkpt>
      <trkpt lat="43.26727" lon="6.03632">
        <ele>621.15</ele>
        <time>2017-05-04T12:47:41Z</time>
      </trkpt>
      <trkpt lat="43.26724" lon="6.03632">
        <ele>620.67</ele>
        <time>2017-05-04T12:47:51Z</time>
      </trkpt>
      <trkpt lat="43.2672" lon="6.03632">
        <ele>620.67</ele>
        <time>2017-05-04T12:47:55Z</time>
      </trkpt>
      <trkpt lat="43.26713" lon="6.03632">
        <ele>620.19</ele>
        <time>2017-05-04T12:48:05Z</time>
      </trkpt>
      <trkpt lat="43.26712" lon="6.03631">
        <ele>619.71</ele>
        <time>2017-05-04T12:48:06Z</time>
      </trkpt>
      <trkpt lat="43.26709" lon="6.03631">
        <ele>619.71</ele>
        <time>2017-05-04T12:48:08Z</time>
      </trkpt>
      <trkpt lat="43.267" lon="6.03617">
        <ele>618.26</ele>
        <time>2017-05-04T12:48:24Z</time>
      </trkpt>
      <trkpt lat="43.26699" lon="6.03613">
        <ele>617.3</ele>
        <time>2017-05-04T12:48:31Z</time>
      </trkpt>
      <trkpt lat="43.26694" lon="6.03607">
        <ele>617.3</ele>
        <time>2017-05-04T12:48:43Z</time>
      </trkpt>
      <trkpt lat="43.26685" lon="6.03598">
        <ele>617.3</ele>
        <time>2017-05-04T12:48:57Z</time>
      </trkpt>
      <trkpt lat="43.26682" lon="6.0359">
        <ele>616.34</ele>
        <time>2017-05-04T12:49:05Z</time>
      </trkpt>
      <trkpt lat="43.26681" lon="6.03583">
        <ele>616.34</ele>
        <time>2017-05-04T12:49:11Z</time>
      </trkpt>
      <trkpt lat="43.26678" lon="6.03571">
        <ele>616.34</ele>
        <time>2017-05-04T12:49:25Z</time>
      </trkpt>
      <trkpt lat="43.26672" lon="6.03559">
        <ele>617.78</ele>
        <time>2017-05-04T12:49:39Z</time>
      </trkpt>
      <trkpt lat="43.26671" lon="6.03556">
        <ele>617.78</ele>
        <time>2017-05-04T12:49:43Z</time>
      </trkpt>
      <trkpt lat="43.26667" lon="6.03549">
        <ele>618.75</ele>
        <time>2017-05-04T12:49:55Z</time>
      </trkpt>
      <trkpt lat="43.26665" lon="6.03547">
        <ele>618.75</ele>
        <time>2017-05-04T12:50:14Z</time>
      </trkpt>
      <trkpt lat="43.26662" lon="6.0354">
        <ele>619.71</ele>
        <time>2017-05-04T12:50:26Z</time>
      </trkpt>
      <trkpt lat="43.26656" lon="6.03537">
        <ele>621.15</ele>
        <time>2017-05-04T12:50:35Z</time>
      </trkpt>
      <trkpt lat="43.26649" lon="6.03539">
        <ele>622.59</ele>
        <time>2017-05-04T12:50:48Z</time>
      </trkpt>
      <trkpt lat="43.26649" lon="6.03542">
        <ele>622.59</ele>
        <time>2017-05-04T12:51:02Z</time>
      </trkpt>
      <trkpt lat="43.26648" lon="6.03544">
        <ele>622.59</ele>
        <time>2017-05-04T12:51:16Z</time>
      </trkpt>
      <trkpt lat="43.26652" lon="6.03547">
        <ele>622.11</ele>
        <time>2017-05-04T12:51:31Z</time>
      </trkpt>
      <trkpt lat="43.26649" lon="6.03542">
        <ele>622.59</ele>
        <time>2017-05-04T12:51:45Z</time>
      </trkpt>
      <trkpt lat="43.26644" lon="6.0354">
        <ele>623.55</ele>
        <time>2017-05-04T12:51:59Z</time>
      </trkpt>
      <trkpt lat="43.26635" lon="6.03538">
        <ele>625.47</ele>
        <time>2017-05-04T12:52:11Z</time>
      </trkpt>
      <trkpt lat="43.26626" lon="6.03533">
        <ele>628.36</ele>
        <time>2017-05-04T12:52:24Z</time>
      </trkpt>
      <trkpt lat="43.26617" lon="6.03534">
        <ele>630.28</ele>
        <time>2017-05-04T12:52:36Z</time>
      </trkpt>
      <trkpt lat="43.26609" lon="6.03529">
        <ele>631.24</ele>
        <time>2017-05-04T12:52:49Z</time>
      </trkpt>
      <trkpt lat="43.26606" lon="6.03525">
        <ele>632.68</ele>
        <time>2017-05-04T12:53:00Z</time>
      </trkpt>
      <trkpt lat="43.26605" lon="6.03519">
        <ele>633.65</ele>
        <time>2017-05-04T12:53:08Z</time>
      </trkpt>
      <trkpt lat="43.26598" lon="6.0351">
        <ele>635.09</ele>
        <time>2017-05-04T12:53:19Z</time>
      </trkpt>
      <trkpt lat="43.26595" lon="6.03504">
        <ele>635.09</ele>
        <time>2017-05-04T12:53:34Z</time>
      </trkpt>
      <trkpt lat="43.26594" lon="6.03506">
        <ele>635.57</ele>
        <time>2017-05-04T12:53:48Z</time>
      </trkpt>
      <trkpt lat="43.26594" lon="6.03502">
        <ele>635.57</ele>
        <time>2017-05-04T12:54:03Z</time>
      </trkpt>
      <trkpt lat="43.26592" lon="6.03495">
        <ele>636.05</ele>
        <time>2017-05-04T12:54:14Z</time>
      </trkpt>
      <trkpt lat="43.26588" lon="6.03486">
        <ele>636.05</ele>
        <time>2017-05-04T12:54:27Z</time>
      </trkpt>
      <trkpt lat="43.26586" lon="6.03485">
        <ele>636.05</ele>
        <time>2017-05-04T12:54:40Z</time>
      </trkpt>
      <trkpt lat="43.26578" lon="6.03479">
        <ele>637.01</ele>
        <time>2017-05-04T12:54:52Z</time>
      </trkpt>
      <trkpt lat="43.26574" lon="6.03473">
        <ele>637.49</ele>
        <time>2017-05-04T12:55:05Z</time>
      </trkpt>
      <trkpt lat="43.26573" lon="6.03472">
        <ele>637.01</ele>
        <time>2017-05-04T12:55:08Z</time>
      </trkpt>
      <trkpt lat="43.26569" lon="6.03469">
        <ele>636.53</ele>
        <time>2017-05-04T12:55:21Z</time>
      </trkpt>
      <trkpt lat="43.26569" lon="6.03469">
        <ele>637.01</ele>
        <time>2017-05-04T12:55:44Z</time>
      </trkpt>
      <trkpt lat="43.26569" lon="6.03469">
        <ele>636.53</ele>
        <time>2017-05-04T12:56:06Z</time>
      </trkpt>
      <trkpt lat="43.26569" lon="6.03469">
        <ele>638.45</ele>
        <time>2017-05-04T12:56:22Z</time>
      </trkpt>
      <trkpt lat="43.2657" lon="6.03469">
        <ele>637.49</ele>
        <time>2017-05-04T12:56:50Z</time>
      </trkpt>
      <trkpt lat="43.2657" lon="6.03469">
        <ele>636.53</ele>
        <time>2017-05-04T12:57:07Z</time>
      </trkpt>
      <trkpt lat="43.2657" lon="6.03469">
        <ele>637.49</ele>
        <time>2017-05-04T12:57:23Z</time>
      </trkpt>
      <trkpt lat="43.2657" lon="6.03469">
        <ele>637.01</ele>
        <time>2017-05-04T12:57:38Z</time>
      </trkpt>
      <trkpt lat="43.2657" lon="6.03469">
        <ele>635.57</ele>
        <time>2017-05-04T12:58:02Z</time>
      </trkpt>
      <trkpt lat="43.2657" lon="6.03468">
        <ele>636.53</ele>
        <time>2017-05-04T12:58:30Z</time>
      </trkpt>
      <trkpt lat="43.2657" lon="6.03469">
        <ele>637.01</ele>
        <time>2017-05-04T12:58:44Z</time>
      </trkpt>
      <trkpt lat="43.26571" lon="6.03469">
        <ele>637.01</ele>
        <time>2017-05-04T12:59:03Z</time>
      </trkpt>
      <trkpt lat="43.26572" lon="6.03469">
        <ele>637.01</ele>
        <time>2017-05-04T12:59:29Z</time>
      </trkpt>
      <trkpt lat="43.26572" lon="6.03469">
        <ele>637.01</ele>
        <time>2017-05-04T12:59:51Z</time>
      </trkpt>
      <trkpt lat="43.26572" lon="6.03469">
        <ele>637.01</ele>
        <time>2017-05-04T13:00:06Z</time>
      </trkpt>
      <trkpt lat="43.26571" lon="6.03465">
        <ele>637.01</ele>
        <time>2017-05-04T13:00:20Z</time>
      </trkpt>
      <trkpt lat="43.26569" lon="6.03461">
        <ele>636.53</ele>
        <time>2017-05-04T13:00:25Z</time>
      </trkpt>
      <trkpt lat="43.26561" lon="6.03448">
        <ele>635.57</ele>
        <time>2017-05-04T13:00:39Z</time>
      </trkpt>
      <trkpt lat="43.26559" lon="6.03441">
        <ele>635.57</ele>
        <time>2017-05-04T13:00:45Z</time>
      </trkpt>
      <trkpt lat="43.26553" lon="6.03432">
        <ele>635.09</ele>
        <time>2017-05-04T13:00:55Z</time>
      </trkpt>
      <trkpt lat="43.2655" lon="6.03426">
        <ele>634.61</ele>
        <time>2017-05-04T13:01:03Z</time>
      </trkpt>
      <trkpt lat="43.26549" lon="6.03425">
        <ele>634.61</ele>
        <time>2017-05-04T13:01:18Z</time>
      </trkpt>
      <trkpt lat="43.26545" lon="6.03413">
        <ele>632.2</ele>
        <time>2017-05-04T13:01:31Z</time>
      </trkpt>
      <trkpt lat="43.26542" lon="6.03402">
        <ele>630.28</ele>
        <time>2017-05-04T13:01:43Z</time>
      </trkpt>
      <trkpt lat="43.26538" lon="6.03392">
        <ele>627.88</ele>
        <time>2017-05-04T13:01:56Z</time>
      </trkpt>
      <trkpt lat="43.26533" lon="6.03382">
        <ele>625.96</ele>
        <time>2017-05-04T13:02:08Z</time>
      </trkpt>
      <trkpt lat="43.26532" lon="6.0338">
        <ele>625.47</ele>
        <time>2017-05-04T13:02:21Z</time>
      </trkpt>
      <trkpt lat="43.26532" lon="6.0338">
        <ele>625.47</ele>
        <time>2017-05-04T13:02:46Z</time>
      </trkpt>
      <trkpt lat="43.26531" lon="6.03381">
        <ele>625.47</ele>
        <time>2017-05-04T13:03:00Z</time>
      </trkpt>
      <trkpt lat="43.26529" lon="6.03379">
        <ele>624.99</ele>
        <time>2017-05-04T13:03:07Z</time>
      </trkpt>
      <trkpt lat="43.26527" lon="6.03376">
        <ele>624.99</ele>
        <time>2017-05-04T13:03:10Z</time>
      </trkpt>
      <trkpt lat="43.26522" lon="6.03375">
        <ele>624.03</ele>
        <time>2017-05-04T13:03:17Z</time>
      </trkpt>
      <trkpt lat="43.26519" lon="6.03377">
        <ele>624.51</ele>
        <time>2017-05-04T13:03:20Z</time>
      </trkpt>
      <trkpt lat="43.26516" lon="6.03379">
        <ele>624.51</ele>
        <time>2017-05-04T13:03:25Z</time>
      </trkpt>
      <trkpt lat="43.26508" lon="6.03379">
        <ele>624.03</ele>
        <time>2017-05-04T13:03:36Z</time>
      </trkpt>
      <trkpt lat="43.26505" lon="6.03369">
        <ele>622.59</ele>
        <time>2017-05-04T13:03:48Z</time>
      </trkpt>
      <trkpt lat="43.26507" lon="6.03358">
        <ele>620.67</ele>
        <time>2017-05-04T13:04:02Z</time>
      </trkpt>
      <trkpt lat="43.26506" lon="6.03348">
        <ele>619.23</ele>
        <time>2017-05-04T13:04:14Z</time>
      </trkpt>
      <trkpt lat="43.26507" lon="6.03342">
        <ele>618.26</ele>
        <time>2017-05-04T13:04:20Z</time>
      </trkpt>
      <trkpt lat="43.26505" lon="6.03337">
        <ele>615.86</ele>
        <time>2017-05-04T13:04:30Z</time>
      </trkpt>
      <trkpt lat="43.26503" lon="6.03334">
        <ele>614.9</ele>
        <time>2017-05-04T13:04:40Z</time>
      </trkpt>
      <trkpt lat="43.26502" lon="6.03333">
        <ele>613.94</ele>
        <time>2017-05-04T13:04:48Z</time>
      </trkpt>
      <trkpt lat="43.26501" lon="6.03323">
        <ele>612.02</ele>
        <time>2017-05-04T13:04:59Z</time>
      </trkpt>
      <trkpt lat="43.26497" lon="6.03313">
        <ele>609.61</ele>
        <time>2017-05-04T13:05:12Z</time>
      </trkpt>
      <trkpt lat="43.26499" lon="6.03306">
        <ele>608.65</ele>
        <time>2017-05-04T13:05:25Z</time>
      </trkpt>
      <trkpt lat="43.26505" lon="6.03299">
        <ele>607.21</ele>
        <time>2017-05-04T13:05:37Z</time>
      </trkpt>
      <trkpt lat="43.26507" lon="6.03295">
        <ele>606.73</ele>
        <time>2017-05-04T13:05:51Z</time>
      </trkpt>
      <trkpt lat="43.26507" lon="6.03293">
        <ele>606.25</ele>
        <time>2017-05-04T13:05:54Z</time>
      </trkpt>
      <trkpt lat="43.26508" lon="6.0328">
        <ele>604.33</ele>
        <time>2017-05-04T13:06:10Z</time>
      </trkpt>
      <trkpt lat="43.265" lon="6.03274">
        <ele>602.4</ele>
        <time>2017-05-04T13:06:22Z</time>
      </trkpt>
      <trkpt lat="43.26495" lon="6.03271">
        <ele>600</ele>
        <time>2017-05-04T13:06:35Z</time>
      </trkpt>
      <trkpt lat="43.2649" lon="6.03267">
        <ele>598.08</ele>
        <time>2017-05-04T13:06:49Z</time>
      </trkpt>
      <trkpt lat="43.26485" lon="6.03261">
        <ele>595.67</ele>
        <time>2017-05-04T13:07:02Z</time>
      </trkpt>
      <trkpt lat="43.2648" lon="6.03256">
        <ele>593.75</ele>
        <time>2017-05-04T13:07:14Z</time>
      </trkpt>
      <trkpt lat="43.26476" lon="6.03246">
        <ele>591.35</ele>
        <time>2017-05-04T13:07:29Z</time>
      </trkpt>
      <trkpt lat="43.26477" lon="6.03239">
        <ele>590.39</ele>
        <time>2017-05-04T13:07:43Z</time>
      </trkpt>
      <trkpt lat="43.26477" lon="6.03235">
        <ele>589.91</ele>
        <time>2017-05-04T13:07:46Z</time>
      </trkpt>
      <trkpt lat="43.26476" lon="6.03233">
        <ele>588.95</ele>
        <time>2017-05-04T13:07:48Z</time>
      </trkpt>
      <trkpt lat="43.26475" lon="6.03218">
        <ele>587.02</ele>
        <time>2017-05-04T13:08:01Z</time>
      </trkpt>
      <trkpt lat="43.26477" lon="6.03211">
        <ele>586.06</ele>
        <time>2017-05-04T13:08:07Z</time>
      </trkpt>
      <trkpt lat="43.26477" lon="6.03207">
        <ele>585.1</ele>
        <time>2017-05-04T13:08:11Z</time>
      </trkpt>
      <trkpt lat="43.26477" lon="6.03201">
        <ele>584.14</ele>
        <time>2017-05-04T13:08:15Z</time>
      </trkpt>
      <trkpt lat="43.26476" lon="6.03183">
        <ele>581.73</ele>
        <time>2017-05-04T13:08:29Z</time>
      </trkpt>
      <trkpt lat="43.26475" lon="6.03176">
        <ele>581.25</ele>
        <time>2017-05-04T13:08:34Z</time>
      </trkpt>
      <trkpt lat="43.2647" lon="6.03156">
        <ele>579.81</ele>
        <time>2017-05-04T13:08:48Z</time>
      </trkpt>
      <trkpt lat="43.26467" lon="6.03151">
        <ele>580.29</ele>
        <time>2017-05-04T13:08:53Z</time>
      </trkpt>
      <trkpt lat="43.26463" lon="6.03146">
        <ele>579.33</ele>
        <time>2017-05-04T13:08:59Z</time>
      </trkpt>
      <trkpt lat="43.26461" lon="6.03142">
        <ele>578.85</ele>
        <time>2017-05-04T13:09:07Z</time>
      </trkpt>
      <trkpt lat="43.26457" lon="6.03134">
        <ele>578.85</ele>
        <time>2017-05-04T13:09:14Z</time>
      </trkpt>
      <trkpt lat="43.26453" lon="6.03118">
        <ele>578.85</ele>
        <time>2017-05-04T13:09:28Z</time>
      </trkpt>
      <trkpt lat="43.26447" lon="6.03104">
        <ele>578.37</ele>
        <time>2017-05-04T13:09:40Z</time>
      </trkpt>
      <trkpt lat="43.26445" lon="6.031">
        <ele>578.85</ele>
        <time>2017-05-04T13:09:43Z</time>
      </trkpt>
      <trkpt lat="43.2644" lon="6.03087">
        <ele>578.37</ele>
        <time>2017-05-04T13:09:54Z</time>
      </trkpt>
      <trkpt lat="43.26437" lon="6.03081">
        <ele>578.37</ele>
        <time>2017-05-04T13:10:00Z</time>
      </trkpt>
      <trkpt lat="43.26436" lon="6.03077">
        <ele>578.37</ele>
        <time>2017-05-04T13:10:04Z</time>
      </trkpt>
      <trkpt lat="43.26429" lon="6.03063">
        <ele>577.89</ele>
        <time>2017-05-04T13:10:18Z</time>
      </trkpt>
      <trkpt lat="43.26426" lon="6.03053">
        <ele>577.89</ele>
        <time>2017-05-04T13:10:30Z</time>
      </trkpt>
      <trkpt lat="43.26423" lon="6.03048">
        <ele>577.41</ele>
        <time>2017-05-04T13:10:39Z</time>
      </trkpt>
      <trkpt lat="43.26421" lon="6.03048">
        <ele>575.97</ele>
        <time>2017-05-04T13:10:42Z</time>
      </trkpt>
      <trkpt lat="43.26417" lon="6.03046">
        <ele>575.01</ele>
        <time>2017-05-04T13:10:52Z</time>
      </trkpt>
      <trkpt lat="43.26414" lon="6.0303">
        <ele>574.53</ele>
        <time>2017-05-04T13:11:05Z</time>
      </trkpt>
      <trkpt lat="43.26414" lon="6.03029">
        <ele>574.53</ele>
        <time>2017-05-04T13:11:06Z</time>
      </trkpt>
      <trkpt lat="43.26414" lon="6.03023">
        <ele>574.04</ele>
        <time>2017-05-04T13:11:10Z</time>
      </trkpt>
      <trkpt lat="43.26414" lon="6.03019">
        <ele>574.04</ele>
        <time>2017-05-04T13:11:13Z</time>
      </trkpt>
      <trkpt lat="43.26413" lon="6.03004">
        <ele>574.53</ele>
        <time>2017-05-04T13:11:25Z</time>
      </trkpt>
      <trkpt lat="43.26408" lon="6.02992">
        <ele>575.01</ele>
        <time>2017-05-04T13:11:35Z</time>
      </trkpt>
      <trkpt lat="43.26404" lon="6.02982">
        <ele>575.49</ele>
        <time>2017-05-04T13:11:44Z</time>
      </trkpt>
      <trkpt lat="43.26403" lon="6.02978">
        <ele>575.01</ele>
        <time>2017-05-04T13:11:47Z</time>
      </trkpt>
      <trkpt lat="43.26396" lon="6.02965">
        <ele>576.45</ele>
        <time>2017-05-04T13:12:00Z</time>
      </trkpt>
      <trkpt lat="43.26387" lon="6.02953">
        <ele>577.89</ele>
        <time>2017-05-04T13:12:12Z</time>
      </trkpt>
      <trkpt lat="43.26385" lon="6.02946">
        <ele>577.89</ele>
        <time>2017-05-04T13:12:17Z</time>
      </trkpt>
      <trkpt lat="43.26379" lon="6.02929">
        <ele>577.89</ele>
        <time>2017-05-04T13:12:32Z</time>
      </trkpt>
      <trkpt lat="43.26377" lon="6.0292">
        <ele>578.37</ele>
        <time>2017-05-04T13:12:38Z</time>
      </trkpt>
      <trkpt lat="43.26373" lon="6.02914">
        <ele>578.37</ele>
        <time>2017-05-04T13:12:45Z</time>
      </trkpt>
      <trkpt lat="43.26363" lon="6.0291">
        <ele>579.33</ele>
        <time>2017-05-04T13:12:58Z</time>
      </trkpt>
      <trkpt lat="43.26354" lon="6.02906">
        <ele>581.25</ele>
        <time>2017-05-04T13:13:10Z</time>
      </trkpt>
      <trkpt lat="43.26346" lon="6.02902">
        <ele>583.18</ele>
        <time>2017-05-04T13:13:22Z</time>
      </trkpt>
      <trkpt lat="43.26339" lon="6.0291">
        <ele>584.62</ele>
        <time>2017-05-04T13:13:34Z</time>
      </trkpt>
      <trkpt lat="43.2633" lon="6.02915">
        <ele>585.58</ele>
        <time>2017-05-04T13:13:46Z</time>
      </trkpt>
      <trkpt lat="43.26323" lon="6.02908">
        <ele>586.54</ele>
        <time>2017-05-04T13:13:59Z</time>
      </trkpt>
      <trkpt lat="43.26317" lon="6.02901">
        <ele>587.5</ele>
        <time>2017-05-04T13:14:10Z</time>
      </trkpt>
      <trkpt lat="43.26319" lon="6.02892">
        <ele>587.02</ele>
        <time>2017-05-04T13:14:22Z</time>
      </trkpt>
      <trkpt lat="43.26312" lon="6.02887">
        <ele>588.46</ele>
        <time>2017-05-04T13:14:33Z</time>
      </trkpt>
      <trkpt lat="43.26304" lon="6.02878">
        <ele>588.95</ele>
        <time>2017-05-04T13:14:44Z</time>
      </trkpt>
      <trkpt lat="43.26301" lon="6.02876">
        <ele>589.43</ele>
        <time>2017-05-04T13:14:47Z</time>
      </trkpt>
      <trkpt lat="43.26293" lon="6.0287">
        <ele>590.39</ele>
        <time>2017-05-04T13:14:58Z</time>
      </trkpt>
      <trkpt lat="43.26285" lon="6.0286">
        <ele>590.87</ele>
        <time>2017-05-04T13:15:09Z</time>
      </trkpt>
      <trkpt lat="43.26275" lon="6.0285">
        <ele>591.83</ele>
        <time>2017-05-04T13:15:24Z</time>
      </trkpt>
      <trkpt lat="43.26275" lon="6.0285">
        <ele>592.31</ele>
        <time>2017-05-04T13:15:25Z</time>
      </trkpt>
      <trkpt lat="43.26271" lon="6.02846">
        <ele>592.31</ele>
        <time>2017-05-04T13:15:30Z</time>
      </trkpt>
      <trkpt lat="43.26261" lon="6.02837">
        <ele>592.79</ele>
        <time>2017-05-04T13:15:44Z</time>
      </trkpt>
      <trkpt lat="43.26253" lon="6.02825">
        <ele>593.75</ele>
        <time>2017-05-04T13:15:57Z</time>
      </trkpt>
      <trkpt lat="43.26251" lon="6.02822">
        <ele>593.75</ele>
        <time>2017-05-04T13:16:00Z</time>
      </trkpt>
      <trkpt lat="43.26247" lon="6.02817">
        <ele>593.75</ele>
        <time>2017-05-04T13:16:05Z</time>
      </trkpt>
      <trkpt lat="43.26246" lon="6.02817">
        <ele>594.71</ele>
        <time>2017-05-04T13:16:17Z</time>
      </trkpt>
      <trkpt lat="43.26245" lon="6.02817">
        <ele>594.23</ele>
        <time>2017-05-04T13:16:24Z</time>
      </trkpt>
      <trkpt lat="43.26242" lon="6.02816">
        <ele>594.23</ele>
        <time>2017-05-04T13:16:27Z</time>
      </trkpt>
      <trkpt lat="43.26238" lon="6.02811">
        <ele>594.71</ele>
        <time>2017-05-04T13:16:32Z</time>
      </trkpt>
      <trkpt lat="43.26233" lon="6.02804">
        <ele>595.19</ele>
        <time>2017-05-04T13:16:41Z</time>
      </trkpt>
      <trkpt lat="43.26223" lon="6.02796">
        <ele>595.19</ele>
        <time>2017-05-04T13:16:54Z</time>
      </trkpt>
      <trkpt lat="43.2622" lon="6.02793">
        <ele>595.67</ele>
        <time>2017-05-04T13:16:59Z</time>
      </trkpt>
      <trkpt lat="43.26212" lon="6.02781">
        <ele>595.67</ele>
        <time>2017-05-04T13:17:12Z</time>
      </trkpt>
      <trkpt lat="43.26211" lon="6.0278">
        <ele>595.67</ele>
        <time>2017-05-04T13:17:14Z</time>
      </trkpt>
      <trkpt lat="43.262" lon="6.02776">
        <ele>596.15</ele>
        <time>2017-05-04T13:17:26Z</time>
      </trkpt>
      <trkpt lat="43.26194" lon="6.02765">
        <ele>595.67</ele>
        <time>2017-05-04T13:17:39Z</time>
      </trkpt>
      <trkpt lat="43.26188" lon="6.02757">
        <ele>595.67</ele>
        <time>2017-05-04T13:17:49Z</time>
      </trkpt>
      <trkpt lat="43.26182" lon="6.02751">
        <ele>595.19</ele>
        <time>2017-05-04T13:17:57Z</time>
      </trkpt>
      <trkpt lat="43.26177" lon="6.02747">
        <ele>595.19</ele>
        <time>2017-05-04T13:18:04Z</time>
      </trkpt>
      <trkpt lat="43.26174" lon="6.02744">
        <ele>595.67</ele>
        <time>2017-05-04T13:18:08Z</time>
      </trkpt>
      <trkpt lat="43.26169" lon="6.02738">
        <ele>595.67</ele>
        <time>2017-05-04T13:18:17Z</time>
      </trkpt>
      <trkpt lat="43.26159" lon="6.02731">
        <ele>595.67</ele>
        <time>2017-05-04T13:18:32Z</time>
      </trkpt>
      <trkpt lat="43.26157" lon="6.02729">
        <ele>596.15</ele>
        <time>2017-05-04T13:18:35Z</time>
      </trkpt>
      <trkpt lat="43.26151" lon="6.02722">
        <ele>595.67</ele>
        <time>2017-05-04T13:18:45Z</time>
      </trkpt>
      <trkpt lat="43.26148" lon="6.02719">
        <ele>595.67</ele>
        <time>2017-05-04T13:18:49Z</time>
      </trkpt>
      <trkpt lat="43.26141" lon="6.0271">
        <ele>595.19</ele>
        <time>2017-05-04T13:19:01Z</time>
      </trkpt>
      <trkpt lat="43.26138" lon="6.02707">
        <ele>595.67</ele>
        <time>2017-05-04T13:19:05Z</time>
      </trkpt>
      <trkpt lat="43.26135" lon="6.02704">
        <ele>595.67</ele>
        <time>2017-05-04T13:19:09Z</time>
      </trkpt>
      <trkpt lat="43.26132" lon="6.02701">
        <ele>595.67</ele>
        <time>2017-05-04T13:19:13Z</time>
      </trkpt>
      <trkpt lat="43.26128" lon="6.02698">
        <ele>595.67</ele>
        <time>2017-05-04T13:19:18Z</time>
      </trkpt>
      <trkpt lat="43.26123" lon="6.02694">
        <ele>596.64</ele>
        <time>2017-05-04T13:19:25Z</time>
      </trkpt>
      <trkpt lat="43.26116" lon="6.0269">
        <ele>598.08</ele>
        <time>2017-05-04T13:19:38Z</time>
      </trkpt>
      <trkpt lat="43.26118" lon="6.02693">
        <ele>598.56</ele>
        <time>2017-05-04T13:19:55Z</time>
      </trkpt>
      <trkpt lat="43.26118" lon="6.02692">
        <ele>598.08</ele>
        <time>2017-05-04T13:20:10Z</time>
      </trkpt>
      <trkpt lat="43.26118" lon="6.02693">
        <ele>598.08</ele>
        <time>2017-05-04T13:20:28Z</time>
      </trkpt>
      <trkpt lat="43.26112" lon="6.02689">
        <ele>598.56</ele>
        <time>2017-05-04T13:20:41Z</time>
      </trkpt>
      <trkpt lat="43.26106" lon="6.02686">
        <ele>599.04</ele>
        <time>2017-05-04T13:20:48Z</time>
      </trkpt>
      <trkpt lat="43.26104" lon="6.02683">
        <ele>599.04</ele>
        <time>2017-05-04T13:20:51Z</time>
      </trkpt>
      <trkpt lat="43.26099" lon="6.02678">
        <ele>599.04</ele>
        <time>2017-05-04T13:20:59Z</time>
      </trkpt>
      <trkpt lat="43.2609" lon="6.02669">
        <ele>599.52</ele>
        <time>2017-05-04T13:21:10Z</time>
      </trkpt>
      <trkpt lat="43.26088" lon="6.02664">
        <ele>599.52</ele>
        <time>2017-05-04T13:21:15Z</time>
      </trkpt>
      <trkpt lat="43.26087" lon="6.0266">
        <ele>599.52</ele>
        <time>2017-05-04T13:21:19Z</time>
      </trkpt>
      <trkpt lat="43.26086" lon="6.02657">
        <ele>599.52</ele>
        <time>2017-05-04T13:21:23Z</time>
      </trkpt>
      <trkpt lat="43.26084" lon="6.02654">
        <ele>599.04</ele>
        <time>2017-05-04T13:21:26Z</time>
      </trkpt>
      <trkpt lat="43.26078" lon="6.02649">
        <ele>599.04</ele>
        <time>2017-05-04T13:21:34Z</time>
      </trkpt>
      <trkpt lat="43.26068" lon="6.02645">
        <ele>599.52</ele>
        <time>2017-05-04T13:21:48Z</time>
      </trkpt>
      <trkpt lat="43.26061" lon="6.02643">
        <ele>600</ele>
        <time>2017-05-04T13:21:55Z</time>
      </trkpt>
      <trkpt lat="43.26057" lon="6.02639">
        <ele>600</ele>
        <time>2017-05-04T13:22:00Z</time>
      </trkpt>
      <trkpt lat="43.26046" lon="6.02627">
        <ele>600.48</ele>
        <time>2017-05-04T13:22:13Z</time>
      </trkpt>
      <trkpt lat="43.26038" lon="6.02623">
        <ele>600.96</ele>
        <time>2017-05-04T13:22:22Z</time>
      </trkpt>
      <trkpt lat="43.26028" lon="6.02611">
        <ele>601.44</ele>
        <time>2017-05-04T13:22:35Z</time>
      </trkpt>
      <trkpt lat="43.26021" lon="6.026">
        <ele>601.44</ele>
        <time>2017-05-04T13:22:47Z</time>
      </trkpt>
      <trkpt lat="43.2602" lon="6.02598">
        <ele>601.44</ele>
        <time>2017-05-04T13:22:49Z</time>
      </trkpt>
      <trkpt lat="43.26018" lon="6.02591">
        <ele>600.96</ele>
        <time>2017-05-04T13:22:56Z</time>
      </trkpt>
      <trkpt lat="43.26015" lon="6.02584">
        <ele>600.48</ele>
        <time>2017-05-04T13:23:02Z</time>
      </trkpt>
      <trkpt lat="43.26013" lon="6.02574">
        <ele>600.48</ele>
        <time>2017-05-04T13:23:12Z</time>
      </trkpt>
      <trkpt lat="43.26008" lon="6.02563">
        <ele>599.52</ele>
        <time>2017-05-04T13:23:24Z</time>
      </trkpt>
      <trkpt lat="43.26002" lon="6.02549">
        <ele>598.08</ele>
        <time>2017-05-04T13:23:36Z</time>
      </trkpt>
      <trkpt lat="43.26002" lon="6.02542">
        <ele>597.6</ele>
        <time>2017-05-04T13:23:41Z</time>
      </trkpt>
      <trkpt lat="43.26002" lon="6.02539">
        <ele>597.6</ele>
        <time>2017-05-04T13:23:43Z</time>
      </trkpt>
      <trkpt lat="43.25997" lon="6.02529">
        <ele>597.6</ele>
        <time>2017-05-04T13:23:55Z</time>
      </trkpt>
      <trkpt lat="43.25986" lon="6.02518">
        <ele>598.08</ele>
        <time>2017-05-04T13:24:08Z</time>
      </trkpt>
      <trkpt lat="43.25984" lon="6.02512">
        <ele>597.12</ele>
        <time>2017-05-04T13:24:13Z</time>
      </trkpt>
      <trkpt lat="43.25982" lon="6.02505">
        <ele>595.67</ele>
        <time>2017-05-04T13:24:29Z</time>
      </trkpt>
      <trkpt lat="43.25979" lon="6.02497">
        <ele>595.19</ele>
        <time>2017-05-04T13:24:37Z</time>
      </trkpt>
      <trkpt lat="43.25974" lon="6.02485">
        <ele>595.19</ele>
        <time>2017-05-04T13:24:50Z</time>
      </trkpt>
      <trkpt lat="43.25963" lon="6.02484">
        <ele>596.15</ele>
        <time>2017-05-04T13:25:04Z</time>
      </trkpt>
      <trkpt lat="43.25954" lon="6.02489">
        <ele>598.08</ele>
        <time>2017-05-04T13:25:15Z</time>
      </trkpt>
      <trkpt lat="43.25942" lon="6.02487">
        <ele>599.04</ele>
        <time>2017-05-04T13:25:28Z</time>
      </trkpt>
      <trkpt lat="43.25939" lon="6.0248">
        <ele>600</ele>
        <time>2017-05-04T13:25:42Z</time>
      </trkpt>
      <trkpt lat="43.2593" lon="6.02471">
        <ele>601.44</ele>
        <time>2017-05-04T13:25:54Z</time>
      </trkpt>
      <trkpt lat="43.2592" lon="6.02463">
        <ele>600.48</ele>
        <time>2017-05-04T13:26:08Z</time>
      </trkpt>
      <trkpt lat="43.25911" lon="6.02453">
        <ele>598.56</ele>
        <time>2017-05-04T13:26:22Z</time>
      </trkpt>
      <trkpt lat="43.25911" lon="6.02451">
        <ele>598.56</ele>
        <time>2017-05-04T13:26:24Z</time>
      </trkpt>
      <trkpt lat="43.25911" lon="6.02437">
        <ele>597.12</ele>
        <time>2017-05-04T13:26:36Z</time>
      </trkpt>
      <trkpt lat="43.25908" lon="6.02427">
        <ele>596.15</ele>
        <time>2017-05-04T13:26:45Z</time>
      </trkpt>
      <trkpt lat="43.25907" lon="6.02419">
        <ele>595.67</ele>
        <time>2017-05-04T13:26:51Z</time>
      </trkpt>
      <trkpt lat="43.25906" lon="6.02413">
        <ele>595.19</ele>
        <time>2017-05-04T13:26:56Z</time>
      </trkpt>
      <trkpt lat="43.25904" lon="6.02401">
        <ele>594.23</ele>
        <time>2017-05-04T13:27:06Z</time>
      </trkpt>
      <trkpt lat="43.25903" lon="6.02399">
        <ele>593.75</ele>
        <time>2017-05-04T13:27:08Z</time>
      </trkpt>
      <trkpt lat="43.25897" lon="6.02386">
        <ele>592.31</ele>
        <time>2017-05-04T13:27:20Z</time>
      </trkpt>
      <trkpt lat="43.25891" lon="6.02373">
        <ele>591.35</ele>
        <time>2017-05-04T13:27:32Z</time>
      </trkpt>
      <trkpt lat="43.25887" lon="6.02363">
        <ele>590.39</ele>
        <time>2017-05-04T13:27:45Z</time>
      </trkpt>
      <trkpt lat="43.25883" lon="6.02352">
        <ele>589.43</ele>
        <time>2017-05-04T13:27:55Z</time>
      </trkpt>
      <trkpt lat="43.25883" lon="6.02347">
        <ele>588.46</ele>
        <time>2017-05-04T13:28:07Z</time>
      </trkpt>
      <trkpt lat="43.25866" lon="6.02339">
        <ele>590.39</ele>
        <time>2017-05-04T13:28:21Z</time>
      </trkpt>
      <trkpt lat="43.25862" lon="6.02336">
        <ele>591.35</ele>
        <time>2017-05-04T13:28:25Z</time>
      </trkpt>
      <trkpt lat="43.2586" lon="6.02336">
        <ele>591.35</ele>
        <time>2017-05-04T13:28:27Z</time>
      </trkpt>
      <trkpt lat="43.25851" lon="6.02327">
        <ele>592.31</ele>
        <time>2017-05-04T13:28:39Z</time>
      </trkpt>
      <trkpt lat="43.25852" lon="6.02325">
        <ele>592.79</ele>
        <time>2017-05-04T13:28:56Z</time>
      </trkpt>
      <trkpt lat="43.25852" lon="6.02325">
        <ele>591.83</ele>
        <time>2017-05-04T13:29:13Z</time>
      </trkpt>
      <trkpt lat="43.25853" lon="6.02325">
        <ele>592.31</ele>
        <time>2017-05-04T13:29:29Z</time>
      </trkpt>
      <trkpt lat="43.25853" lon="6.02327">
        <ele>591.35</ele>
        <time>2017-05-04T13:29:40Z</time>
      </trkpt>
      <trkpt lat="43.25854" lon="6.02327">
        <ele>591.35</ele>
        <time>2017-05-04T13:30:16Z</time>
      </trkpt>
      <trkpt lat="43.25854" lon="6.02327">
        <ele>591.35</ele>
        <time>2017-05-04T13:30:44Z</time>
      </trkpt>
      <trkpt lat="43.25854" lon="6.02329">
        <ele>591.83</ele>
        <time>2017-05-04T13:30:53Z</time>
      </trkpt>
      <trkpt lat="43.25854" lon="6.02334">
        <ele>591.35</ele>
        <time>2017-05-04T13:31:06Z</time>
      </trkpt>
      <trkpt lat="43.25855" lon="6.02334">
        <ele>591.35</ele>
        <time>2017-05-04T13:31:17Z</time>
      </trkpt>
      <trkpt lat="43.25855" lon="6.02328">
        <ele>592.79</ele>
        <time>2017-05-04T13:31:27Z</time>
      </trkpt>
      <trkpt lat="43.25855" lon="6.02328">
        <ele>591.35</ele>
        <time>2017-05-04T13:31:33Z</time>
      </trkpt>
      <trkpt lat="43.25853" lon="6.02325">
        <ele>592.31</ele>
        <time>2017-05-04T13:31:43Z</time>
      </trkpt>
      <trkpt lat="43.25852" lon="6.02322">
        <ele>592.31</ele>
        <time>2017-05-04T13:31:55Z</time>
      </trkpt>
      <trkpt lat="43.25851" lon="6.02322">
        <ele>592.31</ele>
        <time>2017-05-04T13:32:14Z</time>
      </trkpt>
      <trkpt lat="43.25851" lon="6.02321">
        <ele>592.79</ele>
        <time>2017-05-04T13:32:29Z</time>
      </trkpt>
      <trkpt lat="43.25852" lon="6.02321">
        <ele>592.79</ele>
        <time>2017-05-04T13:32:43Z</time>
      </trkpt>
      <trkpt lat="43.25852" lon="6.02322">
        <ele>592.31</ele>
        <time>2017-05-04T13:32:57Z</time>
      </trkpt>
      <trkpt lat="43.25852" lon="6.02321">
        <ele>592.31</ele>
        <time>2017-05-04T13:33:14Z</time>
      </trkpt>
      <trkpt lat="43.25852" lon="6.02319">
        <ele>591.83</ele>
        <time>2017-05-04T13:33:36Z</time>
      </trkpt>
      <trkpt lat="43.25852" lon="6.02319">
        <ele>592.31</ele>
        <time>2017-05-04T13:33:58Z</time>
      </trkpt>
      <trkpt lat="43.25852" lon="6.02319">
        <ele>592.79</ele>
        <time>2017-05-04T13:34:13Z</time>
      </trkpt>
      <trkpt lat="43.25852" lon="6.02319">
        <ele>592.79</ele>
        <time>2017-05-04T13:34:35Z</time>
      </trkpt>
      <trkpt lat="43.25852" lon="6.02319">
        <ele>592.79</ele>
        <time>2017-05-04T13:34:36Z</time>
      </trkpt>
      <trkpt lat="43.25851" lon="6.02315">
        <ele>592.31</ele>
        <time>2017-05-04T13:34:40Z</time>
      </trkpt>
      <trkpt lat="43.25854" lon="6.02304">
        <ele>589.91</ele>
        <time>2017-05-04T13:34:54Z</time>
      </trkpt>
      <trkpt lat="43.25851" lon="6.02293">
        <ele>587.5</ele>
        <time>2017-05-04T13:35:06Z</time>
      </trkpt>
      <trkpt lat="43.25847" lon="6.02283">
        <ele>587.02</ele>
        <time>2017-05-04T13:35:17Z</time>
      </trkpt>
      <trkpt lat="43.25838" lon="6.02268">
        <ele>586.06</ele>
        <time>2017-05-04T13:35:29Z</time>
      </trkpt>
      <trkpt lat="43.25835" lon="6.02254">
        <ele>585.1</ele>
        <time>2017-05-04T13:35:39Z</time>
      </trkpt>
      <trkpt lat="43.25832" lon="6.02237">
        <ele>582.7</ele>
        <time>2017-05-04T13:35:51Z</time>
      </trkpt>
      <trkpt lat="43.25829" lon="6.02222">
        <ele>581.25</ele>
        <time>2017-05-04T13:36:00Z</time>
      </trkpt>
      <trkpt lat="43.25824" lon="6.02198">
        <ele>579.33</ele>
        <time>2017-05-04T13:36:09Z</time>
      </trkpt>
      <trkpt lat="43.25823" lon="6.02194">
        <ele>578.37</ele>
        <time>2017-05-04T13:36:12Z</time>
      </trkpt>
      <trkpt lat="43.25822" lon="6.02192">
        <ele>578.37</ele>
        <time>2017-05-04T13:36:14Z</time>
      </trkpt>
      <trkpt lat="43.2582" lon="6.0218">
        <ele>576.93</ele>
        <time>2017-05-04T13:36:24Z</time>
      </trkpt>
      <trkpt lat="43.2582" lon="6.02173">
        <ele>575.49</ele>
        <time>2017-05-04T13:36:29Z</time>
      </trkpt>
      <trkpt lat="43.25818" lon="6.02159">
        <ele>574.04</ele>
        <time>2017-05-04T13:36:41Z</time>
      </trkpt>
      <trkpt lat="43.25818" lon="6.02157">
        <ele>574.04</ele>
        <time>2017-05-04T13:36:51Z</time>
      </trkpt>
      <trkpt lat="43.25817" lon="6.02154">
        <ele>573.56</ele>
        <time>2017-05-04T13:36:53Z</time>
      </trkpt>
      <trkpt lat="43.25815" lon="6.02137">
        <ele>572.12</ele>
        <time>2017-05-04T13:37:05Z</time>
      </trkpt>
      <trkpt lat="43.25814" lon="6.02128">
        <ele>572.6</ele>
        <time>2017-05-04T13:37:14Z</time>
      </trkpt>
      <trkpt lat="43.25811" lon="6.02119">
        <ele>572.12</ele>
        <time>2017-05-04T13:37:24Z</time>
      </trkpt>
      <trkpt lat="43.25805" lon="6.02104">
        <ele>571.16</ele>
        <time>2017-05-04T13:37:36Z</time>
      </trkpt>
      <trkpt lat="43.25799" lon="6.02089">
        <ele>570.2</ele>
        <time>2017-05-04T13:37:48Z</time>
      </trkpt>
      <trkpt lat="43.25795" lon="6.02084">
        <ele>570.68</ele>
        <time>2017-05-04T13:37:53Z</time>
      </trkpt>
      <trkpt lat="43.25789" lon="6.02072">
        <ele>569.24</ele>
        <time>2017-05-04T13:38:06Z</time>
      </trkpt>
      <trkpt lat="43.25788" lon="6.02068">
        <ele>569.72</ele>
        <time>2017-05-04T13:38:09Z</time>
      </trkpt>
      <trkpt lat="43.25781" lon="6.02049">
        <ele>568.28</ele>
        <time>2017-05-04T13:38:24Z</time>
      </trkpt>
      <trkpt lat="43.2578" lon="6.02048">
        <ele>568.28</ele>
        <time>2017-05-04T13:38:25Z</time>
      </trkpt>
      <trkpt lat="43.25779" lon="6.02042">
        <ele>568.28</ele>
        <time>2017-05-04T13:38:29Z</time>
      </trkpt>
      <trkpt lat="43.25776" lon="6.02036">
        <ele>567.8</ele>
        <time>2017-05-04T13:38:34Z</time>
      </trkpt>
      <trkpt lat="43.25775" lon="6.02029">
        <ele>566.83</ele>
        <time>2017-05-04T13:38:39Z</time>
      </trkpt>
      <trkpt lat="43.25772" lon="6.02014">
        <ele>565.87</ele>
        <time>2017-05-04T13:38:49Z</time>
      </trkpt>
      <trkpt lat="43.25771" lon="6.02009">
        <ele>565.87</ele>
        <time>2017-05-04T13:38:53Z</time>
      </trkpt>
      <trkpt lat="43.25768" lon="6.01987">
        <ele>564.43</ele>
        <time>2017-05-04T13:39:08Z</time>
      </trkpt>
      <trkpt lat="43.25766" lon="6.01972">
        <ele>563.47</ele>
        <time>2017-05-04T13:39:19Z</time>
      </trkpt>
      <trkpt lat="43.25766" lon="6.0197">
        <ele>563.47</ele>
        <time>2017-05-04T13:39:20Z</time>
      </trkpt>
      <trkpt lat="43.25766" lon="6.01965">
        <ele>563.47</ele>
        <time>2017-05-04T13:39:24Z</time>
      </trkpt>
      <trkpt lat="43.25761" lon="6.01943">
        <ele>562.51</ele>
        <time>2017-05-04T13:39:40Z</time>
      </trkpt>
      <trkpt lat="43.25759" lon="6.01935">
        <ele>562.03</ele>
        <time>2017-05-04T13:39:46Z</time>
      </trkpt>
      <trkpt lat="43.25758" lon="6.01933">
        <ele>562.03</ele>
        <time>2017-05-04T13:39:48Z</time>
      </trkpt>
      <trkpt lat="43.25756" lon="6.01923">
        <ele>561.55</ele>
        <time>2017-05-04T13:39:55Z</time>
      </trkpt>
      <trkpt lat="43.25749" lon="6.01903">
        <ele>560.59</ele>
        <time>2017-05-04T13:40:09Z</time>
      </trkpt>
      <trkpt lat="43.25748" lon="6.01902">
        <ele>560.11</ele>
        <time>2017-05-04T13:40:10Z</time>
      </trkpt>
      <trkpt lat="43.25746" lon="6.01894">
        <ele>559.62</ele>
        <time>2017-05-04T13:40:16Z</time>
      </trkpt>
      <trkpt lat="43.25741" lon="6.01876">
        <ele>557.7</ele>
        <time>2017-05-04T13:40:29Z</time>
      </trkpt>
      <trkpt lat="43.25737" lon="6.01858">
        <ele>556.26</ele>
        <time>2017-05-04T13:40:41Z</time>
      </trkpt>
      <trkpt lat="43.25735" lon="6.01839">
        <ele>555.3</ele>
        <time>2017-05-04T13:40:53Z</time>
      </trkpt>
      <trkpt lat="43.25734" lon="6.01838">
        <ele>554.82</ele>
        <time>2017-05-04T13:40:54Z</time>
      </trkpt>
      <trkpt lat="43.25733" lon="6.0182">
        <ele>554.34</ele>
        <time>2017-05-04T13:41:05Z</time>
      </trkpt>
      <trkpt lat="43.25731" lon="6.01805">
        <ele>552.9</ele>
        <time>2017-05-04T13:41:15Z</time>
      </trkpt>
      <trkpt lat="43.25731" lon="6.01802">
        <ele>552.9</ele>
        <time>2017-05-04T13:41:17Z</time>
      </trkpt>
      <trkpt lat="43.25729" lon="6.01798">
        <ele>552.41</ele>
        <time>2017-05-04T13:41:20Z</time>
      </trkpt>
      <trkpt lat="43.25727" lon="6.01789">
        <ele>551.93</ele>
        <time>2017-05-04T13:41:27Z</time>
      </trkpt>
      <trkpt lat="43.25722" lon="6.01783">
        <ele>550.97</ele>
        <time>2017-05-04T13:41:35Z</time>
      </trkpt>
      <trkpt lat="43.25713" lon="6.01778">
        <ele>549.05</ele>
        <time>2017-05-04T13:41:51Z</time>
      </trkpt>
      <trkpt lat="43.25709" lon="6.01777">
        <ele>547.13</ele>
        <time>2017-05-04T13:42:05Z</time>
      </trkpt>
      <trkpt lat="43.25705" lon="6.01777">
        <ele>545.69</ele>
        <time>2017-05-04T13:42:19Z</time>
      </trkpt>
      <trkpt lat="43.25706" lon="6.01784">
        <ele>543.76</ele>
        <time>2017-05-04T13:42:25Z</time>
      </trkpt>
      <trkpt lat="43.25707" lon="6.01789">
        <ele>543.28</ele>
        <time>2017-05-04T13:42:29Z</time>
      </trkpt>
      <trkpt lat="43.25708" lon="6.01793">
        <ele>542.8</ele>
        <time>2017-05-04T13:42:32Z</time>
      </trkpt>
      <trkpt lat="43.25709" lon="6.01796">
        <ele>541.84</ele>
        <time>2017-05-04T13:42:34Z</time>
      </trkpt>
      <trkpt lat="43.25705" lon="6.01799">
        <ele>539.92</ele>
        <time>2017-05-04T13:42:47Z</time>
      </trkpt>
      <trkpt lat="43.257" lon="6.01792">
        <ele>538.48</ele>
        <time>2017-05-04T13:42:58Z</time>
      </trkpt>
      <trkpt lat="43.25695" lon="6.01787">
        <ele>537.99</ele>
        <time>2017-05-04T13:43:09Z</time>
      </trkpt>
      <trkpt lat="43.25693" lon="6.01782">
        <ele>537.03</ele>
        <time>2017-05-04T13:43:25Z</time>
      </trkpt>
      <trkpt lat="43.2569" lon="6.01784">
        <ele>535.11</ele>
        <time>2017-05-04T13:43:37Z</time>
      </trkpt>
      <trkpt lat="43.25692" lon="6.01792">
        <ele>533.67</ele>
        <time>2017-05-04T13:43:45Z</time>
      </trkpt>
      <trkpt lat="43.2569" lon="6.01798">
        <ele>531.75</ele>
        <time>2017-05-04T13:43:58Z</time>
      </trkpt>
      <trkpt lat="43.2568" lon="6.01792">
        <ele>529.34</ele>
        <time>2017-05-04T13:44:12Z</time>
      </trkpt>
      <trkpt lat="43.25678" lon="6.01787">
        <ele>528.38</ele>
        <time>2017-05-04T13:44:17Z</time>
      </trkpt>
      <trkpt lat="43.25674" lon="6.01778">
        <ele>525.98</ele>
        <time>2017-05-04T13:44:28Z</time>
      </trkpt>
      <trkpt lat="43.2567" lon="6.01774">
        <ele>523.58</ele>
        <time>2017-05-04T13:44:39Z</time>
      </trkpt>
      <trkpt lat="43.25666" lon="6.0177">
        <ele>520.69</ele>
        <time>2017-05-04T13:44:52Z</time>
      </trkpt>
      <trkpt lat="43.25662" lon="6.01764">
        <ele>519.73</ele>
        <time>2017-05-04T13:44:57Z</time>
      </trkpt>
      <trkpt lat="43.25652" lon="6.0176">
        <ele>517.33</ele>
        <time>2017-05-04T13:45:10Z</time>
      </trkpt>
      <trkpt lat="43.25653" lon="6.01771">
        <ele>515.4</ele>
        <time>2017-05-04T13:45:23Z</time>
      </trkpt>
      <trkpt lat="43.25651" lon="6.01769">
        <ele>512.52</ele>
        <time>2017-05-04T13:45:36Z</time>
      </trkpt>
      <trkpt lat="43.25647" lon="6.01768">
        <ele>510.12</ele>
        <time>2017-05-04T13:45:49Z</time>
      </trkpt>
      <trkpt lat="43.25639" lon="6.01765">
        <ele>507.71</ele>
        <time>2017-05-04T13:46:00Z</time>
      </trkpt>
      <trkpt lat="43.25626" lon="6.01759">
        <ele>504.83</ele>
        <time>2017-05-04T13:46:13Z</time>
      </trkpt>
      <trkpt lat="43.25612" lon="6.0175">
        <ele>501.46</ele>
        <time>2017-05-04T13:46:27Z</time>
      </trkpt>
      <trkpt lat="43.25604" lon="6.01737">
        <ele>498.1</ele>
        <time>2017-05-04T13:46:40Z</time>
      </trkpt>
      <trkpt lat="43.25599" lon="6.01729">
        <ele>495.22</ele>
        <time>2017-05-04T13:46:51Z</time>
      </trkpt>
      <trkpt lat="43.25596" lon="6.01726">
        <ele>493.77</ele>
        <time>2017-05-04T13:46:56Z</time>
      </trkpt>
      <trkpt lat="43.25588" lon="6.01722">
        <ele>490.41</ele>
        <time>2017-05-04T13:47:06Z</time>
      </trkpt>
      <trkpt lat="43.25583" lon="6.01719">
        <ele>488.97</ele>
        <time>2017-05-04T13:47:12Z</time>
      </trkpt>
      <trkpt lat="43.2558" lon="6.01714">
        <ele>488.49</ele>
        <time>2017-05-04T13:47:14Z</time>
      </trkpt>
      <trkpt lat="43.25575" lon="6.01701">
        <ele>486.08</ele>
        <time>2017-05-04T13:47:23Z</time>
      </trkpt>
      <trkpt lat="43.25569" lon="6.01689">
        <ele>483.2</ele>
        <time>2017-05-04T13:47:36Z</time>
      </trkpt>
      <trkpt lat="43.25563" lon="6.01676">
        <ele>479.84</ele>
        <time>2017-05-04T13:47:48Z</time>
      </trkpt>
      <trkpt lat="43.25555" lon="6.01664">
        <ele>476.47</ele>
        <time>2017-05-04T13:48:00Z</time>
      </trkpt>
      <trkpt lat="43.25547" lon="6.01653">
        <ele>474.07</ele>
        <time>2017-05-04T13:48:12Z</time>
      </trkpt>
      <trkpt lat="43.25543" lon="6.0164">
        <ele>471.66</ele>
        <time>2017-05-04T13:48:24Z</time>
      </trkpt>
      <trkpt lat="43.25538" lon="6.01624">
        <ele>468.3</ele>
        <time>2017-05-04T13:48:39Z</time>
      </trkpt>
      <trkpt lat="43.25536" lon="6.01619">
        <ele>467.34</ele>
        <time>2017-05-04T13:48:43Z</time>
      </trkpt>
      <trkpt lat="43.25529" lon="6.01607">
        <ele>464.45</ele>
        <time>2017-05-04T13:48:55Z</time>
      </trkpt>
      <trkpt lat="43.25527" lon="6.01597">
        <ele>462.53</ele>
        <time>2017-05-04T13:49:02Z</time>
      </trkpt>
      <trkpt lat="43.25527" lon="6.01587">
        <ele>460.61</ele>
        <time>2017-05-04T13:49:09Z</time>
      </trkpt>
      <trkpt lat="43.25526" lon="6.0158">
        <ele>459.65</ele>
        <time>2017-05-04T13:49:13Z</time>
      </trkpt>
      <trkpt lat="43.25525" lon="6.01576">
        <ele>458.69</ele>
        <time>2017-05-04T13:49:16Z</time>
      </trkpt>
      <trkpt lat="43.25521" lon="6.01559">
        <ele>455.32</ele>
        <time>2017-05-04T13:49:28Z</time>
      </trkpt>
      <trkpt lat="43.25519" lon="6.01556">
        <ele>454.36</ele>
        <time>2017-05-04T13:49:31Z</time>
      </trkpt>
      <trkpt lat="43.25516" lon="6.01549">
        <ele>452.92</ele>
        <time>2017-05-04T13:49:36Z</time>
      </trkpt>
      <trkpt lat="43.25514" lon="6.0154">
        <ele>451</ele>
        <time>2017-05-04T13:49:42Z</time>
      </trkpt>
      <trkpt lat="43.25511" lon="6.01537">
        <ele>450.03</ele>
        <time>2017-05-04T13:49:45Z</time>
      </trkpt>
      <trkpt lat="43.25509" lon="6.01526">
        <ele>448.59</ele>
        <time>2017-05-04T13:49:53Z</time>
      </trkpt>
      <trkpt lat="43.25508" lon="6.01523">
        <ele>448.11</ele>
        <time>2017-05-04T13:49:55Z</time>
      </trkpt>
      <trkpt lat="43.25506" lon="6.01519">
        <ele>447.15</ele>
        <time>2017-05-04T13:49:59Z</time>
      </trkpt>
      <trkpt lat="43.25506" lon="6.01516">
        <ele>446.67</ele>
        <time>2017-05-04T13:50:01Z</time>
      </trkpt>
      <trkpt lat="43.25504" lon="6.01498">
        <ele>444.75</ele>
        <time>2017-05-04T13:50:12Z</time>
      </trkpt>
      <trkpt lat="43.25505" lon="6.01494">
        <ele>444.75</ele>
        <time>2017-05-04T13:50:15Z</time>
      </trkpt>
      <trkpt lat="43.25504" lon="6.01476">
        <ele>443.31</ele>
        <time>2017-05-04T13:50:25Z</time>
      </trkpt>
      <trkpt lat="43.25506" lon="6.01457">
        <ele>440.9</ele>
        <time>2017-05-04T13:50:38Z</time>
      </trkpt>
      <trkpt lat="43.2551" lon="6.01444">
        <ele>439.46</ele>
        <time>2017-05-04T13:50:46Z</time>
      </trkpt>
      <trkpt lat="43.25509" lon="6.01439">
        <ele>438.98</ele>
        <time>2017-05-04T13:50:49Z</time>
      </trkpt>
      <trkpt lat="43.25508" lon="6.01436">
        <ele>438.98</ele>
        <time>2017-05-04T13:50:51Z</time>
      </trkpt>
      <trkpt lat="43.25505" lon="6.01421">
        <ele>438.5</ele>
        <time>2017-05-04T13:51:00Z</time>
      </trkpt>
      <trkpt lat="43.25498" lon="6.01408">
        <ele>436.58</ele>
        <time>2017-05-04T13:51:13Z</time>
      </trkpt>
      <trkpt lat="43.25491" lon="6.01398">
        <ele>433.21</ele>
        <time>2017-05-04T13:51:27Z</time>
      </trkpt>
      <trkpt lat="43.25486" lon="6.01394">
        <ele>432.73</ele>
        <time>2017-05-04T13:51:38Z</time>
      </trkpt>
      <trkpt lat="43.25487" lon="6.01394">
        <ele>431.77</ele>
        <time>2017-05-04T13:51:52Z</time>
      </trkpt>
      <trkpt lat="43.25487" lon="6.01396">
        <ele>431.77</ele>
        <time>2017-05-04T13:52:27Z</time>
      </trkpt>
      <trkpt lat="43.25487" lon="6.01395">
        <ele>432.25</ele>
        <time>2017-05-04T13:53:01Z</time>
      </trkpt>
      <trkpt lat="43.25486" lon="6.01395">
        <ele>432.73</ele>
        <time>2017-05-04T13:53:36Z</time>
      </trkpt>
      <trkpt lat="43.25486" lon="6.01396">
        <ele>432.73</ele>
        <time>2017-05-04T13:54:06Z</time>
      </trkpt>
      <trkpt lat="43.25485" lon="6.01395">
        <ele>432.73</ele>
        <time>2017-05-04T13:54:39Z</time>
      </trkpt>
      <trkpt lat="43.25486" lon="6.01395">
        <ele>433.21</ele>
        <time>2017-05-04T13:55:12Z</time>
      </trkpt>
      <trkpt lat="43.25486" lon="6.01393">
        <ele>434.17</ele>
        <time>2017-05-04T13:55:27Z</time>
      </trkpt>
      <trkpt lat="43.25485" lon="6.01393">
        <ele>433.69</ele>
        <time>2017-05-04T13:55:41Z</time>
      </trkpt>
      <trkpt lat="43.25485" lon="6.01393">
        <ele>434.17</ele>
        <time>2017-05-04T13:55:58Z</time>
      </trkpt>
      <trkpt lat="43.25485" lon="6.01392">
        <ele>433.21</ele>
        <time>2017-05-04T13:56:12Z</time>
      </trkpt>
      <trkpt lat="43.25485" lon="6.01392">
        <ele>434.17</ele>
        <time>2017-05-04T13:56:20Z</time>
      </trkpt>
      <trkpt lat="43.25484" lon="6.0139">
        <ele>433.21</ele>
        <time>2017-05-04T13:56:35Z</time>
      </trkpt>
      <trkpt lat="43.25484" lon="6.01386">
        <ele>432.25</ele>
        <time>2017-05-04T13:56:55Z</time>
      </trkpt>
      <trkpt lat="43.25482" lon="6.01381">
        <ele>431.77</ele>
        <time>2017-05-04T13:57:09Z</time>
      </trkpt>
      <trkpt lat="43.2548" lon="6.01371">
        <ele>429.37</ele>
        <time>2017-05-04T13:57:22Z</time>
      </trkpt>
      <trkpt lat="43.25477" lon="6.01362">
        <ele>426.96</ele>
        <time>2017-05-04T13:57:33Z</time>
      </trkpt>
      <trkpt lat="43.25473" lon="6.01359">
        <ele>426</ele>
        <time>2017-05-04T13:57:38Z</time>
      </trkpt>
      <trkpt lat="43.25466" lon="6.01348">
        <ele>423.12</ele>
        <time>2017-05-04T13:57:50Z</time>
      </trkpt>
      <trkpt lat="43.25459" lon="6.01336">
        <ele>420.23</ele>
        <time>2017-05-04T13:58:03Z</time>
      </trkpt>
      <trkpt lat="43.25455" lon="6.01324">
        <ele>418.31</ele>
        <time>2017-05-04T13:58:15Z</time>
      </trkpt>
      <trkpt lat="43.25451" lon="6.01313">
        <ele>415.91</ele>
        <time>2017-05-04T13:58:28Z</time>
      </trkpt>
      <trkpt lat="43.25447" lon="6.01306">
        <ele>413.98</ele>
        <time>2017-05-04T13:58:40Z</time>
      </trkpt>
      <trkpt lat="43.25443" lon="6.01299">
        <ele>412.06</ele>
        <time>2017-05-04T13:58:54Z</time>
      </trkpt>
      <trkpt lat="43.25439" lon="6.01293">
        <ele>410.14</ele>
        <time>2017-05-04T13:59:04Z</time>
      </trkpt>
      <trkpt lat="43.25435" lon="6.01287">
        <ele>407.74</ele>
        <time>2017-05-04T13:59:18Z</time>
      </trkpt>
      <trkpt lat="43.25428" lon="6.01287">
        <ele>404.85</ele>
        <time>2017-05-04T13:59:31Z</time>
      </trkpt>
      <trkpt lat="43.25419" lon="6.01289">
        <ele>402.45</ele>
        <time>2017-05-04T13:59:45Z</time>
      </trkpt>
      <trkpt lat="43.2541" lon="6.01292">
        <ele>400.53</ele>
        <time>2017-05-04T13:59:56Z</time>
      </trkpt>
      <trkpt lat="43.25402" lon="6.01298">
        <ele>398.6</ele>
        <time>2017-05-04T14:00:07Z</time>
      </trkpt>
      <trkpt lat="43.25397" lon="6.01289">
        <ele>396.2</ele>
        <time>2017-05-04T14:00:21Z</time>
      </trkpt>
      <trkpt lat="43.25394" lon="6.0128">
        <ele>394.28</ele>
        <time>2017-05-04T14:00:32Z</time>
      </trkpt>
      <trkpt lat="43.25391" lon="6.01268">
        <ele>392.36</ele>
        <time>2017-05-04T14:00:45Z</time>
      </trkpt>
      <trkpt lat="43.25385" lon="6.0127">
        <ele>389.47</ele>
        <time>2017-05-04T14:00:59Z</time>
      </trkpt>
      <trkpt lat="43.25379" lon="6.01269">
        <ele>387.55</ele>
        <time>2017-05-04T14:01:11Z</time>
      </trkpt>
      <trkpt lat="43.25371" lon="6.01267">
        <ele>384.66</ele>
        <time>2017-05-04T14:01:24Z</time>
      </trkpt>
      <trkpt lat="43.25358" lon="6.01269">
        <ele>382.26</ele>
        <time>2017-05-04T14:01:40Z</time>
      </trkpt>
      <trkpt lat="43.25349" lon="6.01268">
        <ele>380.34</ele>
        <time>2017-05-04T14:01:53Z</time>
      </trkpt>
      <trkpt lat="43.25339" lon="6.01269">
        <ele>378.42</ele>
        <time>2017-05-04T14:02:06Z</time>
      </trkpt>
      <trkpt lat="43.25332" lon="6.01272">
        <ele>376.49</ele>
        <time>2017-05-04T14:02:18Z</time>
      </trkpt>
      <trkpt lat="43.25329" lon="6.01272">
        <ele>376.01</ele>
        <time>2017-05-04T14:02:21Z</time>
      </trkpt>
      <trkpt lat="43.25318" lon="6.01276">
        <ele>374.09</ele>
        <time>2017-05-04T14:02:33Z</time>
      </trkpt>
      <trkpt lat="43.25313" lon="6.01277">
        <ele>373.13</ele>
        <time>2017-05-04T14:02:47Z</time>
      </trkpt>
      <trkpt lat="43.25302" lon="6.01285">
        <ele>370.24</ele>
        <time>2017-05-04T14:03:04Z</time>
      </trkpt>
      <trkpt lat="43.25293" lon="6.0129">
        <ele>367.36</ele>
        <time>2017-05-04T14:03:19Z</time>
      </trkpt>
      <trkpt lat="43.25289" lon="6.013">
        <ele>365.44</ele>
        <time>2017-05-04T14:03:31Z</time>
      </trkpt>
      <trkpt lat="43.25283" lon="6.01303">
        <ele>363.04</ele>
        <time>2017-05-04T14:03:44Z</time>
      </trkpt>
      <trkpt lat="43.25277" lon="6.01308">
        <ele>360.63</ele>
        <time>2017-05-04T14:03:56Z</time>
      </trkpt>
      <trkpt lat="43.25266" lon="6.01313">
        <ele>358.71</ele>
        <time>2017-05-04T14:04:11Z</time>
      </trkpt>
      <trkpt lat="43.25253" lon="6.01314">
        <ele>356.31</ele>
        <time>2017-05-04T14:04:28Z</time>
      </trkpt>
      <trkpt lat="43.2524" lon="6.01314">
        <ele>352.94</ele>
        <time>2017-05-04T14:04:45Z</time>
      </trkpt>
      <trkpt lat="43.2523" lon="6.01318">
        <ele>351.02</ele>
        <time>2017-05-04T14:04:59Z</time>
      </trkpt>
      <trkpt lat="43.25228" lon="6.01317">
        <ele>350.54</ele>
        <time>2017-05-04T14:05:02Z</time>
      </trkpt>
      <trkpt lat="43.25224" lon="6.01316">
        <ele>348.62</ele>
        <time>2017-05-04T14:05:12Z</time>
      </trkpt>
      <trkpt lat="43.25215" lon="6.01312">
        <ele>346.69</ele>
        <time>2017-05-04T14:05:25Z</time>
      </trkpt>
      <trkpt lat="43.25204" lon="6.01311">
        <ele>343.81</ele>
        <time>2017-05-04T14:05:40Z</time>
      </trkpt>
      <trkpt lat="43.25195" lon="6.0131">
        <ele>341.89</ele>
        <time>2017-05-04T14:05:53Z</time>
      </trkpt>
      <trkpt lat="43.25181" lon="6.01309">
        <ele>340.44</ele>
        <time>2017-05-04T14:06:04Z</time>
      </trkpt>
      <trkpt lat="43.25168" lon="6.01302">
        <ele>339.48</ele>
        <time>2017-05-04T14:06:16Z</time>
      </trkpt>
      <trkpt lat="43.25165" lon="6.01298">
        <ele>339</ele>
        <time>2017-05-04T14:06:20Z</time>
      </trkpt>
      <trkpt lat="43.25161" lon="6.01293">
        <ele>338.52</ele>
        <time>2017-05-04T14:06:24Z</time>
      </trkpt>
      <trkpt lat="43.25155" lon="6.01279">
        <ele>337.56</ele>
        <time>2017-05-04T14:06:35Z</time>
      </trkpt>
      <trkpt lat="43.25154" lon="6.01278">
        <ele>337.56</ele>
        <time>2017-05-04T14:06:36Z</time>
      </trkpt>
      <trkpt lat="43.25149" lon="6.01271">
        <ele>336.6</ele>
        <time>2017-05-04T14:06:43Z</time>
      </trkpt>
      <trkpt lat="43.25147" lon="6.01268">
        <ele>336.12</ele>
        <time>2017-05-04T14:06:46Z</time>
      </trkpt>
      <trkpt lat="43.2514" lon="6.01261">
        <ele>333.71</ele>
        <time>2017-05-04T14:06:58Z</time>
      </trkpt>
      <trkpt lat="43.25128" lon="6.01258">
        <ele>332.75</ele>
        <time>2017-05-04T14:07:11Z</time>
      </trkpt>
      <trkpt lat="43.25121" lon="6.01254">
        <ele>331.79</ele>
        <time>2017-05-04T14:07:17Z</time>
      </trkpt>
      <trkpt lat="43.25112" lon="6.01251">
        <ele>330.83</ele>
        <time>2017-05-04T14:07:24Z</time>
      </trkpt>
      <trkpt lat="43.25101" lon="6.01247">
        <ele>329.87</ele>
        <time>2017-05-04T14:07:35Z</time>
      </trkpt>
      <trkpt lat="43.25097" lon="6.01244">
        <ele>329.39</ele>
        <time>2017-05-04T14:07:40Z</time>
      </trkpt>
      <trkpt lat="43.25085" lon="6.0123">
        <ele>328.91</ele>
        <time>2017-05-04T14:07:54Z</time>
      </trkpt>
      <trkpt lat="43.25076" lon="6.01219">
        <ele>328.91</ele>
        <time>2017-05-04T14:08:06Z</time>
      </trkpt>
      <trkpt lat="43.25064" lon="6.01205">
        <ele>327.47</ele>
        <time>2017-05-04T14:08:22Z</time>
      </trkpt>
      <trkpt lat="43.25055" lon="6.01194">
        <ele>326.5</ele>
        <time>2017-05-04T14:08:34Z</time>
      </trkpt>
      <trkpt lat="43.25048" lon="6.01188">
        <ele>325.54</ele>
        <time>2017-05-04T14:08:43Z</time>
      </trkpt>
      <trkpt lat="43.25044" lon="6.01187">
        <ele>324.58</ele>
        <time>2017-05-04T14:08:48Z</time>
      </trkpt>
      <trkpt lat="43.25038" lon="6.01185">
        <ele>323.62</ele>
        <time>2017-05-04T14:08:53Z</time>
      </trkpt>
      <trkpt lat="43.25029" lon="6.01173">
        <ele>321.22</ele>
        <time>2017-05-04T14:09:07Z</time>
      </trkpt>
      <trkpt lat="43.25023" lon="6.01163">
        <ele>319.78</ele>
        <time>2017-05-04T14:09:20Z</time>
      </trkpt>
      <trkpt lat="43.25014" lon="6.01155">
        <ele>317.37</ele>
        <time>2017-05-04T14:09:33Z</time>
      </trkpt>
      <trkpt lat="43.25005" lon="6.01138">
        <ele>316.41</ele>
        <time>2017-05-04T14:09:46Z</time>
      </trkpt>
      <trkpt lat="43.25003" lon="6.01132">
        <ele>315.93</ele>
        <time>2017-05-04T14:09:51Z</time>
      </trkpt>
      <trkpt lat="43.25002" lon="6.01122">
        <ele>314.97</ele>
        <time>2017-05-04T14:09:59Z</time>
      </trkpt>
      <trkpt lat="43.24999" lon="6.01105">
        <ele>313.05</ele>
        <time>2017-05-04T14:10:12Z</time>
      </trkpt>
      <trkpt lat="43.24999" lon="6.0109">
        <ele>311.12</ele>
        <time>2017-05-04T14:10:24Z</time>
      </trkpt>
      <trkpt lat="43.24999" lon="6.01088">
        <ele>311.12</ele>
        <time>2017-05-04T14:10:25Z</time>
      </trkpt>
      <trkpt lat="43.24999" lon="6.01085">
        <ele>311.12</ele>
        <time>2017-05-04T14:10:27Z</time>
      </trkpt>
      <trkpt lat="43.25001" lon="6.01075">
        <ele>309.68</ele>
        <time>2017-05-04T14:10:41Z</time>
      </trkpt>
      <trkpt lat="43.25002" lon="6.01071">
        <ele>308.24</ele>
        <time>2017-05-04T14:10:50Z</time>
      </trkpt>
      <trkpt lat="43.25001" lon="6.0106">
        <ele>306.32</ele>
        <time>2017-05-04T14:11:00Z</time>
      </trkpt>
      <trkpt lat="43.25006" lon="6.01041">
        <ele>303.91</ele>
        <time>2017-05-04T14:11:15Z</time>
      </trkpt>
      <trkpt lat="43.25009" lon="6.01032">
        <ele>302.47</ele>
        <time>2017-05-04T14:11:23Z</time>
      </trkpt>
      <trkpt lat="43.25012" lon="6.01026">
        <ele>301.03</ele>
        <time>2017-05-04T14:11:29Z</time>
      </trkpt>
      <trkpt lat="43.25014" lon="6.01011">
        <ele>300.07</ele>
        <time>2017-05-04T14:11:41Z</time>
      </trkpt>
      <trkpt lat="43.25015" lon="6.00996">
        <ele>299.11</ele>
        <time>2017-05-04T14:11:53Z</time>
      </trkpt>
      <trkpt lat="43.25015" lon="6.00995">
        <ele>299.11</ele>
        <time>2017-05-04T14:11:54Z</time>
      </trkpt>
      <trkpt lat="43.25016" lon="6.00988">
        <ele>299.11</ele>
        <time>2017-05-04T14:11:59Z</time>
      </trkpt>
      <trkpt lat="43.25017" lon="6.00983">
        <ele>298.63</ele>
        <time>2017-05-04T14:12:02Z</time>
      </trkpt>
      <trkpt lat="43.25021" lon="6.00966">
        <ele>298.63</ele>
        <time>2017-05-04T14:12:15Z</time>
      </trkpt>
      <trkpt lat="43.25022" lon="6.00954">
        <ele>298.63</ele>
        <time>2017-05-04T14:12:24Z</time>
      </trkpt>
      <trkpt lat="43.25018" lon="6.00933">
        <ele>300.07</ele>
        <time>2017-05-04T14:12:39Z</time>
      </trkpt>
      <trkpt lat="43.25018" lon="6.0093">
        <ele>300.07</ele>
        <time>2017-05-04T14:12:41Z</time>
      </trkpt>
      <trkpt lat="43.25015" lon="6.00926">
        <ele>300.07</ele>
        <time>2017-05-04T14:12:44Z</time>
      </trkpt>
      <trkpt lat="43.25011" lon="6.00913">
        <ele>300.07</ele>
        <time>2017-05-04T14:12:54Z</time>
      </trkpt>
      <trkpt lat="43.25005" lon="6.00902">
        <ele>299.59</ele>
        <time>2017-05-04T14:13:05Z</time>
      </trkpt>
      <trkpt lat="43.24999" lon="6.00885">
        <ele>298.15</ele>
        <time>2017-05-04T14:13:18Z</time>
      </trkpt>
      <trkpt lat="43.24997" lon="6.00878">
        <ele>297.67</ele>
        <time>2017-05-04T14:13:24Z</time>
      </trkpt>
      <trkpt lat="43.24994" lon="6.00872">
        <ele>297.18</ele>
        <time>2017-05-04T14:13:31Z</time>
      </trkpt>
      <trkpt lat="43.24989" lon="6.00868">
        <ele>296.22</ele>
        <time>2017-05-04T14:13:36Z</time>
      </trkpt>
      <trkpt lat="43.24987" lon="6.00864">
        <ele>295.74</ele>
        <time>2017-05-04T14:13:40Z</time>
      </trkpt>
      <trkpt lat="43.24986" lon="6.00862">
        <ele>295.74</ele>
        <time>2017-05-04T14:13:42Z</time>
      </trkpt>
      <trkpt lat="43.24984" lon="6.00857">
        <ele>295.26</ele>
        <time>2017-05-04T14:13:46Z</time>
      </trkpt>
      <trkpt lat="43.24978" lon="6.00846">
        <ele>294.3</ele>
        <time>2017-05-04T14:13:55Z</time>
      </trkpt>
      <trkpt lat="43.24975" lon="6.00835">
        <ele>294.3</ele>
        <time>2017-05-04T14:14:03Z</time>
      </trkpt>
      <trkpt lat="43.24968" lon="6.00815">
        <ele>293.34</ele>
        <time>2017-05-04T14:14:15Z</time>
      </trkpt>
      <trkpt lat="43.24961" lon="6.00803">
        <ele>292.86</ele>
        <time>2017-05-04T14:14:23Z</time>
      </trkpt>
      <trkpt lat="43.24961" lon="6.00802">
        <ele>292.38</ele>
        <time>2017-05-04T14:14:24Z</time>
      </trkpt>
      <trkpt lat="43.24956" lon="6.00796">
        <ele>291.9</ele>
        <time>2017-05-04T14:14:30Z</time>
      </trkpt>
      <trkpt lat="43.24947" lon="6.00781">
        <ele>289.97</ele>
        <time>2017-05-04T14:14:44Z</time>
      </trkpt>
      <trkpt lat="43.24939" lon="6.00766">
        <ele>289.49</ele>
        <time>2017-05-04T14:14:57Z</time>
      </trkpt>
      <trkpt lat="43.24934" lon="6.00752">
        <ele>289.49</ele>
        <time>2017-05-04T14:15:07Z</time>
      </trkpt>
      <trkpt lat="43.2493" lon="6.00737">
        <ele>289.97</ele>
        <time>2017-05-04T14:15:19Z</time>
      </trkpt>
      <trkpt lat="43.24925" lon="6.00727">
        <ele>289.49</ele>
        <time>2017-05-04T14:15:27Z</time>
      </trkpt>
      <trkpt lat="43.24909" lon="6.00724">
        <ele>288.53</ele>
        <time>2017-05-04T14:15:38Z</time>
      </trkpt>
      <trkpt lat="43.24912" lon="6.00712">
        <ele>286.61</ele>
        <time>2017-05-04T14:15:49Z</time>
      </trkpt>
      <trkpt lat="43.24905" lon="6.00703">
        <ele>284.69</ele>
        <time>2017-05-04T14:16:01Z</time>
      </trkpt>
      <trkpt lat="43.24899" lon="6.007">
        <ele>282.77</ele>
        <time>2017-05-04T14:16:11Z</time>
      </trkpt>
      <trkpt lat="43.24891" lon="6.00699">
        <ele>281.32</ele>
        <time>2017-05-04T14:16:19Z</time>
      </trkpt>
      <trkpt lat="43.24882" lon="6.00695">
        <ele>279.88</ele>
        <time>2017-05-04T14:16:28Z</time>
      </trkpt>
      <trkpt lat="43.24873" lon="6.00689">
        <ele>277.96</ele>
        <time>2017-05-04T14:16:40Z</time>
      </trkpt>
      <trkpt lat="43.24867" lon="6.00688">
        <ele>276.04</ele>
        <time>2017-05-04T14:16:55Z</time>
      </trkpt>
      <trkpt lat="43.2485" lon="6.00675">
        <ele>274.59</ele>
        <time>2017-05-04T14:17:08Z</time>
      </trkpt>
      <trkpt lat="43.24846" lon="6.00671">
        <ele>274.59</ele>
        <time>2017-05-04T14:17:11Z</time>
      </trkpt>
      <trkpt lat="43.24847" lon="6.00658">
        <ele>273.63</ele>
        <time>2017-05-04T14:17:23Z</time>
      </trkpt>
      <trkpt lat="43.24851" lon="6.00657">
        <ele>273.15</ele>
        <time>2017-05-04T14:17:26Z</time>
      </trkpt>
      <trkpt lat="43.24854" lon="6.00652">
        <ele>272.67</ele>
        <time>2017-05-04T14:17:30Z</time>
      </trkpt>
      <trkpt lat="43.24852" lon="6.00639">
        <ele>270.75</ele>
        <time>2017-05-04T14:17:38Z</time>
      </trkpt>
      <trkpt lat="43.24848" lon="6.00632">
        <ele>269.31</ele>
        <time>2017-05-04T14:17:44Z</time>
      </trkpt>
      <trkpt lat="43.24846" lon="6.00626">
        <ele>267.86</ele>
        <time>2017-05-04T14:17:49Z</time>
      </trkpt>
      <trkpt lat="43.24845" lon="6.00622">
        <ele>267.38</ele>
        <time>2017-05-04T14:17:52Z</time>
      </trkpt>
      <trkpt lat="43.24843" lon="6.00616">
        <ele>266.42</ele>
        <time>2017-05-04T14:17:56Z</time>
      </trkpt>
      <trkpt lat="43.24841" lon="6.00613">
        <ele>265.94</ele>
        <time>2017-05-04T14:17:59Z</time>
      </trkpt>
      <trkpt lat="43.24839" lon="6.00609">
        <ele>265.46</ele>
        <time>2017-05-04T14:18:02Z</time>
      </trkpt>
      <trkpt lat="43.24831" lon="6.00594">
        <ele>262.1</ele>
        <time>2017-05-04T14:18:15Z</time>
      </trkpt>
      <trkpt lat="43.2483" lon="6.00589">
        <ele>261.62</ele>
        <time>2017-05-04T14:18:18Z</time>
      </trkpt>
      <trkpt lat="43.24823" lon="6.0057">
        <ele>258.73</ele>
        <time>2017-05-04T14:18:33Z</time>
      </trkpt>
      <trkpt lat="43.24816" lon="6.00561">
        <ele>255.85</ele>
        <time>2017-05-04T14:18:45Z</time>
      </trkpt>
      <trkpt lat="43.24812" lon="6.00557">
        <ele>254.89</ele>
        <time>2017-05-04T14:18:51Z</time>
      </trkpt>
      <trkpt lat="43.24813" lon="6.0055">
        <ele>253.93</ele>
        <time>2017-05-04T14:18:55Z</time>
      </trkpt>
      <trkpt lat="43.24813" lon="6.00546">
        <ele>253.44</ele>
        <time>2017-05-04T14:18:58Z</time>
      </trkpt>
      <trkpt lat="43.24813" lon="6.0054">
        <ele>252.96</ele>
        <time>2017-05-04T14:19:01Z</time>
      </trkpt>
      <trkpt lat="43.24812" lon="6.00536">
        <ele>252</ele>
        <time>2017-05-04T14:19:04Z</time>
      </trkpt>
      <trkpt lat="43.24812" lon="6.00524">
        <ele>250.08</ele>
        <time>2017-05-04T14:19:13Z</time>
      </trkpt>
      <trkpt lat="43.24807" lon="6.00514">
        <ele>248.64</ele>
        <time>2017-05-04T14:19:22Z</time>
      </trkpt>
      <trkpt lat="43.24798" lon="6.00509">
        <ele>245.27</ele>
        <time>2017-05-04T14:19:34Z</time>
      </trkpt>
      <trkpt lat="43.24789" lon="6.00498">
        <ele>242.39</ele>
        <time>2017-05-04T14:19:46Z</time>
      </trkpt>
      <trkpt lat="43.24785" lon="6.00496">
        <ele>240.95</ele>
        <time>2017-05-04T14:19:52Z</time>
      </trkpt>
      <trkpt lat="43.24777" lon="6.00498">
        <ele>239.02</ele>
        <time>2017-05-04T14:20:00Z</time>
      </trkpt>
      <trkpt lat="43.24774" lon="6.00497">
        <ele>238.06</ele>
        <time>2017-05-04T14:20:04Z</time>
      </trkpt>
      <trkpt lat="43.24762" lon="6.00499">
        <ele>235.66</ele>
        <time>2017-05-04T14:20:17Z</time>
      </trkpt>
      <trkpt lat="43.24757" lon="6.005">
        <ele>234.7</ele>
        <time>2017-05-04T14:20:22Z</time>
      </trkpt>
      <trkpt lat="43.2475" lon="6.005">
        <ele>234.22</ele>
        <time>2017-05-04T14:20:36Z</time>
      </trkpt>
      <trkpt lat="43.2475" lon="6.00501">
        <ele>234.22</ele>
        <time>2017-05-04T14:20:39Z</time>
      </trkpt>
      <trkpt lat="43.24751" lon="6.00502">
        <ele>233.26</ele>
        <time>2017-05-04T14:20:48Z</time>
      </trkpt>
      <trkpt lat="43.24751" lon="6.00502">
        <ele>233.26</ele>
        <time>2017-05-04T14:21:14Z</time>
      </trkpt>
      <trkpt lat="43.24751" lon="6.00503">
        <ele>233.74</ele>
        <time>2017-05-04T14:21:42Z</time>
      </trkpt>
      <trkpt lat="43.24751" lon="6.00504">
        <ele>233.74</ele>
        <time>2017-05-04T14:22:11Z</time>
      </trkpt>
      <trkpt lat="43.2475" lon="6.00504">
        <ele>233.74</ele>
        <time>2017-05-04T14:22:39Z</time>
      </trkpt>
      <trkpt lat="43.2475" lon="6.00504">
        <ele>233.74</ele>
        <time>2017-05-04T14:23:10Z</time>
      </trkpt>
      <trkpt lat="43.24749" lon="6.00504">
        <ele>233.74</ele>
        <time>2017-05-04T14:23:47Z</time>
      </trkpt>
      <trkpt lat="43.24749" lon="6.00505">
        <ele>233.74</ele>
        <time>2017-05-04T14:24:18Z</time>
      </trkpt>
      <trkpt lat="43.24749" lon="6.00505">
        <ele>233.74</ele>
        <time>2017-05-04T14:24:43Z</time>
      </trkpt>
      <trkpt lat="43.24749" lon="6.00504">
        <ele>234.22</ele>
        <time>2017-05-04T14:25:12Z</time>
      </trkpt>
      <trkpt lat="43.24749" lon="6.00504">
        <ele>234.22</ele>
        <time>2017-05-04T14:25:47Z</time>
      </trkpt>
      <trkpt lat="43.2475" lon="6.00504">
        <ele>234.22</ele>
        <time>2017-05-04T14:26:21Z</time>
      </trkpt>
      <trkpt lat="43.2475" lon="6.00504">
        <ele>234.7</ele>
        <time>2017-05-04T14:26:56Z</time>
      </trkpt>
      <trkpt lat="43.24749" lon="6.00504">
        <ele>234.22</ele>
        <time>2017-05-04T14:27:30Z</time>
      </trkpt>
      <trkpt lat="43.2475" lon="6.00504">
        <ele>234.22</ele>
        <time>2017-05-04T14:28:07Z</time>
      </trkpt>
      <trkpt lat="43.2475" lon="6.00504">
        <ele>234.22</ele>
        <time>2017-05-04T14:28:41Z</time>
      </trkpt>
      <trkpt lat="43.2475" lon="6.00503">
        <ele>234.22</ele>
        <time>2017-05-04T14:29:10Z</time>
      </trkpt>
      <trkpt lat="43.2475" lon="6.00503">
        <ele>234.22</ele>
        <time>2017-05-04T14:29:45Z</time>
      </trkpt>
      <trkpt lat="43.2475" lon="6.00503">
        <ele>234.22</ele>
        <time>2017-05-04T14:30:14Z</time>
      </trkpt>
      <trkpt lat="43.2475" lon="6.00503">
        <ele>235.18</ele>
        <time>2017-05-04T14:30:37Z</time>
      </trkpt>
      <trkpt lat="43.24749" lon="6.00503">
        <ele>234.7</ele>
        <time>2017-05-04T14:30:54Z</time>
      </trkpt>
      <trkpt lat="43.24746" lon="6.00502">
        <ele>234.22</ele>
        <time>2017-05-04T14:31:07Z</time>
      </trkpt>
      <trkpt lat="43.24744" lon="6.00502">
        <ele>233.74</ele>
        <time>2017-05-04T14:31:19Z</time>
      </trkpt>
      <trkpt lat="43.24742" lon="6.00503">
        <ele>233.74</ele>
        <time>2017-05-04T14:31:32Z</time>
      </trkpt>
      <trkpt lat="43.24738" lon="6.00508">
        <ele>232.3</ele>
        <time>2017-05-04T14:31:45Z</time>
      </trkpt>
      <trkpt lat="43.24734" lon="6.00515">
        <ele>229.89</ele>
        <time>2017-05-04T14:32:04Z</time>
      </trkpt>
      <trkpt lat="43.24724" lon="6.00516">
        <ele>228.45</ele>
        <time>2017-05-04T14:32:16Z</time>
      </trkpt>
      <trkpt lat="43.24712" lon="6.00514">
        <ele>226.53</ele>
        <time>2017-05-04T14:32:30Z</time>
      </trkpt>
      <trkpt lat="43.24699" lon="6.0051">
        <ele>224.12</ele>
        <time>2017-05-04T14:32:45Z</time>
      </trkpt>
      <trkpt lat="43.24687" lon="6.00505">
        <ele>222.68</ele>
        <time>2017-05-04T14:32:58Z</time>
      </trkpt>
      <trkpt lat="43.24679" lon="6.00505">
        <ele>219.8</ele>
        <time>2017-05-04T14:33:10Z</time>
      </trkpt>
      <trkpt lat="43.24676" lon="6.00513">
        <ele>217.4</ele>
        <time>2017-05-04T14:33:23Z</time>
      </trkpt>
      <trkpt lat="43.24674" lon="6.00511">
        <ele>216.43</ele>
        <time>2017-05-04T14:33:26Z</time>
      </trkpt>
      <trkpt lat="43.2467" lon="6.00505">
        <ele>215.95</ele>
        <time>2017-05-04T14:33:30Z</time>
      </trkpt>
      <trkpt lat="43.24665" lon="6.00498">
        <ele>214.51</ele>
        <time>2017-05-04T14:33:43Z</time>
      </trkpt>
      <trkpt lat="43.24664" lon="6.00494">
        <ele>214.51</ele>
        <time>2017-05-04T14:33:55Z</time>
      </trkpt>
      <trkpt lat="43.24663" lon="6.00488">
        <ele>214.03</ele>
        <time>2017-05-04T14:34:01Z</time>
      </trkpt>
      <trkpt lat="43.24653" lon="6.00482">
        <ele>210.19</ele>
        <time>2017-05-04T14:34:12Z</time>
      </trkpt>
      <trkpt lat="43.24651" lon="6.00482">
        <ele>209.7</ele>
        <time>2017-05-04T14:34:14Z</time>
      </trkpt>
      <trkpt lat="43.24646" lon="6.00477">
        <ele>206.82</ele>
        <time>2017-05-04T14:34:27Z</time>
      </trkpt>
      <trkpt lat="43.2464" lon="6.00475">
        <ele>203.94</ele>
        <time>2017-05-04T14:34:40Z</time>
      </trkpt>
      <trkpt lat="43.24636" lon="6.00469">
        <ele>202.49</ele>
        <time>2017-05-04T14:34:46Z</time>
      </trkpt>
      <trkpt lat="43.24635" lon="6.00464">
        <ele>202.01</ele>
        <time>2017-05-04T14:34:49Z</time>
      </trkpt>
      <trkpt lat="43.24633" lon="6.00451">
        <ele>201.53</ele>
        <time>2017-05-04T14:34:56Z</time>
      </trkpt>
      <trkpt lat="43.24631" lon="6.0044">
        <ele>200.09</ele>
        <time>2017-05-04T14:35:05Z</time>
      </trkpt>
      <trkpt lat="43.24627" lon="6.00427">
        <ele>197.21</ele>
        <time>2017-05-04T14:35:18Z</time>
      </trkpt>
      <trkpt lat="43.24626" lon="6.00425">
        <ele>195.77</ele>
        <time>2017-05-04T14:35:23Z</time>
      </trkpt>
      <trkpt lat="43.24619" lon="6.00421">
        <ele>193.36</ele>
        <time>2017-05-04T14:35:36Z</time>
      </trkpt>
      <trkpt lat="43.24617" lon="6.00422">
        <ele>192.88</ele>
        <time>2017-05-04T14:35:38Z</time>
      </trkpt>
      <trkpt lat="43.2461" lon="6.00427">
        <ele>190.96</ele>
        <time>2017-05-04T14:35:46Z</time>
      </trkpt>
      <trkpt lat="43.24601" lon="6.00433">
        <ele>188.56</ele>
        <time>2017-05-04T14:35:57Z</time>
      </trkpt>
      <trkpt lat="43.24594" lon="6.00436">
        <ele>186.63</ele>
        <time>2017-05-04T14:36:06Z</time>
      </trkpt>
      <trkpt lat="43.24591" lon="6.00439">
        <ele>185.67</ele>
        <time>2017-05-04T14:36:10Z</time>
      </trkpt>
      <trkpt lat="43.24589" lon="6.0044">
        <ele>185.19</ele>
        <time>2017-05-04T14:36:12Z</time>
      </trkpt>
      <trkpt lat="43.24581" lon="6.00447">
        <ele>184.23</ele>
        <time>2017-05-04T14:36:19Z</time>
      </trkpt>
      <trkpt lat="43.24574" lon="6.00446">
        <ele>182.79</ele>
        <time>2017-05-04T14:36:26Z</time>
      </trkpt>
      <trkpt lat="43.24572" lon="6.00442">
        <ele>182.79</ele>
        <time>2017-05-04T14:36:29Z</time>
      </trkpt>
      <trkpt lat="43.24565" lon="6.00426">
        <ele>180.38</ele>
        <time>2017-05-04T14:36:40Z</time>
      </trkpt>
      <trkpt lat="43.24565" lon="6.0042">
        <ele>179.9</ele>
        <time>2017-05-04T14:36:43Z</time>
      </trkpt>
      <trkpt lat="43.24558" lon="6.00406">
        <ele>177.98</ele>
        <time>2017-05-04T14:36:53Z</time>
      </trkpt>
      <trkpt lat="43.24554" lon="6.00397">
        <ele>176.54</ele>
        <time>2017-05-04T14:36:59Z</time>
      </trkpt>
      <trkpt lat="43.24549" lon="6.00387">
        <ele>174.62</ele>
        <time>2017-05-04T14:37:07Z</time>
      </trkpt>
      <trkpt lat="43.24548" lon="6.0038">
        <ele>174.14</ele>
        <time>2017-05-04T14:37:11Z</time>
      </trkpt>
      <trkpt lat="43.24546" lon="6.00372">
        <ele>173.17</ele>
        <time>2017-05-04T14:37:15Z</time>
      </trkpt>
      <trkpt lat="43.24541" lon="6.00355">
        <ele>171.25</ele>
        <time>2017-05-04T14:37:26Z</time>
      </trkpt>
      <trkpt lat="43.24543" lon="6.00349">
        <ele>169.33</ele>
        <time>2017-05-04T14:37:31Z</time>
      </trkpt>
      <trkpt lat="43.24546" lon="6.00345">
        <ele>168.85</ele>
        <time>2017-05-04T14:37:36Z</time>
      </trkpt>
      <trkpt lat="43.24551" lon="6.00339">
        <ele>168.85</ele>
        <time>2017-05-04T14:37:50Z</time>
      </trkpt>
      <trkpt lat="43.24555" lon="6.00338">
        <ele>168.85</ele>
        <time>2017-05-04T14:38:09Z</time>
      </trkpt>
    </trkseg>
  </trk>
</gpx>